[[{"header":{"parameterUnit":"m.s-1","parameterCategory":1,"la1":31.0,"la2":29.5877,"lo1":-88.7671,"lo2":-86.6584,"dx":0.0162,"dy":0.0185,"nx":115,"ny":88,"refTime":"2023-01-25T18:00:00:Z","depth":0,"parameterNumber":2,"parameterNumberName":"U-component_of_WINDS"},"data":[0.0,0.0,0.0,0.0,0.0,0.0,0.0,0.0,0.0,0.0,0.0,0.0,0.0,0.0,0.0,0.0,0.0,0.0,0.0,0.0,0.0,0.0,0.0,0.0,0.0,0.0,0.0,0.0,0.0,0.0,0.0,0.0,0.0,0.0,0.0,0.0,0.0,0.0,0.0,0.0,0.0,0.0,0.0,0.0,0.0,0.0,0.0,0.0,0.0,0.0,0.0,0.0,0.0,0.0,0.0,0.0,0.0,0.0,0.0,0.0,0.0,0.0,0.0,0.0,0.0,0.0,0.0,0.0,0.0,0.0,0.0,0.0,0.0,0.0,0.0,0.0,0.0,0.0,0.0,0.0,0.0,0.0,0.0,0.0,0.0,0.0,0.0,0.0,0.0,0.0,0.0,0.0,0.0,0.0,0.0,0.0,0.0,0.0,0.0,0.0,0.0,0.0,0.0,0.0,0.0,0.0,0.0,0.0,0.0,0.0,0.0,0.0,0.0,0.0,0.0,0.0,0.0,0.0,0.0,0.0,0.0,0.0,0.0,0.0,0.0,0.0,0.0,0.0,0.0,0.0,0.0,0.0,0.0,0.0,0.0,0.0,0.0,0.0,0.0,0.0,0.0,0.0,0.0,0.0,0.0,0.0,0.0,0.0,0.0,0.0,0.0,0.0,0.0,0.0,0.0,0.0,0.0,0.0,0.0,0.0,0.0,0.0,0.0,0.0,0.0,0.0,0.0,0.0,0.0,0.0,0.0,0.0,0.0,0.0,0.0,0.0,0.0,0.0,0.0,0.0,0.0,0.0,0.0,0.0,0.0,0.0,0.0,0.0,0.0,0.0,0.0,0.0,0.0,0.0,0.0,0.0,0.0,0.0,0.0,0.0,0.0,0.0,0.0,0.0,0.0,0.0,0.0,0.0,0.0,0.0,0.0,0.0,0.0,0.0,0.0,0.0,0.0,0.0,0.0,0.0,0.0,0.0,0.0,0.0,0.0,0.0,0.0,0.0,0.0,0.0,0.0,0.0,0.0,0.0,0.0,0.0,0.0,0.0,0.0,0.0,0.0,0.0,0.0,0.0,0.0,0.0,0.0,0.0,0.0,0.0,0.0,0.0,0.0,0.0,0.0,0.0,0.0,0.0,0.0,0.0,0.0,0.0,0.0,0.0,0.0,0.0,0.0,0.0,0.0,0.0,0.0,0.0,0.0,0.0,0.0,0.0,0.0,0.0,0.0,0.0,0.0,0.0,0.0,0.0,0.0,0.0,0.0,0.0,0.0,0.0,0.0,0.0,0.0,0.0,0.0,0.0,0.0,0.0,0.0,0.0,0.0,0.0,0.0,0.0,0.0,0.0,0.0,0.0,0.0,0.0,0.0,0.0,0.0,0.0,0.0,0.0,0.0,0.0,0.0,0.0,0.0,0.0,0.0,0.0,0.0,0.0,0.0,0.0,0.0,0.0,0.0,0.0,0.0,0.0,0.0,0.0,0.0,0.0,0.0,0.0,0.0,0.0,0.0,0.0,0.0,0.0,0.0,0.0,0.0,0.0,0.0,0.0,0.0,0.0,0.0,0.0,0.0,0.0,0.0,0.0,0.0,0.0,0.0,0.0,0.0,0.0,0.0,0.0,0.0,0.0,0.0,0.0,0.0,0.0,0.0,0.0,0.0,0.0,0.0,0.0,0.0,0.0,0.0,0.0,0.0,0.0,0.0,0.0,0.0,0.0,0.0,0.0,0.0,0.0,0.0,0.0,0.0,0.0,0.0,0.0,0.0,0.0,0.0,0.0,0.0,0.0,0.0,0.0,0.0,0.0,0.0,0.0,0.0,0.0,0.0,0.0,0.0,0.0,0.0,0.0,0.0,0.0,0.0,0.0,0.0,0.0,0.0,0.0,0.0,0.0,0.0,0.0,0.0,0.0,0.0,0.0,0.0,0.0,0.0,0.0,0.0,0.0,0.0,0.0,0.0,0.0,0.0,0.0,0.0,0.0,0.0,0.0,0.0,0.0,0.0,0.0,0.0,0.0,0.0,0.0,0.0,0.0,0.0,0.0,0.0,0.0,0.0,0.0,0.0,0.0,0.0,0.0,0.0,0.0,0.0,0.0,0.0,0.0,0.0,0.0,0.0,0.0,0.0,0.0,0.0,0.0,0.0,0.0,0.0,0.0,0.0,0.0,0.0,0.0,0.0,0.0,0.0,0.0,0.0,0.0,0.0,0.0,0.0,0.0,0.0,0.0,0.0,0.0,0.0,0.0,0.0,0.0,0.0,0.0,0.0,0.0,0.0,0.0,0.0,0.0,0.0,0.0,0.0,0.0,0.0,0.0,0.0,0.0,0.0,0.0,0.0,0.0,0.0,0.0,0.0,0.0,0.0,0.0,0.0,0.0,0.0,0.0,0.0,0.0,0.0,0.0,0.0,0.0,0.0,0.0,0.0,0.0,0.0,0.0,0.0,0.0,0.0,0.0,0.0,0.0,0.0,0.0,0.0,0.0,0.0,0.0,0.0,0.0,0.0,0.0,0.0,0.0,0.0,0.0,0.0,0.0,0.0,0.0,0.0,0.0,0.0,0.0,0.0,0.0,0.0,0.0,0.0,0.0,0.0,0.0,0.0,0.0,0.0,0.0,0.0,0.0,0.0,0.0,0.0,0.0,0.0,0.0,0.0,0.0,0.0,0.0,0.0,0.0,0.0,0.0,0.0,0.0,0.0,0.0,0.0,0.0,0.0,0.0,0.0,0.0,0.0,0.0,0.0,0.0,0.0,0.0,0.0,0.0,0.0,0.0,0.0,0.0,0.0,0.0,0.0,0.0,0.0,0.0,0.0,0.0,0.0,0.0,0.0,0.0,0.0,0.0,0.0,0.0,0.0,0.0,0.0,0.0,0.0,0.0,0.0,0.0,0.0,0.0,0.0,0.0,0.0,0.0,0.0,0.0,0.0,0.0,0.0,0.0,0.0,0.0,0.0,0.0,0.0,0.0,0.0,0.0,0.0,0.0,0.0,0.0,0.0,0.0,0.0,0.0,0.0,0.0,0.0,0.0,0.0,0.0,0.0,0.0,0.0,0.0,0.0,0.0,0.0,0.0,0.0,0.0,0.0,0.0,0.0,0.0,0.0,0.0,0.0,0.0,0.0,0.0,0.0,0.0,0.0,0.0,0.0,0.0,0.0,0.0,0.0,0.0,0.0,0.0,0.0,0.0,0.0,0.0,0.0,0.0,0.0,0.0,0.0,0.0,0.0,0.0,0.0,0.0,0.0,0.0,0.0,0.0,0.0,0.0,0.0,0.0,0.0,0.0,0.0,0.0,0.0,0.0,0.0,0.0,0.0,0.0,0.0,0.0,0.0,0.0,0.0,0.0,0.0,0.0,0.0,0.0,0.0,0.0,0.0,0.0,0.0,0.0,0.0,0.0,0.0,0.0,0.0,0.0,0.0,0.0,0.0,0.0,0.0,0.0,0.0,0.0,0.0,0.0,0.0,0.0,0.0,0.0,0.0,0.0,0.0,0.0,0.0,0.0,0.0,0.0,0.0,0.0,0.0,0.0,0.0,0.0,0.0,0.0,0.0,0.0,0.0,0.0,0.0,0.0,0.0,0.0,0.0,0.0,0.0,0.0,0.0,0.0,0.0,0.0,0.0,0.0,0.0,0.0,0.0,0.0,0.0,0.0,0.0,0.0,0.0,0.0,0.0,0.0,0.0,0.0,0.0,0.0,0.0,0.0,0.0,0.0,0.0,0.0,0.0,0.0,0.0,0.0,0.0,0.0,0.0,0.0,0.0,0.0,0.0,0.0,0.0,0.0,0.0,0.0,0.0,0.0,0.0,0.0,0.0,0.0,0.0,0.0,0.0,0.0,0.0,0.0,0.0,0.0,0.0,0.0,0.0,0.0,0.0,0.0,0.0,0.0,0.0,0.0,0.0,0.0,0.0,0.0,0.0,0.0,0.0,0.0,0.0,0.0,0.0,0.0,0.0,0.0,0.0,0.0,0.0,0.0,0.0,0.0,0.0,0.0,0.0,0.0,0.0,0.0,0.0,0.0,0.0,0.0,0.0,0.0,0.0,0.0,0.0,0.0,0.0,0.0,0.0,0.0,0.0,0.0,0.0,0.0,0.0,0.0,0.0,0.0,0.0,0.0,0.0,0.0,0.0,0.0,0.0,0.0,0.0,0.0,0.0,0.0,0.0,0.0,0.0,0.0,0.0,0.0,0.0,0.0,0.0,0.0,0.0,0.0,0.0,0.0,0.0,0.0,0.0,0.0,0.0,0.0,1.9955,0.0,0.0,0.0,0.0,0.0,0.0,0.0,0.0,0.0,0.0,0.0,0.0,0.0,0.0,0.0,0.0,0.0,0.0,0.0,0.0,0.0,0.0,0.0,0.0,0.0,0.0,0.0,0.0,0.0,0.0,0.0,0.0,0.0,0.0,0.0,0.0,0.0,0.0,0.0,0.0,0.0,0.0,0.0,0.0,0.0,0.0,0.0,0.0,0.0,0.0,0.0,0.0,0.0,0.0,0.0,0.0,0.0,0.0,0.0,0.0,0.0,0.0,0.0,0.0,0.0,0.0,0.0,0.0,0.0,0.0,0.0,0.0,0.0,0.0,0.0,0.0,0.0,0.0,0.0,0.0,0.0,0.0,0.0,0.0,0.0,0.0,0.0,0.0,0.0,0.0,0.0,0.0,0.0,0.0,0.0,0.0,0.0,0.0,0.0,0.0,0.0,0.0,0.0,0.0,0.0,0.0,0.0,0.0,0.0,0.0,1.8744,1.9974,1.8163,1.8234,2.0555,0.0,0.0,0.0,0.0,0.0,0.0,0.0,0.0,0.0,0.0,0.0,0.0,0.0,0.0,0.0,0.0,0.0,0.0,0.0,0.0,0.0,0.0,0.0,0.0,0.0,0.0,0.0,0.0,0.0,0.0,0.0,0.0,0.0,0.0,0.0,0.0,0.0,0.0,0.0,0.0,0.0,0.0,0.0,0.0,0.0,0.0,0.0,0.0,0.0,0.0,0.0,0.0,0.0,0.0,0.0,0.0,0.0,0.0,0.0,0.0,0.0,0.0,0.0,0.0,0.0,0.0,0.0,0.0,0.0,0.0,0.0,0.0,0.0,0.0,0.0,0.0,0.0,0.0,0.0,0.0,0.0,0.0,0.0,0.0,0.0,0.0,0.0,0.0,0.0,0.0,0.0,0.0,0.0,0.0,0.0,0.0,0.0,0.0,0.0,0.0,0.0,0.0,0.0,0.0,0.0,0.0,0.0,0.0,0.0,0.0,0.0,0.0,1.8175,1.8267,2.0958,0.0,0.0,0.0,0.0,0.0,0.0,0.0,0.0,0.0,0.0,0.0,0.0,0.0,0.0,0.0,0.0,0.0,0.0,0.0,0.0,0.0,0.0,0.0,0.0,0.0,0.0,0.0,0.0,0.0,0.0,0.0,0.0,0.0,0.0,0.0,0.0,0.0,0.0,0.0,0.0,0.0,0.0,0.0,0.0,0.0,0.0,0.0,0.0,0.0,0.0,0.0,0.0,0.0,0.0,0.0,0.0,0.0,0.0,0.0,0.0,0.0,0.0,0.0,0.0,0.0,0.0,0.0,0.0,0.0,0.0,0.0,0.0,0.0,0.0,0.0,0.0,0.0,0.0,0.0,0.0,0.0,0.0,0.0,0.0,0.0,0.0,0.0,0.0,0.0,0.0,0.0,0.0,0.0,0.0,0.0,0.0,0.0,0.0,0.0,0.0,0.0,0.0,0.0,0.0,0.0,0.0,0.0,0.0,0.0,0.0,2.0238,2.0648,2.0559,0.0,2.1521,0.0,0.0,0.0,0.0,0.0,0.0,0.0,0.0,0.0,0.0,0.0,0.0,0.0,0.0,0.0,0.0,0.0,0.0,0.0,0.0,0.0,0.0,0.0,0.0,0.0,0.0,0.0,0.0,0.0,0.0,0.0,0.0,0.0,0.0,0.0,0.0,0.0,0.0,0.0,0.0,0.0,0.0,0.0,0.0,0.0,0.0,0.0,0.0,0.0,0.0,0.0,0.0,0.0,0.0,0.0,0.0,0.0,0.0,0.0,0.0,0.0,0.0,0.0,0.0,0.0,0.0,0.0,0.0,0.0,0.0,0.0,0.0,0.0,0.0,0.0,0.0,0.0,0.0,0.0,0.0,0.0,0.0,0.0,0.0,0.0,0.0,0.0,0.0,0.0,0.0,0.0,0.0,0.0,0.0,0.0,0.0,0.0,0.0,0.0,0.0,0.0,0.0,0.0,0.0,0.0,0.0,0.0,0.0,0.0,0.0,2.0242,2.0867,2.1183,2.1337,0.0,0.0,0.0,0.0,0.0,0.0,0.0,0.0,0.0,0.0,0.0,0.0,0.0,0.0,0.0,0.0,0.0,0.0,0.0,0.0,0.0,0.0,0.0,0.0,0.0,0.0,0.0,0.0,0.0,0.0,0.0,0.0,0.0,0.0,0.0,0.0,0.0,0.0,0.0,0.0,0.0,0.0,0.0,0.0,0.0,0.0,0.0,0.0,0.0,0.0,0.0,0.0,0.0,0.0,0.0,0.0,0.0,0.0,0.0,0.0,0.0,0.0,0.0,0.0,0.0,0.0,0.0,0.0,0.0,0.0,0.0,0.0,0.0,0.0,0.0,0.0,0.0,0.0,0.0,0.0,0.0,0.0,0.0,0.0,0.0,0.0,0.0,0.0,0.0,0.0,0.0,0.0,0.0,0.0,0.0,0.0,0.0,0.0,0.0,0.0,0.0,0.0,0.0,0.0,0.0,0.0,0.0,0.0,0.0,0.0,2.0071,2.0481,2.1323,2.1507,2.1521,2.1354,0.0,0.0,0.0,0.0,0.0,0.0,0.0,0.0,0.0,0.0,0.0,0.0,0.0,0.0,0.0,0.0,0.0,0.0,0.0,0.0,0.0,0.0,0.0,0.0,0.0,0.0,0.0,0.0,0.0,0.0,0.0,0.0,0.0,0.0,0.0,0.0,0.0,0.0,0.0,0.0,0.0,0.0,0.0,0.0,0.0,0.0,0.0,0.0,0.0,0.0,0.0,0.0,0.0,0.0,0.0,0.0,0.0,0.0,0.0,0.0,0.0,0.0,0.0,0.0,0.0,0.0,0.0,0.0,0.0,0.0,0.0,0.0,0.0,0.0,0.0,0.0,0.0,0.0,0.0,0.0,0.0,0.0,0.0,0.0,0.0,0.0,0.0,0.0,0.0,0.0,0.0,0.0,0.0,0.0,0.0,0.0,0.0,0.0,0.0,0.0,0.0,0.0,0.0,0.0,0.0,0.0,0.0,0.0,2.1173,2.1045,2.137,2.2168,2.1823,2.1794,0.0,0.0,0.0,0.0,0.0,0.0,0.0,0.0,0.0,0.0,0.0,0.0,0.0,0.0,0.0,0.0,0.0,0.0,0.0,0.0,0.0,0.0,0.0,0.0,0.0,0.0,0.0,0.0,0.0,0.0,0.0,0.0,0.0,0.0,0.0,0.0,0.0,0.0,0.0,0.0,0.0,0.0,0.0,0.0,0.0,0.0,0.0,0.0,0.0,0.0,0.0,0.0,0.0,0.0,0.0,0.0,0.0,0.0,0.0,0.0,0.0,0.0,0.0,0.0,0.0,0.0,0.0,0.0,0.0,0.0,0.0,0.0,0.0,0.0,0.0,0.0,0.0,0.0,0.0,0.0,0.0,0.0,0.0,0.0,0.0,0.0,0.0,0.0,0.0,0.0,0.0,0.0,0.0,0.0,0.0,0.0,0.0,0.0,0.0,0.0,0.0,0.0,0.0,0.0,0.0,0.0,0.0,0.0,0.0,2.15,2.1635,2.1924,2.2504,2.2208,2.2135,0.0,0.0,0.0,0.0,0.0,0.0,0.0,0.0,0.0,0.0,0.0,0.0,0.0,0.0,0.0,0.0,0.0,0.0,0.0,0.0,0.0,0.0,0.0,0.0,0.0,0.0,0.0,0.0,0.0,0.0,0.0,0.0,0.0,0.0,0.0,0.0,0.0,0.0,0.0,0.0,0.0,0.0,0.0,0.0,0.0,0.0,0.0,0.0,0.0,0.0,0.0,0.0,0.0,0.0,0.0,0.0,0.0,0.0,0.0,0.0,0.0,0.0,0.0,0.0,0.0,0.0,0.0,0.0,0.0,0.0,0.0,0.0,0.0,0.0,0.0,0.0,0.0,0.0,0.0,0.0,0.0,0.0,0.0,0.0,0.0,0.0,0.0,0.0,0.0,0.0,0.0,0.0,0.0,0.0,0.0,0.0,0.0,0.0,0.0,0.0,0.0,0.0,0.0,0.0,0.0,0.0,0.0,0.0,0.0,2.1982,0.0,2.2276,2.2568,2.2387,2.2327,0.0,0.0,0.0,0.0,0.0,0.0,0.0,0.0,0.0,0.0,0.0,0.0,0.0,0.0,0.0,0.0,0.0,0.0,0.0,0.0,0.0,0.0,0.0,0.0,0.0,0.0,0.0,0.0,0.0,0.0,0.0,0.0,0.0,0.0,0.0,0.0,0.0,0.0,0.0,0.0,0.0,0.0,0.0,0.0,0.0,0.0,0.0,0.0,0.0,0.0,0.0,0.0,0.0,0.0,0.0,0.0,0.0,0.0,0.0,0.0,0.0,0.0,0.0,0.0,0.0,0.0,0.0,0.0,0.0,0.0,0.0,0.0,0.0,0.0,0.0,0.0,0.0,0.0,0.0,0.0,0.0,0.0,0.0,0.0,0.0,0.0,0.0,0.0,0.0,0.0,0.0,0.0,0.0,0.0,0.0,0.0,0.0,0.0,0.0,0.0,0.0,0.0,0.0,0.0,0.0,0.0,0.0,0.0,2.2556,2.2717,2.2501,2.2411,2.2378,2.2378,2.2327,0.0,0.0,0.0,0.0,0.0,0.0,0.0,0.0,0.0,0.0,0.0,0.0,0.0,0.0,0.0,0.0,0.0,0.0,0.0,0.0,0.0,0.0,0.0,0.0,0.0,0.0,0.0,0.0,0.0,0.0,0.0,0.0,0.0,0.0,0.0,0.0,0.0,0.0,0.0,0.0,0.0,0.0,0.0,0.0,0.0,0.0,0.0,0.0,0.0,0.0,0.0,0.0,0.0,0.0,0.0,0.0,0.0,0.0,0.0,0.0,0.0,0.0,0.0,0.0,0.0,0.0,0.0,0.0,0.0,0.0,0.0,0.0,0.0,0.0,0.0,0.0,0.0,0.0,0.0,0.0,0.0,0.0,0.0,0.0,0.0,0.0,0.0,0.0,0.0,0.0,0.0,0.0,0.0,0.0,0.0,0.0,0.0,0.0,0.0,0.0,0.0,0.0,0.0,0.0,0.0,0.0,0.0,0.0,0.0,2.5008,2.3884,2.3927,2.5203,2.3359,2.253,0.0,0.0,0.0,0.0,0.0,0.0,0.0,0.0,0.0,0.0,0.0,0.0,0.0,0.0,0.0,0.0,0.0,0.0,0.0,0.0,0.0,0.0,0.0,0.0,0.0,0.0,0.0,0.0,0.0,0.0,0.0,0.0,0.0,0.0,0.0,0.0,0.0,0.0,0.0,0.0,0.0,0.0,0.0,0.0,0.0,0.0,0.0,0.0,0.0,0.0,0.0,0.0,0.0,0.0,0.0,0.0,0.0,0.0,0.0,0.0,0.0,0.0,0.0,0.0,0.0,0.0,0.0,0.0,0.0,0.0,0.0,0.0,0.0,0.0,0.0,0.0,0.0,0.0,0.0,0.0,0.0,0.0,0.0,0.0,0.0,0.0,0.0,0.0,0.0,0.0,0.0,0.0,0.0,0.0,0.0,0.0,0.0,0.0,0.0,0.0,0.0,0.0,0.0,0.0,0.0,0.0,0.0,0.0,0.0,2.7501,2.5513,2.4862,2.5862,2.434,2.3494,2.3393,0.0,0.0,0.0,0.0,0.0,0.0,0.0,0.0,0.0,0.0,0.0,0.0,0.0,0.0,0.0,0.0,0.0,0.0,0.0,0.0,0.0,0.0,0.0,0.0,0.0,0.0,0.0,0.0,0.0,0.0,0.0,0.0,0.0,0.0,0.0,0.0,0.0,0.0,0.0,0.0,0.0,0.0,0.0,0.0,0.0,0.0,0.0,0.0,0.0,0.0,0.0,0.0,0.0,0.0,0.0,0.0,0.0,0.0,0.0,0.0,0.0,0.0,0.0,0.0,0.0,0.0,0.0,0.0,0.0,0.0,0.0,0.0,0.0,0.0,0.0,0.0,0.0,0.0,0.0,0.0,0.0,0.0,0.0,0.0,0.0,0.0,0.0,0.0,0.0,0.0,0.0,0.0,0.0,0.0,0.0,0.0,0.0,0.0,0.0,0.0,0.0,0.0,0.0,0.0,0.0,0.0,0.0,0.0,3.0091,2.7486,2.5778,2.5,2.5473,2.5033,0.0,0.0,0.0,0.0,0.0,0.0,0.0,0.0,0.0,0.0,0.0,0.0,0.0,0.0,0.0,0.0,0.0,0.0,0.0,0.0,0.0,0.0,0.0,0.0,0.0,0.0,0.0,0.0,0.0,0.0,0.0,0.0,0.0,0.0,0.0,0.0,0.0,0.0,0.0,0.0,0.0,0.0,0.0,0.0,0.0,0.0,0.0,0.0,0.0,0.0,0.0,0.0,0.0,0.0,0.0,0.0,0.0,0.0,0.0,0.0,0.0,0.0,0.0,0.0,0.0,0.0,0.0,0.0,0.0,0.0,0.0,0.0,0.0,0.0,0.0,0.0,0.0,0.0,0.0,0.0,0.0,0.0,0.0,0.0,0.0,0.0,0.0,0.0,0.0,0.0,0.0,0.0,0.0,0.0,0.0,0.0,0.0,0.0,0.0,0.0,0.0,0.0,0.0,0.0,0.0,0.0,0.0,0.0,0.0,3.0104,3.1444,3.1292,2.9499,2.801,2.6539,0.0,0.0,0.0,0.0,0.0,0.0,0.0,0.0,0.0,0.0,0.0,0.0,0.0,0.0,0.0,0.0,0.0,0.0,0.0,0.0,0.0,0.0,0.0,0.0,0.0,0.0,0.0,0.0,0.0,0.0,0.0,0.0,0.0,0.0,0.0,0.0,0.0,0.0,0.0,0.0,0.0,0.0,0.0,0.0,0.0,0.0,0.0,0.0,0.0,0.0,0.0,0.0,0.0,0.0,0.0,0.0,0.0,0.0,0.0,0.0,0.0,0.0,0.0,0.0,0.0,0.0,0.0,0.0,0.0,0.0,0.0,0.0,0.0,0.0,0.0,0.0,0.0,0.0,0.0,0.0,0.0,0.0,0.0,0.0,0.0,0.0,0.0,0.0,0.0,0.0,0.0,0.0,0.0,0.0,0.0,0.0,0.0,0.0,0.0,0.0,0.0,0.0,0.0,0.0,0.0,0.0,0.0,0.0,3.0492,3.1038,3.4235,3.5165,3.3575,3.1664,2.933,0.0,0.0,0.0,0.0,0.0,0.0,0.0,0.0,0.0,0.0,0.0,0.0,0.0,0.0,0.0,0.0,0.0,0.0,0.0,0.0,0.0,0.0,0.0,0.0,0.0,0.0,0.0,0.0,0.0,0.0,0.0,0.0,0.0,0.0,0.0,0.0,0.0,0.0,0.0,0.0,0.0,0.0,0.0,0.0,0.0,0.0,0.0,0.0,0.0,0.0,0.0,0.0,0.0,0.0,0.0,0.0,0.0,0.0,0.0,0.0,0.0,0.0,0.0,0.0,0.0,0.0,0.0,0.0,0.0,0.0,0.0,0.0,0.0,0.0,0.0,0.0,0.0,0.0,0.0,0.0,0.0,0.0,0.0,0.0,0.0,0.0,0.0,0.0,0.0,0.0,0.0,0.0,0.0,0.0,0.0,0.0,0.0,0.0,0.0,0.0,0.0,0.0,0.0,0.0,0.0,0.0,0.0,0.0,3.1774,3.2425,3.6146,3.777,3.6992,3.5368,3.2476,0.0,0.0,0.0,0.0,0.0,0.0,0.0,0.0,0.0,0.0,0.0,0.0,0.0,0.0,0.0,0.0,0.0,0.0,0.0,0.0,0.0,0.0,0.0,0.0,0.0,0.0,0.0,0.0,0.0,0.0,0.0,0.0,0.0,0.0,0.0,0.0,0.0,0.0,0.0,0.0,0.0,0.0,0.0,0.0,0.0,0.0,0.0,0.0,0.0,0.0,0.0,0.0,0.0,0.0,0.0,0.0,0.0,0.0,0.0,0.0,0.0,0.0,0.0,0.0,0.0,0.0,0.0,0.0,0.0,0.0,0.0,0.0,0.0,0.0,0.0,0.0,0.0,0.0,0.0,0.0,0.0,0.0,0.0,0.0,0.0,0.0,0.0,0.0,0.0,0.0,0.0,0.0,0.0,0.0,0.0,0.0,0.0,0.0,0.0,0.0,0.0,0.0,0.0,0.0,0.0,0.0,0.0,0.0,3.2067,3.3237,3.7398,3.9276,3.8514,3.5893,3.2949,0.0,0.0,0.0,0.0,0.0,0.0,0.0,0.0,0.0,0.0,0.0,0.0,0.0,0.0,0.0,0.0,0.0,0.0,0.0,0.0,0.0,0.0,0.0,0.0,0.0,0.0,0.0,0.0,0.0,0.0,0.0,0.0,0.0,0.0,0.0,0.0,0.0,0.0,0.0,0.0,0.0,0.0,0.0,0.0,0.0,0.0,0.0,0.0,2.0216,0.0,0.0,0.0,0.0,0.0,0.0,0.0,0.0,0.0,0.0,0.0,0.0,0.0,0.0,0.0,0.0,0.0,0.0,0.0,0.0,0.0,0.0,0.0,0.0,0.0,0.0,0.0,0.0,0.0,0.0,0.0,0.0,0.0,0.0,0.0,0.0,0.0,0.0,0.0,0.0,0.0,0.0,0.0,0.0,0.0,0.0,0.0,0.0,0.0,0.0,0.0,0.0,0.0,0.0,0.0,0.0,0.0,0.0,0.0,3.2467,3.4445,3.8142,3.9884,3.9428,3.6941,3.4336,0.0,0.0,0.0,0.0,0.0,0.0,0.0,0.0,0.0,0.0,0.0,0.0,0.0,0.0,0.0,0.0,0.0,0.0,0.0,0.0,0.0,0.0,0.0,0.0,0.0,0.0,0.0,0.0,0.0,0.0,0.0,0.0,0.0,0.0,0.0,0.0,0.0,0.0,0.0,0.0,0.0,0.0,0.0,0.0,0.0,0.0,0.0,0.0,0.0,0.0,0.0,0.0,0.0,0.0,0.0,0.0,0.0,0.0,0.0,0.0,0.0,0.0,0.0,0.0,0.0,0.0,0.0,0.0,0.0,0.0,0.0,0.0,0.0,0.0,0.0,0.0,0.0,0.0,0.0,0.0,0.0,0.0,0.0,0.0,0.0,0.0,0.0,0.0,0.0,0.0,0.0,0.0,0.0,0.0,0.0,0.0,0.0,0.0,0.0,0.0,0.0,0.0,0.0,0.0,0.0,0.0,0.0,3.0182,3.2917,3.5729,3.8616,4.0087,4.0087,3.8041,3.5943,3.3812,0.0,0.0,0.0,0.0,0.0,0.0,0.0,0.0,0.0,0.0,0.0,0.0,0.0,0.0,0.0,0.0,0.0,0.0,0.0,0.0,0.0,0.0,0.0,0.0,0.0,0.0,0.0,0.0,0.0,0.0,0.0,0.0,0.0,0.0,0.0,0.0,0.0,0.0,2.0555,2.1221,0.0,0.0,0.0,0.0,0.0,0.0,0.0,0.0,2.2547,0.0,0.0,0.0,0.0,0.0,0.0,0.0,0.0,0.0,0.0,0.0,0.0,0.0,0.0,0.0,0.0,0.0,0.0,0.0,0.0,0.0,0.0,0.0,0.0,0.0,0.0,0.0,0.0,0.0,0.0,0.0,0.0,0.0,0.0,0.0,0.0,0.0,0.0,0.0,0.0,0.0,0.0,0.0,0.0,0.0,0.0,0.0,0.0,0.0,0.0,0.0,0.0,0.0,0.0,0.0,0.0,2.8297,3.0412,3.3134,3.6535,3.887,4.0087,4.0037,3.8548,3.6941,3.5233,0.0,0.0,0.0,0.0,0.0,0.0,0.0,0.0,0.0,0.0,0.0,0.0,0.0,0.0,0.0,0.0,0.0,0.0,0.0,0.0,0.0,0.0,0.0,0.0,0.0,0.0,0.0,0.0,0.0,0.0,0.0,0.0,0.0,0.0,0.0,0.0,0.0,0.0,0.0,2.3465,2.4986,0.0,0.0,0.0,0.0,0.0,0.0,0.0,0.0,2.372,0.0,0.0,0.0,0.0,0.0,0.0,0.0,0.0,0.0,0.0,0.0,0.0,0.0,0.0,0.0,0.0,0.0,0.0,0.0,0.0,0.0,0.0,0.0,0.0,0.0,0.0,0.0,0.0,0.0,0.0,0.0,0.0,0.0,0.0,0.0,0.0,0.0,0.0,0.0,0.0,0.0,0.0,0.0,0.0,0.0,0.0,0.0,0.0,0.0,0.0,0.0,0.0,0.0,0.0,0.0,2.8952,3.0658,3.3384,3.7263,3.914,4.0087,4.0037,3.7905,3.6552,0.0,0.0,0.0,0.0,0.0,0.0,0.0,0.0,0.0,0.0,0.0,0.0,0.0,0.0,0.0,0.0,0.0,0.0,0.0,0.0,0.0,0.0,0.0,0.0,0.0,0.0,0.0,0.0,0.0,0.0,0.0,0.0,0.0,0.0,0.0,0.0,0.0,0.0,0.0,0.0,2.4123,2.548,2.594,0.0,0.0,0.0,0.0,0.0,0.0,2.5605,2.5915,0.0,0.0,0.0,0.0,0.0,0.0,0.0,0.0,0.0,0.0,0.0,0.0,0.0,0.0,0.0,0.0,0.0,0.0,0.0,0.0,0.0,0.0,0.0,0.0,0.0,0.0,0.0,0.0,0.0,0.0,0.0,0.0,0.0,0.0,0.0,0.0,0.0,0.0,0.0,0.0,0.0,0.0,0.0,0.0,0.0,0.0,0.0,0.0,0.0,0.0,0.0,0.0,0.0,0.0,0.0,2.971,3.126,3.3951,3.7925,3.9394,4.0087,4.0037,3.7618,3.6451,0.0,0.0,0.0,0.0,0.0,0.0,0.0,0.0,0.0,0.0,0.0,0.0,0.0,0.0,0.0,0.0,0.0,0.0,0.0,0.0,0.0,0.0,0.0,0.0,0.0,0.0,0.0,0.0,0.0,0.0,0.0,0.0,0.0,0.0,0.0,0.0,0.0,0.0,0.0,0.0,0.0,2.6126,2.6086,2.7781,0.0,0.0,0.0,0.0,2.7547,2.8172,0.0,0.0,0.0,0.0,0.0,0.0,0.0,0.0,0.0,0.0,0.0,0.0,0.0,0.0,0.0,0.0,0.0,0.0,0.0,0.0,0.0,0.0,0.0,0.0,0.0,0.0,0.0,0.0,0.0,0.0,0.0,0.0,0.0,0.0,0.0,0.0,0.0,0.0,0.0,0.0,0.0,0.0,0.0,0.0,0.0,0.0,0.0,0.0,0.0,0.0,0.0,0.0,0.0,0.0,0.0,0.0,3.059,3.257,3.5248,3.8717,3.9665,4.0087,4.007,3.9123,3.8024,0.0,0.0,0.0,0.0,0.0,0.0,0.0,0.0,0.0,0.0,0.0,0.0,0.0,0.0,0.0,0.0,0.0,0.0,0.0,0.0,0.0,0.0,0.0,0.0,0.0,0.0,0.0,0.0,0.0,0.0,0.0,0.0,0.0,0.0,0.0,0.0,0.0,0.0,0.0,0.0,0.0,2.907,2.891,3.0575,3.1177,0.0,0.0,0.0,2.9112,3.0593,0.0,0.0,0.0,0.0,0.0,0.0,0.0,0.0,0.0,0.0,0.0,0.0,0.0,0.0,0.0,0.0,0.0,0.0,0.0,0.0,0.0,0.0,0.0,0.0,0.0,0.0,0.0,0.0,0.0,0.0,0.0,0.0,0.0,0.0,0.0,0.0,0.0,0.0,0.0,0.0,0.0,0.0,0.0,0.0,0.0,0.0,0.0,0.0,0.0,0.0,0.0,0.0,0.0,0.0,0.0,2.7784,3.1239,3.2965,3.5465,3.887,3.9698,4.0087,4.007,3.7719,3.6738,0.0,0.0,0.0,0.0,0.0,0.0,0.0,0.0,0.0,0.0,0.0,0.0,0.0,0.0,0.0,0.0,0.0,0.0,0.0,0.0,0.0,0.0,0.0,0.0,0.0,0.0,0.0,0.0,0.0,0.0,0.0,0.0,0.0,0.0,0.0,0.0,0.0,0.0,0.0,0.0,0.0,0.0,2.8478,3.1632,0.0,0.0,0.0,3.2039,3.2203,0.0,0.0,0.0,0.0,0.0,0.0,0.0,0.0,0.0,0.0,0.0,0.0,0.0,0.0,0.0,0.0,0.0,0.0,0.0,0.0,0.0,0.0,0.0,0.0,0.0,0.0,0.0,0.0,0.0,0.0,0.0,0.0,0.0,0.0,0.0,0.0,0.0,0.0,0.0,0.0,0.0,0.0,0.0,0.0,0.0,0.0,0.0,0.0,0.0,0.0,0.0,0.0,0.0,0.0,0.0,0.0,0.0,3.2154,3.3578,3.589,3.9157,3.98,4.0087,4.002,3.6806,0.0,0.0,0.0,0.0,0.0,0.0,0.0,0.0,0.0,0.0,0.0,0.0,0.0,0.0,0.0,0.0,0.0,0.0,0.0,0.0,0.0,0.0,0.0,0.0,0.0,0.0,0.0,0.0,0.0,0.0,0.0,0.0,0.0,0.0,0.0,0.0,0.0,0.0,0.0,0.0,0.0,0.0,3.0402,2.8639,3.2526,3.4761,0.0,0.0,3.4448,3.4996,3.4607,3.415,0.0,0.0,0.0,0.0,0.0,0.0,0.0,0.0,0.0,0.0,0.0,0.0,0.0,0.0,0.0,0.0,0.0,0.0,0.0,0.0,0.0,0.0,0.0,0.0,0.0,0.0,0.0,0.0,0.0,0.0,0.0,0.0,0.0,0.0,0.0,0.0,0.0,0.0,0.0,0.0,0.0,0.0,0.0,0.0,0.0,0.0,0.0,0.0,0.0,0.0,0.0,0.0,0.0,0.0,0.0,3.3557,3.4863,3.6945,3.9868,4.0054,4.0087,4.0054,3.7821,3.7009,0.0,0.0,0.0,0.0,0.0,0.0,0.0,0.0,0.0,0.0,0.0,0.0,0.0,0.0,0.0,0.0,0.0,0.0,0.0,0.0,0.0,0.0,0.0,0.0,0.0,0.0,0.0,0.0,0.0,0.0,0.0,0.0,0.0,0.0,0.0,0.0,0.0,0.0,0.0,0.0,0.0,3.1491,3.1213,3.369,3.5267,0.0,0.0,3.6522,3.6612,3.8309,3.8633,3.591,0.0,0.0,0.0,0.0,0.0,0.0,0.0,0.0,0.0,0.0,0.0,0.0,0.0,0.0,0.0,0.0,0.0,0.0,0.0,0.0,0.0,0.0,0.0,0.0,0.0,0.0,0.0,0.0,0.0,0.0,0.0,0.0,0.0,0.0,0.0,0.0,0.0,0.0,0.0,0.0,0.0,0.0,0.0,0.0,0.0,0.0,0.0,0.0,0.0,0.0,0.0,0.0,0.0,3.115,3.4289,3.5182,3.706,3.9918,4.0087,4.0087,4.0087,3.7939,3.6688,0.0,0.0,0.0,0.0,0.0,0.0,0.0,0.0,0.0,0.0,0.0,0.0,0.0,0.0,0.0,0.0,0.0,0.0,0.0,0.0,0.0,0.0,0.0,0.0,0.0,0.0,0.0,0.0,2.3085,2.3943,2.5378,0.0,0.0,0.0,0.0,0.0,0.0,0.0,0.0,0.0,0.0,3.2578,3.1573,3.501,0.0,0.0,3.6851,3.8136,3.8128,3.8075,3.7652,3.6518,3.5436,0.0,0.0,0.0,0.0,0.0,0.0,0.0,0.0,0.0,0.0,0.0,0.0,0.0,0.0,0.0,0.0,0.0,0.0,0.0,0.0,0.0,0.0,0.0,0.0,0.0,0.0,0.0,0.0,0.0,0.0,0.0,0.0,0.0,0.0,0.0,0.0,0.0,0.0,0.0,0.0,0.0,0.0,0.0,0.0,0.0,0.0,0.0,0.0,0.0,0.0,0.0,0.0,3.1858,3.4925,3.5379,3.706,4.002,4.0087,4.0087,4.002,3.8159,3.6755,0.0,0.0,0.0,0.0,0.0,0.0,0.0,0.0,0.0,0.0,0.0,0.0,0.0,0.0,0.0,0.0,0.0,0.0,0.0,0.0,0.0,0.0,0.0,0.0,0.0,0.0,0.0,0.0,2.5246,2.614,2.7153,0.0,0.0,0.0,0.0,0.0,0.0,0.0,0.0,0.0,0.0,3.334,3.2248,3.5619,3.7761,3.6275,3.7511,3.8806,3.926,3.8447,3.7618,3.7195,0.0,0.0,0.0,0.0,0.0,0.0,0.0,0.0,0.0,0.0,0.0,0.0,0.0,0.0,0.0,0.0,0.0,0.0,0.0,0.0,0.0,0.0,0.0,0.0,0.0,0.0,0.0,0.0,0.0,0.0,0.0,0.0,0.0,0.0,0.0,0.0,0.0,0.0,0.0,0.0,0.0,0.0,0.0,0.0,0.0,0.0,0.0,0.0,0.0,0.0,0.0,0.0,0.0,0.0,3.5526,3.5611,3.7077,3.9969,4.0087,4.0087,4.0054,3.865,3.7533,3.6721,0.0,0.0,0.0,0.0,0.0,0.0,0.0,0.0,0.0,0.0,0.0,0.0,0.0,0.0,0.0,0.0,0.0,0.0,0.0,0.0,0.0,0.0,0.0,0.0,0.0,0.0,2.7176,2.8421,2.8886,0.0,0.0,0.0,0.0,0.0,0.0,0.0,0.0,0.0,0.0,3.2659,3.3566,3.3443,3.5294,3.6754,3.6741,3.7367,3.8342,3.9817,3.9986,3.9529,0.0,0.0,0.0,0.0,0.0,0.0,0.0,0.0,0.0,0.0,0.0,0.0,0.0,0.0,0.0,0.0,0.0,0.0,0.0,0.0,0.0,0.0,0.0,0.0,0.0,0.0,0.0,2.9551,2.9198,0.0,0.0,0.0,0.0,0.0,0.0,0.0,0.0,0.0,0.0,0.0,3.1952,3.2679,0.0,0.0,0.0,0.0,0.0,0.0,0.0,0.0,0.0,0.0,0.0,0.0,3.3203,3.6248,3.64,3.7584,3.9986,4.0087,4.0087,4.0087,3.914,3.7804,3.6062,0.0,0.0,0.0,0.0,0.0,0.0,0.0,0.0,0.0,0.0,0.0,0.0,0.0,0.0,0.0,0.0,0.0,0.0,0.0,0.0,0.0,0.0,0.0,0.0,0.0,2.8196,0.0,0.0,0.0,0.0,0.0,0.0,0.0,0.0,0.0,0.0,0.0,3.1764,3.2612,3.3984,3.4725,3.419,3.5979,3.7206,0.0,0.0,0.0,0.0,0.0,0.0,0.0,0.0,0.0,0.0,0.0,0.0,0.0,0.0,3.4205,3.2723,3.2214,3.2027,3.186,0.0,0.0,0.0,0.0,0.0,0.0,0.0,0.0,0.0,0.0,0.0,0.0,0.0,0.0,0.0,0.0,3.0432,0.0,0.0,0.0,0.0,0.0,0.0,0.0,0.0,3.251,3.344,3.4184,3.4658,3.4742,0.0,3.4556,3.3558,0.0,0.0,0.0,0.0,0.0,0.0,0.0,0.0,3.415,3.6282,3.6907,3.8108,3.9969,4.0087,4.0087,4.0054,3.9123,3.7922,3.6468,3.4489,3.3203,0.0,0.0,0.0,0.0,0.0,0.0,0.0,0.0,0.0,0.0,0.0,0.0,0.0,0.0,0.0,0.0,0.0,0.0,0.0,0.0,0.0,0.0,0.0,3.0326,0.0,0.0,0.0,0.0,0.0,0.0,0.0,0.0,0.0,3.1915,3.2389,3.3155,3.4057,3.5233,3.5813,3.5299,0.0,0.0,0.0,0.0,0.0,0.0,0.0,3.8564,3.8821,3.8841,3.888,3.8906,3.8554,3.8294,3.8278,0.0,0.0,3.4945,3.4404,3.4216,3.4046,3.3972,3.4122,3.4635,3.457,3.4317,0.0,0.0,0.0,0.0,0.0,0.0,0.0,0.0,3.3203,3.3863,0.0,3.2949,0.0,0.0,0.0,0.0,0.0,0.0,0.0,0.0,3.4252,3.4996,3.5707,3.578,3.5436,3.4827,3.6231,3.6096,3.4523,3.2459,0.0,0.0,0.0,0.0,0.0,0.0,3.4895,3.5757,3.7195,3.8633,4.002,4.0087,4.0087,4.0037,3.8734,3.799,3.7838,3.6434,3.4996,3.3558,3.4593,0.0,0.0,0.0,0.0,0.0,0.0,0.0,0.0,0.0,0.0,0.0,0.0,0.0,0.0,0.0,0.0,0.0,0.0,0.0,0.0,3.1616,0.0,0.0,0.0,0.0,0.0,0.0,0.0,0.0,0.0,0.0,3.297,3.3232,3.4083,3.5554,0.0,0.0,0.0,0.0,3.7591,3.6926,3.7241,3.7873,3.8654,3.9317,3.9447,3.8778,0.0,0.0,3.8881,3.9055,3.9125,3.9123,3.914,3.865,3.7263,3.7415,3.7567,3.6958,3.6789,3.684,3.684,3.6443,3.5849,3.9089,0.0,0.0,0.0,0.0,3.5943,3.569,3.5504,3.5707,3.5622,3.5233,3.4286,0.0,0.0,0.0,0.0,0.0,0.0,3.4066,3.5064,3.6332,3.7313,3.8058,3.9106,3.9478,3.9309,3.9208,3.8396,3.6924,3.5757,3.4996,3.4624,0.0,0.0,0.0,0.0,3.5402,3.7178,3.8193,3.914,4.007,4.0087,4.0087,4.007,3.9665,3.8971,3.7956,3.7483,3.6552,3.5081,3.5153,0.0,0.0,0.0,0.0,0.0,0.0,0.0,0.0,0.0,0.0,0.0,0.0,0.0,0.0,0.0,0.0,0.0,0.0,0.0,3.394,3.3946,3.4286,0.0,0.0,0.0,0.0,0.0,0.0,0.0,0.0,0.0,3.6357,3.651,3.6958,0.0,0.0,3.7748,3.8239,3.8002,3.772,3.7382,0.0,0.0,0.0,3.8793,3.9046,3.9402,3.9907,4.0469,4.1123,4.1269,4.1266,4.1336,4.1339,4.1187,4.0764,3.9546,3.87,3.8396,3.8362,3.8548,3.9005,3.9343,3.9514,4.3098,4.0443,3.9089,3.8464,3.8345,3.8481,3.8193,3.7702,3.8278,3.8278,3.7736,3.6434,3.5994,3.6197,3.4878,0.0,0.0,0.0,3.6248,3.7009,3.8514,3.9597,4.0341,4.1204,4.1644,4.161,4.1187,4.0527,3.9631,3.8903,3.8447,3.8159,0.0,0.0,3.6045,3.6214,3.6958,3.8311,3.9343,4.0087,4.051,4.024,4.0087,4.0087,4.0087,3.9648,3.8802,3.8497,3.7787,3.6569,3.6268,3.5654,0.0,0.0,0.0,0.0,0.0,0.0,0.0,0.0,0.0,0.0,0.0,3.1106,0.0,0.0,0.0,0.0,3.3136,3.4134,3.5926,3.5385,0.0,0.0,0.0,0.0,0.0,0.0,0.0,3.6574,3.7181,3.7853,3.828,3.8599,3.8836,3.8988,3.8599,3.8705,3.9671,0.0,3.8665,3.8541,3.8433,3.8469,3.8504,3.8742,3.9112,3.9548,4.0318,4.0975,4.1483,4.1906,4.2187,4.2261,4.2492,4.2743,4.2743,4.1863,4.0984,4.0443,4.0307,4.046,4.0882,4.1322,4.1656,4.6312,4.484,4.2794,4.0967,3.9597,4.0899,4.0696,3.9563,4.0882,4.1441,4.1221,3.9174,3.8565,3.8937,3.6907,0.0,0.0,3.7533,3.8565,3.9326,4.0713,4.1762,4.2472,4.254,4.2591,4.2658,4.2658,4.2608,4.2523,4.1897,4.1863,4.2354,3.9022,3.7246,3.7212,3.8447,3.9123,3.9191,4.0578,4.1288,4.1288,4.0561,4.0172,4.0172,4.0104,4.0087,4.0054,3.9428,3.8734,3.8007,3.77,3.6655,3.4822,0.0,0.0,0.0,0.0,0.0,0.0,0.0,0.0,0.0,0.0,0.0,0.0,0.0,0.0,0.0,3.3626,0.0,3.6755,3.6265,0.0,0.0,0.0,3.7973,3.7922,3.8007,3.8058,3.8007,0.0,0.0,0.0,0.0,3.9851,3.9242,3.9174,3.9715,4.117,4.0742,4.0188,3.9991,3.9881,3.9483,3.8717,3.9002,3.9361,3.9418,4.006,4.0591,4.0748,4.1422,4.2021,4.2167,4.2839,4.3394,4.3394,4.3888,4.413,4.2658,4.2371,4.2354,4.232,4.2354,4.2422,4.961,4.8731,4.8206,4.6143,4.3284,4.3639,4.3572,4.3284,4.3623,4.3436,4.2811,4.1728,4.073,3.9783,3.9259,3.9326,3.9901,4.024,4.0815,4.1542,4.2472,4.3301,4.4045,4.4621,4.5196,4.5686,4.572,4.5432,4.4908,4.4705,4.4434,4.3978,4.254,4.1288,4.0189,3.9969,4.0121,4.0679,4.1559,4.2049,4.2016,4.1322,4.0916,4.0933,4.0375,4.0087,4.007,3.9918,3.9478,3.8768,3.8167,3.7212,3.5967,3.6345,0.0,0.0,0.0,0.0,0.0,0.0,0.0,0.0,0.0,3.366,3.4184,0.0,3.5081,0.0,3.5639,3.6654,3.8294,3.7804,0.0,0.0,3.8734,3.8514,3.7973,3.8886,3.936,3.8802,3.936,3.9817,3.9817,3.9969,4.0223,4.0612,4.0679,4.1221,4.2642,4.2281,4.151,4.0804,4.061,4.0266,3.939,3.929,3.9424,3.9424,3.961,3.9935,4.0622,4.0888,4.129,4.1932,4.2769,4.328,4.3264,4.4037,4.4451,4.4062,4.3572,4.3149,4.3166,4.3149,4.3318,5.1268,5.0608,5.0591,4.9407,4.7479,4.6819,4.6177,4.5602,4.5923,4.5635,4.4874,4.413,4.3166,4.21,4.2083,4.2303,4.2726,4.3064,4.3436,4.3842,4.457,4.5145,4.5585,4.5991,4.6397,4.6786,4.6786,4.6583,4.621,4.6194,4.5974,4.5568,4.5128,4.4519,4.3656,4.1965,4.1779,4.32,4.3284,4.3132,4.2777,4.1745,4.1356,4.1644,4.0646,4.0087,4.0087,3.9766,3.9411,3.9005,3.8294,3.781,3.7524,3.725,3.7266,0.0,0.0,0.0,0.0,0.0,0.0,0.0,0.0,0.0,0.0,0.0,3.6417,0.0,0.0,0.0,3.9326,3.8819,3.8684,3.9394,3.9478,3.9326,3.8903,3.958,3.9918,3.9529,3.9834,4.0087,4.0087,4.0375,4.0849,4.1593,4.1982,4.2472,4.3183,4.3047,4.2445,4.1544,4.1358,4.0905,3.9636,3.9424,3.9424,3.9424,3.9424,3.9538,4.006,4.0416,4.0878,4.1346,4.2109,4.2724,4.2785,4.3426,4.4006,4.4013,4.399,4.3978,4.3944,4.3944,4.4024,5.2097,5.1505,5.1505,5.1454,5.1251,4.9965,4.8646,4.7411,4.8054,4.7919,4.7175,4.6447,4.572,4.501,4.4908,4.4857,4.4908,4.5534,4.5838,4.5889,4.6599,4.6938,4.6938,4.7039,4.7056,4.7073,4.7158,4.7208,4.7225,4.731,4.7344,4.7344,4.7158,4.7124,4.709,4.4316,4.3859,4.5788,4.5196,4.4536,4.3842,4.2388,4.1897,4.2337,4.1001,4.0138,3.9935,3.9411,3.9089,3.8971,3.8396,3.8345,3.892,3.8197,3.8285,0.0,3.916,0.0,0.0,0.0,0.0,0.0,0.0,0.0,0.0,3.7009,3.7635,3.9022,3.8565,3.87,3.9952,3.9512,3.9377,4.0003,4.0087,4.0087,4.0087,4.0087,4.0087,4.0087,4.0087,4.0087,4.0104,4.073,4.1457,4.2151,4.2861,4.3369,4.3572,4.3589,4.3163,4.2188,4.1804,4.0847,3.9737,3.9424,3.9424,3.9424,3.9424,3.9424,3.9424,3.999,4.05,4.0622,4.1213,4.1804,4.1853,4.2645,4.3246,4.3169,4.3764,4.4316,4.4502,4.4502,4.4327,5.3196,5.3078,5.3061,5.2689,5.208,5.1792,5.1183,5.0388,5.0541,5.0168,4.9424,4.8697,4.797,4.7259,4.665,4.638,4.638,4.6532,4.6599,4.6616,4.7361,4.7699,4.7733,4.8308,4.8578,4.8612,4.9187,4.9475,4.9475,5.0084,5.0371,5.0338,4.9171,4.8883,0.0,0.0,0.0,0.0,4.6447,4.6295,4.6109,4.4705,4.3707,4.32,4.1779,0.0,3.9292,3.9648,3.9614,3.9022,3.8853,0.0,0.0,0.0,0.0,0.0,0.0,0.0,0.0,0.0,0.0,0.0,3.9358,3.8791,3.7818,3.8227,3.8937,3.9766,3.9732,3.9783,4.0104,3.9952,3.9935,4.0054,4.0087,4.0087,4.0087,4.0087,4.0087,4.0087,4.0087,4.0087,4.0155,4.0747,4.1474,4.2252,4.2946,4.3639,4.4248,4.4316,4.3764,4.23,4.0909,3.9864,3.9481,3.9424,3.9424,3.9424,3.9424,3.9424,3.9424,3.9481,3.9681,3.9681,4.0378,4.0946,4.0946,4.2205,4.3031,4.2395,4.297,4.3756,4.4457,4.457,4.457,5.438,0.0,5.4042,5.3602,0.0,5.2909,5.2689,5.2283,5.1539,5.0997,5.0625,5.0253,4.9898,4.9526,4.9154,4.8765,4.8409,4.8409,4.824,4.7902,4.8291,4.8646,4.9001,4.9357,4.9729,5.0101,5.0473,5.0659,5.0659,5.1031,5.1234,5.12,5.0473,5.0101,5.0033,4.8629,4.7513,4.6802,4.7158,4.7005,4.6261,4.5162,4.4198,4.342,0.0,0.0,0.0,0.0,0.0,0.0,0.0,0.0,0.0,0.0,0.0,4.0683,4.1082,4.1693,4.258,4.2422,4.1837,4.0858,4.0274,3.9498,3.8546,3.9106,3.9681,4.0037,4.0087,4.0087,4.0087,4.0087,4.0087,4.0087,4.0087,4.0087,4.0104,4.0409,4.0476,4.0189,4.0409,4.0629,4.0646,4.1271,4.2016,4.276,4.3521,4.3985,4.3963,4.3948,4.335,4.1658,4.0324,3.9424,3.9424,3.9424,3.9424,3.9424,3.9424,3.9424,3.9424,3.9424,3.9424,3.9424,3.9793,4.006,4.0185,4.1478,4.252,4.2189,4.2724,4.3366,4.3873,4.3931,4.3798,5.5361,5.4786,5.4651,5.4245,5.3687,5.3568,5.3518,5.3433,0.0,0.0,0.0,5.1471,5.1403,5.1403,5.1268,5.0879,5.0304,5.0287,4.9949,4.939,4.9407,4.9712,5.027,5.0287,5.0608,5.12,5.1352,5.1403,5.142,5.1539,5.1623,5.1606,5.1488,5.1031,5.0287,4.956,4.8595,4.7462,4.7868,4.7513,4.6329,4.5551,4.4807,4.4045,4.2574,4.139,4.0527,3.9783,3.9326,3.9191,3.9174,3.9462,4.002,3.9512,3.9688,4.077,4.0788,4.1245,4.2426,4.2062,4.175,4.1664,4.0689,3.9817,3.9225,3.9732,4.0087,4.0087,4.0087,4.0087,4.0087,4.0087,4.0087,4.0087,4.0189,4.029,4.0324,4.0933,4.117,4.0646,4.1035,4.1407,4.1424,4.2049,4.2709,4.3335,4.4028,4.4179,4.329,4.2909,4.2316,4.1013,3.9853,3.9215,3.923,3.92,3.9245,3.917,3.932,3.9424,3.9424,3.9424,3.9424,3.9424,3.9424,3.9424,3.9553,4.0706,4.1739,4.1804,4.2458,4.3047,4.2909,4.2986,4.2847,5.5666,5.5513,5.4854,5.4532,5.4397,5.3771,5.3518,5.3484,5.3264,5.3179,5.3145,5.2452,5.2147,5.2131,5.1505,5.1166,5.1048,5.1048,5.1014,0.0,5.0913,5.0947,5.1048,5.1065,5.1116,5.1251,5.1843,5.2147,5.2215,5.2841,5.3179,5.3078,5.2503,5.1775,5.1065,5.0304,4.983,4.9627,4.912,4.8748,4.8528,4.7817,4.709,4.6312,4.4857,4.3436,4.2033,4.1288,4.0595,4.0003,3.9935,3.9969,4.0054,4.0003,4.0217,4.0856,4.0874,4.1191,4.1877,4.1835,4.1578,4.1041,4.0449,4.0037,3.9952,4.002,4.0087,4.0087,4.0087,4.0087,4.0087,4.0087,4.0121,4.0155,4.0663,4.1035,4.1068,4.1677,4.2066,4.1897,4.2066,4.2151,4.2202,4.276,4.325,4.3504,4.3929,4.3989,4.2583,4.1543,4.1013,4.0529,3.9473,3.8642,3.8676,3.8542,3.8601,3.8527,3.9035,3.9334,3.9334,3.9394,3.9409,3.9424,3.9424,3.9424,3.9409,4.0185,4.0894,4.1013,4.1674,4.1997,4.1412,4.1723,4.2062,5.6664,5.6275,5.5936,5.5564,5.5141,5.4397,5.3856,5.3518,5.3518,5.3518,5.3484,5.3112,5.2959,5.2926,5.2604,5.2215,5.1809,5.1809,5.1589,5.1234,5.1234,5.1437,5.1792,5.1792,5.2029,5.2469,5.279,5.2959,5.2976,5.3331,5.3518,5.345,5.2689,5.2131,5.1775,5.1065,5.071,5.0676,4.9593,4.8815,4.8426,4.8088,4.7378,4.6244,4.5517,4.4688,4.3572,4.2811,4.2252,4.1914,4.1508,4.1271,4.1271,4.1271,4.1223,4.1098,4.1405,4.1482,4.1383,4.1331,4.1233,4.1062,4.0815,4.0865,4.1255,4.0544,4.0087,4.0087,4.0087,4.0087,4.0104,4.0443,4.0679,4.0679,4.1356,4.1779,4.188,4.2455,4.2726,4.2422,4.2658,4.2895,4.2895,4.3217,4.3623,4.3905,4.3764,4.2892,4.2062,4.0826,3.999,3.9889,3.941,3.9047,3.8901,3.8601,3.8422,3.8377,3.8646,3.8841,3.8901,3.911,3.9394,3.9424,3.9424,3.9424,3.9424,4.0115,4.0554,4.0758,4.0946,4.1013,4.0811,4.0706,4.0909,5.7662,5.7289,5.6934,5.6376,5.5649,5.4921,5.4279,5.3754,5.3568,5.3518,5.3518,5.3518,5.3518,5.3518,5.3518,5.3162,5.2638,5.257,5.2283,5.1775,5.1742,5.2029,5.2536,5.257,5.2909,5.345,5.3518,5.3518,5.3518,5.3518,5.3518,5.345,5.2875,5.257,5.2553,5.1843,5.1454,5.1386,5.0168,4.9137,4.8443,4.8409,4.7784,4.6566,4.6295,4.594,4.5331,4.4434,4.3927,4.3893,4.3031,4.2557,4.254,4.2371,4.2033,4.156,4.1714,4.165,4.1099,4.115,4.1283,4.1442,4.1441,4.1677,4.21,4.1255,4.0493,4.0375,4.0544,4.0561,4.0493,4.1001,4.1457,4.1491,4.21,4.2523,4.2608,4.3217,4.3487,4.2963,4.3318,4.3673,4.3673,4.369,4.3927,4.4215,4.3092,4.2045,4.1804,4.0516,3.9481,3.9394,3.9305,3.9125,3.9155,3.8766,3.8422,3.8392,3.8571,3.8631,3.8646,3.899,3.9245,3.9245,3.932,3.9409,3.9481,3.9864,4.0363,4.0622,4.0758,4.0758,4.069,4.0045,3.992,5.8237,5.8575,5.7357,5.6393,5.5649,5.4921,5.4549,5.4363,5.3788,5.3518,5.3518,5.3518,5.3518,5.3518,5.3518,5.345,5.3348,5.3399,5.3331,5.3247,5.3298,5.3331,5.3348,5.3382,5.3416,5.3518,5.3518,5.3518,5.3518,5.3518,5.3518,5.3501,5.3416,5.3365,5.3281,5.2587,5.2215,5.2181,5.142,5.0642,4.9949,4.9881,4.9526,4.8731,4.8054,4.7699,4.7496,4.6244,4.55,4.5399,4.4096,4.3335,4.3267,4.2692,4.2269,4.2185,4.1628,4.1256,4.1239,4.1799,4.2172,4.2168,4.2185,4.2252,4.2354,4.2202,4.1813,4.139,4.1711,4.1694,4.1255,4.1762,4.2185,4.2236,4.2861,4.3301,4.3403,4.3995,4.4434,4.4401,4.4299,4.4451,4.4367,4.4367,4.4434,4.4406,4.3031,4.1917,4.1723,4.0516,3.9424,3.932,3.8945,3.8601,3.8586,3.8467,3.8347,3.8407,3.8886,3.8856,3.8631,3.8841,3.929,3.902,3.908,3.9409,3.9424,3.9553,3.9793,4.0363,4.0569,4.0622,4.0622,3.999,3.9935,5.8457,5.8304,5.7695,5.6765,5.5733,5.5378,5.4752,5.3923,5.3636,5.3518,5.3518,5.3518,5.3518,5.3518,5.3518,5.3518,5.3518,5.3518,5.3518,5.3518,5.3518,5.3518,5.3518,5.3518,5.3518,5.3518,5.3518,5.3518,5.3518,5.3518,5.3518,5.3518,5.3518,5.3518,5.3484,5.3179,5.301,5.301,5.2723,5.2198,5.1437,5.098,5.0405,4.9712,4.9357,4.8984,4.8528,4.7547,4.7005,4.6921,4.5585,4.4773,4.4756,4.4062,4.342,4.2963,4.2269,4.1847,4.1863,4.2134,4.2472,4.2912,4.2963,4.3132,4.3606,4.3656,4.3318,4.2658,4.2388,4.2134,4.1948,4.2506,4.2963,4.3064,4.3639,4.4096,4.4113,4.4384,4.457,4.457,4.457,4.457,4.457,4.457,4.4367,4.3873,4.2724,4.1933,4.128,4.0185,3.9481,3.9394,3.9155,3.9035,3.896,3.8616,3.8302,3.8063,3.8362,3.8556,3.8182,3.8766,3.929,3.899,3.923,3.9409,3.9424,3.9424,3.9538,3.999,3.9935,3.9935,3.992,3.9666,3.9595,5.8524,5.8186,5.7983,5.7289,5.6292,5.5869,5.5226,5.4397,5.3991,5.3907,5.4093,5.3907,5.3805,5.3771,5.3602,5.3518,5.3518,5.3518,5.3518,5.3518,5.3518,5.3518,5.3534,5.3721,5.3704,5.3585,5.3957,5.4025,5.3805,5.3568,5.3518,5.3518,5.3518,5.3518,5.3518,5.3518,5.3518,5.3501,5.3518,5.3213,5.2638,5.2131,5.1386,5.0507,5.0405,5.0135,4.9627,4.89,4.8511,4.8477,4.7107,4.6312,4.6278,4.5585,4.4756,4.3842,4.3234,4.2811,4.2642,4.2811,4.3149,4.3673,4.3741,4.3978,4.4434,4.457,4.4333,4.3792,4.3234,4.2895,4.2675,4.3284,4.3707,4.3775,4.4282,4.457,4.4553,4.457,4.457,4.457,4.457,4.457,4.457,4.457,4.4327,4.3426,4.2583,4.1674,4.0826,3.999,3.9424,3.9424,3.9409,3.9409,3.9379,3.9065,3.8437,3.8272,3.8542,3.8556,3.7898,3.8766,3.92,3.8901,3.923,3.9409,3.9424,3.9424,3.9409,3.9424,3.9424,3.9496,3.9553,3.9424,3.9514,5.8338,5.8812,5.8186,5.7797,5.7662,5.6325,5.6089,5.6258,5.5124,5.4921,5.5361,5.4837,5.4549,5.4482,5.3873,5.3534,5.3534,5.3518,5.3534,5.3568,5.3534,5.3518,5.3568,5.4194,5.4194,5.3839,5.4871,5.5108,5.4482,5.3873,5.3518,5.3518,5.3518,5.3518,5.3518,5.3518,5.3518,5.3518,5.3518,5.3467,5.3416,5.3382,5.2604,5.1386,5.1166,5.1133,5.098,5.0371,4.9965,4.9965,4.8545,4.7784,4.7716,4.7039,4.5974,4.4756,4.4502,4.4164,4.3656,4.4062,4.4485,4.4536,4.4485,4.4536,4.4637,4.4621,4.4519,4.4485,4.4333,4.4045,4.3555,4.3961,4.4401,4.4434,4.4502,4.457,4.457,4.457,4.457,4.457,4.457,4.457,4.457,4.457,4.4064,4.3306,4.252,4.1609,4.069,3.9864,3.9481,3.9424,3.9424,3.9424,3.9409,3.9275,3.926,3.902,3.8781,3.905,3.8916,3.8811,3.8811,3.8871,3.9185,3.9364,3.9409,3.9424,3.9424,3.9424,3.9424,3.9424,3.9424,3.9424,3.9514,5.8896,5.8287,5.8,5.7628,5.7137,5.663,5.6308,5.6055,5.5564,5.5446,5.5632,5.5429,5.531,5.5277,5.4532,5.4194,5.416,5.3737,5.3754,5.4093,5.3721,5.3754,5.4211,5.4482,5.4769,5.5006,5.5446,5.5327,5.4651,5.4313,5.3957,5.3551,5.3518,5.3518,5.3518,5.3518,5.3518,5.3518,5.3518,5.3518,5.3518,5.3518,5.3213,5.2689,5.2181,5.1691,5.1234,5.0947,5.0591,5.0101,4.9137,4.8409,4.7919,4.7208,4.6583,4.6075,4.5991,4.5872,4.5602,4.5399,4.5517,4.5872,4.5094,4.4807,4.5111,4.4874,4.457,4.457,4.457,4.4401,4.4316,4.4434,4.457,4.457,4.457,4.457,4.457,4.457,4.457,4.457,4.457,4.457,4.4497,4.4121,4.3426,4.2583,4.1739,4.0894,4.013,3.9538,3.9424,3.9424,3.9424,3.9424,3.9424,3.9424,3.9349,3.9065,3.8901,3.8901,3.8811,3.905,3.9125,3.9125,3.9334,3.9364,3.9424,3.9424,3.9424,3.9424,3.9424,3.9424,3.9424,3.9424,3.9529,5.8812,5.7966,5.7881,5.7611,5.7154,5.69,5.6664,5.6376,5.6173,5.6072,5.6038,5.5835,5.5716,5.5598,5.4921,5.4905,5.5158,5.4346,5.4126,5.4549,5.4329,5.4482,5.4921,5.5192,5.5446,5.5666,5.5716,5.553,5.526,5.482,5.4329,5.389,5.3636,5.3518,5.3518,5.3518,5.3518,5.3518,5.3518,5.3518,5.3518,5.3518,5.3518,5.3433,5.2976,5.2469,5.1961,5.1708,5.1336,5.076,4.9898,4.9018,4.8308,4.7564,4.7158,4.7158,4.6904,4.6786,4.6735,4.6329,4.6261,4.6684,4.5703,4.5196,4.5602,4.501,4.4637,4.4604,4.484,4.4891,4.4688,4.479,4.484,4.4637,4.457,4.457,4.457,4.457,4.457,4.457,4.457,4.457,4.4497,4.3814,4.3031,4.2125,4.128,4.0378,3.961,3.9424,3.9424,3.9424,3.9424,3.9424,3.9424,3.9424,3.9424,3.9185,3.9065,3.8975,3.896,3.9245,3.9379,3.9409,3.9424,3.9424,3.9424,3.9424,3.9424,3.9424,3.9424,3.9424,3.9424,3.9424,3.9529,5.7932,5.7881,5.7881,5.7865,5.7712,5.7171,5.7239,5.756,5.707,5.6816,5.6714,5.6139,5.597,5.57,5.5209,5.5446,5.619,5.5277,5.4752,5.4854,5.531,5.5581,5.5767,5.6292,5.6342,5.5953,5.5818,5.6139,5.6528,5.5429,5.4752,5.4499,5.4008,5.3754,5.3551,5.3619,5.3568,5.3518,5.3518,5.3518,5.3518,5.3518,5.3518,5.3518,5.3433,5.3382,5.3382,5.2689,5.2249,5.2029,5.0896,4.9796,4.9052,4.8308,4.7919,4.7834,4.7276,4.6904,4.6904,4.6887,4.6819,4.6921,4.6177,4.5771,4.5872,4.528,4.4807,4.4925,4.5314,4.5466,4.501,4.5246,4.5314,4.4722,4.457,4.457,4.457,4.457,4.457,4.457,4.457,4.4587,4.4384,4.368,4.2785,4.1917,4.108,4.0309,3.9538,3.9424,3.9424,3.9424,3.9424,3.9424,3.9424,3.9424,3.9424,3.9394,3.9349,3.929,3.9245,3.9409,3.9394,3.9424,3.9424,3.9424,3.9424,3.9424,3.9424,3.9424,3.9424,3.9424,3.9424,3.9439,3.9529,5.7881,5.7881,5.7881,5.7881,5.7865,5.7645,5.7712,5.7865,5.7628,5.756,5.7492,5.7306,5.7205,5.7036,5.6461,5.6359,5.6748,5.6292,5.6122,5.6072,5.5852,5.6038,5.6478,5.6731,5.6968,5.7171,5.7205,5.7053,5.6782,5.6325,5.5902,5.5395,5.5141,5.4752,5.4279,5.4245,5.4059,5.3568,5.3518,5.3518,5.3518,5.3518,5.3518,5.3518,5.3518,5.3518,5.3501,5.3264,5.2858,5.2334,5.1877,5.1065,4.9898,4.9069,4.868,4.8646,4.8477,4.8308,4.824,4.7851,4.7784,4.7953,4.7175,4.6819,4.7073,4.6498,4.6058,4.6075,4.6329,4.6312,4.6126,4.5805,4.5466,4.4671,4.457,4.457,4.457,4.457,4.457,4.457,4.457,4.4384,4.3756,4.297,4.2189,4.1264,4.0447,3.9666,3.9481,3.9424,3.9424,3.9424,3.9424,3.9424,3.9424,3.9424,3.9424,3.9424,3.9424,3.9424,3.9424,3.9424,3.9424,3.9424,3.9424,3.9424,3.9424,3.9424,3.9424,3.9424,3.9424,3.9424,3.9424,3.9469,3.9529,5.8135,5.7881,5.7881,5.7881,5.7881,5.7881,5.7881,5.7881,5.7881,5.7729,5.7526,5.7459,5.7492,5.7391,5.6985,5.6968,5.7188,5.7205,5.7205,5.7171,5.6782,5.6934,5.7611,5.7932,5.822,5.8541,5.8423,5.8084,5.7611,5.7053,5.6562,5.6173,5.5869,5.5497,5.504,5.4989,5.4735,5.4363,5.4346,5.4329,5.4262,5.4059,5.3923,5.3873,5.3653,5.3518,5.3518,5.3518,5.3281,5.2723,5.2249,5.1319,5.0168,4.9627,4.9289,4.9103,4.9238,4.9289,4.9018,4.8545,4.8494,4.8697,4.7902,4.7411,4.7699,4.7225,4.6802,4.6786,4.7056,4.709,4.6786,4.6735,4.6177,4.55,4.4891,4.4621,4.457,4.457,4.457,4.457,4.457,4.4196,4.3426,4.252,4.1658,4.0826,3.992,3.9424,3.9424,3.9424,3.9424,3.9424,3.9424,3.9424,3.9424,3.9424,3.9424,3.9424,3.9424,3.9424,3.9424,3.9424,3.9424,3.9424,3.9424,3.9424,3.9424,3.9424,3.9424,3.9424,3.9424,3.9424,3.9424,3.9424,3.9544,5.8575,5.7915,5.7881,5.7881,5.7881,5.7881,5.7881,5.7881,5.7881,5.756,5.707,5.707,5.7002,5.6934,5.6985,5.7273,5.7763,5.7797,5.7763,5.7814,5.7831,5.8203,5.8761,5.9387,5.9725,5.9793,5.9252,5.893,5.8693,5.7577,5.6867,5.6816,5.6325,5.5835,5.5801,5.5767,5.57,5.553,5.5581,5.5564,5.5547,5.5006,5.4583,5.4515,5.3974,5.3619,5.3518,5.3501,5.3501,5.3298,5.2147,5.1166,5.0422,5.0185,4.9864,4.9373,4.9779,4.9644,4.9255,4.9103,4.9018,4.8934,4.8528,4.7986,4.8003,4.7581,4.7192,4.7208,4.7648,4.7733,4.7327,4.7378,4.7361,4.6735,4.5635,4.4993,4.4756,4.4756,4.4773,4.4722,4.4637,4.4253,4.3426,4.252,4.1674,4.0826,3.999,3.9481,3.9424,3.9424,3.9424,3.9424,3.9424,3.9424,3.9424,3.9424,3.9424,3.9424,3.9424,3.9424,3.9424,3.9424,3.9424,3.9424,3.9424,3.9424,3.9424,3.9424,3.9424,3.9424,3.9424,3.9424,3.9424,3.9439,3.9813,5.8575,5.7898,5.7881,5.7881,5.7881,5.7881,5.7881,5.7881,5.7881,5.7763,5.7611,5.7594,5.756,5.7594,5.7577,5.7729,5.7848,5.7881,5.7881,5.7983,5.849,5.8778,5.9116,5.9776,6.0148,6.0063,5.9539,5.9015,5.8947,5.8135,5.7662,5.7611,5.7442,5.7036,5.6613,5.6562,5.6224,5.5784,5.5733,5.5767,5.575,5.5581,5.5141,5.46,5.4397,5.4025,5.3585,5.3518,5.3518,5.345,5.2587,5.1961,5.1623,5.1183,5.0777,5.0574,5.0253,5.005,4.9881,4.9796,4.9576,4.912,4.934,4.9289,4.8765,4.8545,4.8409,4.846,4.8646,4.8629,4.8392,4.8122,4.7631,4.6921,4.6447,4.6177,4.6041,4.572,4.5415,4.5382,4.4942,4.4306,4.3438,4.265,4.1769,4.0836,4.0066,3.9439,3.9439,3.9424,3.9424,3.9424,3.9424,3.9424,3.9424,3.9424,3.9424,3.9424,3.9424,3.9424,3.9424,3.9424,3.9424,3.9424,3.9424,3.9424,3.9424,3.9424,3.9424,3.9484,3.9439,3.9439,3.9439,3.9484,4.0113,5.9353,5.8372,5.8372,5.8186,5.7898,5.7881,5.7881,5.7881,5.7881,5.7881,5.7881,5.7881,5.7881,5.7881,5.7865,5.7881,5.7881,5.7881,5.7881,5.8017,5.8643,5.9336,5.9996,6.0706,6.1061,6.0977,6.03,6.0047,5.9877,5.9201,5.8863,5.8846,5.8812,5.8423,5.7814,5.7712,5.7357,5.6782,5.663,5.663,5.663,5.6325,5.6004,5.5412,5.4989,5.4245,5.3619,5.3518,5.3518,5.3348,5.2756,5.2317,5.2283,5.1928,5.1539,5.1268,5.1048,5.0913,5.0608,5.0557,5.0371,5.0101,5.0388,5.0135,4.9661,4.9458,4.9424,4.9018,4.9018,4.9018,4.8951,4.8612,4.8206,4.7868,4.7716,4.7462,4.6904,4.6397,4.621,4.6058,4.5747,4.4984,4.3869,4.3202,4.2106,4.097,4.0221,3.9766,3.9499,3.9469,3.9469,3.9514,3.9499,3.9499,3.9469,3.9454,3.9514,3.9514,3.9559,3.9544,3.9619,3.9589,3.9484,3.9484,3.9454,3.9484,3.9574,3.9634,3.9634,3.9649,3.9529,3.9604,3.9723,3.9843,4.0457,6.0452,5.9116,5.9032,5.8626,5.8068,5.7932,5.7881,5.7881,5.7881,5.7881,5.7881,5.7881,5.7881,5.7881,5.7881,5.7881,5.7881,5.7881,5.7983,5.8287,5.893,5.9827,6.1028,6.1535,6.1958,6.2009,6.1603,6.1231,6.0858,6.0334,6.0047,5.9877,5.9928,5.9708,5.9099,5.9049,5.871,5.8051,5.7881,5.7763,5.7577,5.7171,5.6782,5.6393,5.5175,5.438,5.3839,5.3602,5.3518,5.3518,5.2807,5.2553,5.2486,5.2435,5.2181,5.1742,5.1911,5.1843,5.1471,5.1319,5.1234,5.1099,5.1166,5.0997,5.0371,5.0084,4.9779,4.9306,4.9069,4.9086,4.9221,4.912,4.9086,4.8951,4.9001,4.8308,4.7411,4.6955,4.6904,4.687,4.6853,4.5901,4.4984,4.4061,4.3295,4.2062,4.1035,4.0096,3.9843,3.9798,3.9753,3.9709,3.9664,3.9589,3.9544,3.9499,3.9574,3.9634,3.9738,3.9798,3.9993,3.9948,3.9694,3.9649,3.9978,4.0068,4.0008,4.0008,4.0038,4.0142,4.0277,4.0292,4.0337,4.0457,4.0876,6.074,5.9827,5.9252,5.893,5.8693,5.8152,5.7881,5.7881,5.7881,5.7881,5.7881,5.7881,5.7881,5.7881,5.7881,5.7881,5.7881,5.7915,5.8169,5.8863,5.9522,6.0351,6.118,6.1569,6.1873,6.2076,6.1653,6.1349,6.1146,6.0689,6.0114,6.0182,6.0317,6.003,5.9911,5.9844,5.9505,5.8896,5.8761,5.8423,5.8017,5.7729,5.7323,5.6765,5.5446,5.4651,5.4279,5.3805,5.3518,5.3467,5.3348,5.3162,5.3162,5.3179,5.3044,5.2841,5.2452,5.2249,5.2114,5.2046,5.1826,5.1471,5.1792,5.1758,5.1014,5.0473,5.0135,4.9763,4.939,4.9407,4.9779,4.9847,4.9813,4.9712,4.9357,4.8917,4.8494,4.8003,4.7716,4.7581,4.7208,4.6667,4.6168,4.4886,4.4042,4.3173,4.198,4.0618,4.0262,4.0202,4.0187,4.0187,4.0187,4.0142,3.9843,3.9738,3.9679,3.9828,3.9948,4.0202,4.0397,4.0561,4.0412,4.0502,4.0726,4.0696,4.0546,4.0756,4.0861,4.095,4.1025,4.101,4.1025,4.1115,4.131,6.1349,6.0588,5.9844,5.9336,5.8913,5.822,5.7881,5.7881,5.7881,5.7881,5.7881,5.7881,5.7881,5.7881,5.7881,5.7881,5.7881,5.7898,5.849,5.9268,5.9708,6.0385,6.1518,6.1535,6.167,6.2229,6.2042,6.1823,6.167,6.14,6.1247,6.118,6.1146,6.1028,6.0689,6.0655,6.025,5.9573,5.9167,5.8795,5.8473,5.8034,5.7526,5.6917,5.6021,5.5497,5.5108,5.4397,5.4093,5.394,5.3704,5.3518,5.3518,5.3518,5.3518,5.3399,5.3179,5.2858,5.2858,5.2858,5.2723,5.23,5.2672,5.235,5.1911,5.1319,5.0963,5.0642,5.0338,5.0253,5.0574,5.0625,5.0524,5.0101,4.9763,4.939,4.9035,4.8646,4.8426,4.8359,4.8122,4.7676,4.6949,4.593,4.487,4.4047,4.3339,4.2041,4.092,4.0861,4.0861,4.0861,4.0861,4.0696,4.0277,4.0023,3.9798,3.9993,4.0232,4.0591,4.095,4.113,4.1265,4.1294,4.128,4.1205,4.113,4.1384,4.1609,4.1669,4.1698,4.1683,4.1713,4.1803,4.1893,6.1975,6.1247,6.0436,5.9691,5.8947,5.822,5.7881,5.7881,5.7881,5.7881,5.7881,5.7881,5.7881,5.7881,5.7881,5.7915,5.8068,5.8169,5.8863,5.981,5.9827,6.0605,6.1653,6.1772,6.1823,6.2364,6.233,6.2313,6.233,6.2381,6.2093,6.2296,6.233,6.1924,6.1535,6.1434,6.1078,6.0334,5.986,5.9421,5.9099,5.849,5.7797,5.7154,5.6714,5.6376,5.5835,5.5209,5.4752,5.4735,5.4076,5.3737,5.3636,5.3534,5.3518,5.3501,5.3433,5.3382,5.3348,5.3416,5.3416,5.3518,5.3484,5.3179,5.2638,5.2232,5.186,5.1572,5.1302,5.1302,5.1386,5.1369,5.1082,5.0625,5.0338,4.9796,4.934,4.9103,4.8917,4.8917,4.8714,4.836,4.7972,4.7276,4.606,4.4875,4.4288,4.3488,4.2348,4.1534,4.1534,4.1534,4.1534,4.125,4.0816,4.0636,4.0382,4.0621,4.0816,4.1205,4.1639,4.1953,4.2102,4.1773,4.1683,4.1743,4.1863,4.2073,4.2252,4.2327,4.2357,4.2357,4.2402,4.2491,4.2536,6.1958,6.1247,6.0436,5.9691,5.8947,5.8203,5.7881,5.7881,5.7881,5.7881,5.7881,5.7881,5.7881,5.7881,5.7881,5.822,5.8609,5.8744,5.9252,6.0182,6.0469,6.1264,6.1552,6.2009,6.2212,6.2347,6.2398,6.2398,6.2398,6.2398,6.2398,6.2398,6.2398,6.2245,6.2195,6.2161,6.1789,6.118,6.0808,6.0436,5.9877,5.9116,5.8423,5.7695,5.7222,5.6833,5.6545,5.5953,5.553,5.5463,5.4786,5.4465,5.4211,5.3822,5.3551,5.3518,5.3518,5.3518,5.3518,5.3518,5.3518,5.3518,5.3518,5.3518,5.3162,5.2756,5.2401,5.2266,5.2131,5.2131,5.2131,5.2131,5.2063,5.1657,5.0848,5.0054,4.975,4.9316,4.9007,4.9018,4.8956,4.894,4.8513,4.8096,4.7193,4.6019,4.5057,4.4372,4.3479,4.2698,4.2207,4.2207,4.2207,4.1803,4.1369,4.1265,4.1175,4.1579,4.1833,4.2102,4.2521,4.2925,4.294,4.2476,4.2476,4.2731,4.2821,4.2791,4.2836,4.288,4.294,4.297,4.294,4.291,4.3015,6.1975,6.1231,6.0419,5.9691,5.8947,5.8203,5.7881,5.7881,5.7881,5.7881,5.7881,5.7881,5.7881,5.7881,5.7881,5.8304,5.8863,5.9015,5.9658,6.0588,6.1129,6.1552,6.1789,6.2262,6.2347,6.2398,6.2398,6.2398,6.2398,6.2398,6.2398,6.2398,6.2398,6.2398,6.2398,6.2347,6.2195,6.1839,6.1501,6.1129,6.0622,5.9674,5.8829,5.8389,5.778,5.7408,5.7222,5.6664,5.6292,5.6055,5.5175,5.4718,5.4414,5.4008,5.3534,5.3534,5.3518,5.3518,5.3518,5.3518,5.3518,5.3518,5.3518,5.3518,5.345,5.3162,5.2892,5.2909,5.2926,5.2926,5.2926,5.2892,5.2489,5.1613,5.0844,5.0176,4.9476,4.9025,4.8885,4.8916,4.8877,4.8877,4.894,4.8513,4.8161,4.7159,4.5977,4.5231,4.4502,4.37,4.295,4.2686,4.2626,4.2327,4.1923,4.1803,4.1833,4.2252,4.2521,4.2806,4.303,4.324,4.324,4.297,4.3195,4.3329,4.3284,4.309,4.324,4.3344,4.324,4.318,4.3269,4.3329,4.3344,6.1738,6.0994,6.0199,5.9455,5.8761,5.8152,5.7881,5.7881,5.7881,5.7881,5.7881,5.7881,5.7881,5.7932,5.8152,5.8541,5.9201,5.9387,6.0351,6.1281,6.1569,6.189,6.2229,6.2398,6.2398,6.2398,6.2398,6.2398,6.2398,6.2398,6.2398,6.2398,6.2398,6.2398,6.2398,6.2398,6.2398,6.2212,6.1873,6.1501,6.1011,6.0165,5.9252,5.9015,5.8406,5.8034,5.7763,5.7323,5.7053,5.6681,5.5936,5.5108,5.4921,5.4211,5.3754,5.3704,5.3602,5.3518,5.3518,5.3518,5.3518,5.3518,5.3518,5.3518,5.3501,5.345,5.345,5.3518,5.3467,5.3433,5.3382,5.3467,5.2654,5.1615,5.0938,5.0352,4.9239,4.8685,4.853,4.8562,4.8744,4.8832,4.8849,4.894,4.8513,4.8161,4.6976,4.65,4.5722,4.437,4.3622,4.3217,4.297,4.2761,4.2491,4.2282,4.2387,4.2671,4.2821,4.297,4.315,4.3329,4.3254,4.321,4.3254,4.3344,4.3344,4.3344,4.3344,4.3344,4.3344,4.3344,4.3344,4.3344,4.3344,6.096,6.0182,5.9455,5.871,5.8084,5.7932,5.7881,5.7881,5.7881,5.7881,5.7881,5.7881,5.7881,5.8017,5.8592,5.9252,5.9928,6.0571,6.1231,6.2026,6.2161,6.2212,6.2364,6.2398,6.2398,6.2398,6.2398,6.2398,6.2398,6.2398,6.2448,6.2465,6.2448,6.2431,6.255,6.2448,6.2398,6.2381,6.2279,6.1941,6.14,6.1061,6.0233,5.9438,5.8879,5.8541,5.8084,5.7763,5.7645,5.7577,5.6934,5.6528,5.6325,5.5192,5.4617,5.4279,5.394,5.3518,5.3518,5.3518,5.3518,5.3518,5.3518,5.3518,5.3518,5.3518,5.3518,5.3518,5.3518,5.3518,5.3518,5.3518,5.2872,5.1926,5.0998,5.027,4.9215,4.8288,4.8117,4.8207,4.8298,4.8606,4.8791,4.8928,4.8923,4.8513,4.8096,4.7523,4.6694,4.5285,4.4297,4.3758,4.3352,4.3094,4.3145,4.2965,4.301,4.3202,4.3075,4.312,4.3225,4.3344,4.3344,4.3314,4.3344,4.3344,4.3344,4.3344,4.3344,4.3344,4.3344,4.3344,4.3344,4.3344,4.3359,5.981,5.9455,5.915,5.8575,5.7932,5.7881,5.7881,5.7881,5.7881,5.7881,5.7881,5.7881,5.7881,5.8034,5.8676,5.9404,6.0165,6.096,6.1704,6.2279,6.2398,6.2398,6.2398,6.2398,6.2398,6.2398,6.2398,6.2398,6.2398,6.2448,6.255,6.2922,6.2651,6.2668,6.2837,6.2584,6.2448,6.2398,6.2364,6.2229,6.189,6.1501,6.0977,6.0283,5.9488,5.893,5.8524,5.8034,5.7898,5.7746,5.7188,5.6816,5.6579,5.5818,5.5091,5.4566,5.4329,5.394,5.3585,5.3534,5.3518,5.3518,5.3518,5.3518,5.3518,5.3518,5.3518,5.3518,5.3518,5.3518,5.3518,5.3518,5.2487,5.1556,5.0929,4.9785,4.8948,4.8229,4.7707,4.7805,4.7902,4.816,4.8447,4.8684,4.8791,4.8798,4.8306,4.7737,4.6831,4.5722,4.4871,4.4358,4.3897,4.3476,4.3665,4.3652,4.3654,4.3728,4.3367,4.3319,4.3284,4.3344,4.3374,4.3359,4.3359,4.3359,4.3374,4.3344,4.3344,4.3344,4.3344,4.3344,4.3344,4.3389,4.3524,5.8913,5.8744,5.8727,5.8406,5.7898,5.7881,5.7881,5.7881,5.7881,5.7881,5.7881,5.7881,5.7881,5.8135,5.8846,5.9658,6.0165,6.1112,6.1806,6.2245,6.2398,6.2398,6.2398,6.2398,6.2398,6.2398,6.2398,6.2398,6.2398,6.2465,6.2753,6.348,6.3294,6.3176,6.3226,6.3024,6.2702,6.2398,6.2398,6.2364,6.2245,6.1856,6.1518,6.0977,6.0266,5.9404,5.8981,5.8558,5.822,5.7763,5.7459,5.7188,5.7019,5.6444,5.5835,5.5361,5.5091,5.4549,5.4025,5.3687,5.3551,5.3518,5.3518,5.3518,5.3518,5.3518,5.3518,5.3518,5.3518,5.3518,5.3518,5.3518,5.2644,5.1631,5.0639,4.9457,4.8369,4.7787,4.7556,4.7635,4.7686,4.7582,4.7895,4.8299,4.8542,4.8803,4.8513,4.7967,4.7169,4.6333,4.5551,4.4993,4.4373,4.3849,4.3693,4.3927,4.4066,4.4189,4.3832,4.3581,4.3533,4.3419,4.3464,4.3434,4.3434,4.3853,4.4152,4.3733,4.3344,4.3344,4.3344,4.3344,4.3359,4.3449,4.3958,5.8592,5.7966,5.7966,5.7949,5.7881,5.7881,5.7881,5.7881,5.7881,5.7881,5.7881,5.7881,5.7881,5.8203,5.9133,5.9877,6.0165,6.1637,6.2144,6.2313,6.2398,6.2398,6.2398,6.2398,6.2398,6.2398,6.2398,6.2398,6.2482,6.2719,6.3007,6.3429,6.3751,6.3818,6.3649,6.3277,6.2821,6.2499,6.2398,6.2398,6.2398,6.2212,6.1975,6.1467,6.1095,6.0503,5.915,5.8913,5.8592,5.8051,5.778,5.7662,5.7476,5.707,5.6596,5.6258,5.5869,5.5294,5.4668,5.3991,5.3585,5.3534,5.3518,5.3518,5.3518,5.3518,5.3518,5.3518,5.3518,5.3518,5.3518,5.3348,5.28,5.1938,5.093,4.9898,4.8745,4.7553,4.7329,4.7472,4.7434,4.7289,4.7315,4.7709,4.8117,4.8392,4.9198,4.8737,4.8348,4.7528,4.6413,4.563,4.4993,4.4373,4.363,4.3847,4.4403,4.4588,4.4433,4.4046,4.375,4.3638,4.3479,4.3658,4.3748,4.4347,4.4661,4.3928,4.3434,4.3359,4.3359,4.3404,4.3938,4.4364,4.4989,5.8152,5.7881,5.7881,5.7881,5.7881,5.7881,5.7881,5.7881,5.7881,5.7881,5.7881,5.7881,5.7881,5.8203,5.8879,5.9708,6.0182,6.1163,6.189,6.2296,6.2398,6.2398,6.2398,6.2398,6.2398,6.2398,6.2398,6.2398,6.2448,6.3074,6.3768,6.4191,6.4174,6.414,6.3903,6.3396,6.2753,6.2567,6.2415,6.2398,6.2398,6.2398,6.2245,6.2026,6.1434,6.1112,6.0368,5.9455,5.8964,5.8541,5.8152,5.7983,5.7881,5.7543,5.7256,5.6934,5.6528,5.6038,5.5327,5.4583,5.4025,5.3551,5.3518,5.3551,5.3619,5.3534,5.3518,5.3518,5.3518,5.3518,5.3518,5.3433,5.3093,5.217,5.1303,5.0381,4.9251,4.8045,4.7265,4.7537,4.7134,4.6869,4.6949,4.7213,4.7587,4.7935,4.8888,4.9603,4.9124,4.863,4.7452,4.6375,4.5672,4.4892,4.4141,4.4402,4.4879,4.4894,4.4972,4.4676,4.4316,4.3578,4.3464,4.3703,4.4018,4.4436,4.4421,4.3823,4.3614,4.3733,4.3658,4.3524,4.4193,4.5158,4.5912,5.7881,5.7881,5.7881,5.7881,5.7881,5.7881,5.7881,5.7881,5.7881,5.7881,5.7881,5.7881,5.7881,5.8135,5.8964,5.959,6.0317,6.118,6.1856,6.2229,6.2398,6.2398,6.2398,6.2398,6.2398,6.2398,6.2398,6.2398,6.2465,6.37,6.4191,6.4326,6.4394,6.463,6.4461,6.3548,6.2719,6.2719,6.2482,6.2415,6.2398,6.2398,6.2381,6.2313,6.189,6.1501,6.1061,6.03,5.9556,5.9032,5.8541,5.8152,5.7983,5.7814,5.7594,5.7306,5.7036,5.6765,5.6072,5.5344,5.4617,5.4059,5.4245,5.4126,5.3907,5.3822,5.389,5.3518,5.3518,5.3518,5.3534,5.3433,5.3332,5.2627,5.1938,5.108,4.9915,4.8752,4.8019,4.7513,4.7111,4.6864,4.6702,4.6916,4.7435,4.795,4.8993,4.9692,4.9742,4.9143,4.8477,4.74,4.6355,4.5547,4.4788,4.5279,4.5631,4.5361,4.5361,4.5425,4.4955,4.4213,4.4077,4.4781,4.496,4.4706,4.4781,4.499,4.4661,4.4242,4.4122,4.3988,4.487,4.5838,4.6659,5.7881,5.7881,5.7881,5.7881,5.7881,5.7881,5.7881,5.7881,5.7881,5.7881,5.7881,5.7881,5.7881,5.8186,5.9167,5.9827,6.0334,6.1484,6.2262,6.233,6.2398,6.2398,6.2398,6.2398,6.2398,6.2398,6.2398,6.2398,6.2415,6.348,6.4072,6.4597,6.4918,6.5375,6.5476,6.4208,6.3514,6.3362,6.2736,6.2465,6.2398,6.2398,6.2398,6.2347,6.2279,6.1924,6.1484,6.1112,6.03,5.9353,5.8981,5.8507,5.7966,5.7898,5.7797,5.7746,5.7746,5.7425,5.6782,5.6089,5.5429,5.4769,5.4938,5.504,5.4702,5.4532,5.4414,5.4126,5.3771,5.3636,5.3568,5.3518,5.3365,5.311,5.2487,5.1776,5.0687,4.9915,4.9231,4.8157,4.7548,4.7096,4.6773,4.6707,4.7263,4.8004,4.8995,4.9641,5.0033,4.987,4.9286,4.8728,4.7678,4.6516,4.5958,4.633,4.6449,4.6016,4.5804,4.5885,4.5728,4.5131,4.5297,4.5858,4.5693,4.5244,4.5888,4.6591,4.5813,4.502,4.4706,4.4766,4.5663,4.656,4.735,5.7881,5.7881,5.7881,5.7881,5.7881,5.7881,5.7881,5.7881,5.7881,5.7881,5.7881,5.7881,5.7881,5.8237,5.8896,5.9708,6.0283,6.1044,6.1789,6.2381,6.2398,6.2398,6.2398,6.2398,6.2398,6.2398,6.2398,6.2448,6.2415,6.3599,6.3869,6.4224,6.5155,6.5628,6.5307,6.436,6.3514,6.3379,6.2837,6.2398,6.2398,6.2398,6.2398,6.2398,6.2398,6.2229,6.1941,6.162,6.0825,5.9827,5.9471,5.8744,5.8101,5.7932,5.7881,5.7881,5.7865,5.7543,5.7171,5.6765,5.6562,5.5936,5.5598,5.575,5.5361,5.5344,5.5175,5.4854,5.4346,5.4228,5.4245,5.3737,5.3501,5.345,5.2956,5.247,5.1687,5.1303,5.0611,4.9215,4.8247,4.7789,4.731,4.6939,4.7267,4.7679,4.8525,4.992,5.0592,5.0549,5.0274,5.0043,4.9268,4.7872,4.7226,4.7497,4.7494,4.7173,4.6717,4.6501,4.623,4.5958,4.5702,4.5888,4.5843,4.5828,4.6352,4.6696,4.6322,4.5798,4.5559,4.5484,4.6082,4.7114,4.8183,5.7662,5.7881,5.7881,5.7881,5.7881,5.7881,5.7881,5.7881,5.7881,5.7881,5.7881,5.7881,5.7881,5.8169,5.893,5.9539,6.0216,6.1247,6.1789,6.2381,6.2398,6.2398,6.2398,6.2398,6.2398,6.2448,6.2634,6.2719,6.2516,6.4157,6.4698,6.4783,6.5189,6.5595,6.5324,6.4597,6.3785,6.3463,6.2837,6.2398,6.2398,6.2398,6.2398,6.2398,6.2398,6.2364,6.2262,6.1873,6.1315,6.0537,5.9793,5.9049,5.8473,5.8034,5.7932,5.7881,5.7831,5.7628,5.7476,5.7492,5.7205,5.6697,5.6494,5.6342,5.619,5.6089,5.5869,5.553,5.5057,5.4955,5.482,5.4211,5.3771,5.3721,5.35,5.2951,5.2291,5.1826,5.1303,4.9915,4.9231,4.861,4.8003,4.7493,4.7337,4.7669,4.8076,4.9474,5.0709,5.0717,5.0631,5.0577,5.0397,4.9313,4.8561,4.8637,4.8577,4.8224,4.7819,4.7476,4.6915,4.6641,4.6271,4.5992,4.6292,4.6516,4.6606,4.6651,4.6646,4.6661,4.6576,4.6561,4.6681,4.7371,4.8346,5.7222,5.7814,5.7881,5.7881,5.7881,5.7881,5.7881,5.7881,5.7881,5.7881,5.7881,5.7881,5.7881,5.8186,5.9387,6.003,6.0402,6.1637,6.2161,6.2364,6.2398,6.2398,6.2398,6.2398,6.2398,6.2634,6.2787,6.2753,6.2668,6.4038,6.5019,6.5561,6.5611,6.5713,6.5408,6.5019,6.4309,6.3734,6.3074,6.2634,6.2465,6.2398,6.2398,6.2398,6.2398,6.2398,6.2347,6.2212,6.1806,6.1197,6.0537,5.9776,5.9049,5.8321,5.8051,5.7881,5.7881,5.7831,5.7797,5.7848,5.7831,5.7492,5.7628,5.7391,5.7087,5.6833,5.663,5.6139,5.5632,5.5615,5.5497,5.4803,5.4143,5.4042,5.394,5.3291,5.2566,5.202,5.1557,5.0855,5.032,4.971,4.8907,4.8377,4.7764,4.7704,4.7989,4.8019,4.9251,5.0193,5.0186,5.0578,5.0448,5.0471,5.0138,5.0021,4.9596,4.9253,4.8965,4.8577,4.7973,4.7428,4.7071,4.6981,4.7156,4.7276,4.7422,4.7452,4.7458,4.7558,4.7829,4.7297,4.7292,4.7141,4.7764,5.6934,5.7154,5.7662,5.7881,5.7881,5.7881,5.7881,5.7881,5.7881,5.7881,5.7881,5.7881,5.7881,5.8017,5.9421,5.9962,6.0672,6.1484,6.2161,6.2398,6.2398,6.2398,6.2398,6.2398,6.2398,6.2465,6.2601,6.2787,6.2702,6.3869,6.5307,6.6203,6.5865,6.5747,6.5611,6.5476,6.4918,6.4258,6.3497,6.2939,6.255,6.2431,6.2415,6.2398,6.2398,6.2398,6.2398,6.2398,6.2009,6.1383,6.1112,6.0436,5.9049,5.8761,5.8575,5.7932,5.7881,5.7865,5.7881,5.7881,5.7881,5.7881,5.7881,5.7831,5.7628,5.7476,5.734,5.6833,5.6308,5.6224,5.6105,5.5564,5.5108,5.4972,5.4685,5.3938,5.3268,5.2827,5.2357,5.1704,5.1245,5.055,4.9758,4.9054,4.8527,4.821,4.7988,4.7919,4.808,4.9142,5.0009,5.0338,5.0945,5.1057,5.1333,5.1288,5.0758,5.0288,4.9993,4.9615,4.8876,4.8315,4.7973,4.7679,4.7452,4.7849,4.8346,4.8293,4.8141,4.9166,4.9457,4.8594,4.7864,4.7694,4.7523,5.6105,5.6427,5.6833,5.7188,5.7492,5.7763,5.7881,5.7881,5.7881,5.7881,5.7881,5.7881,5.7881,5.8118,5.9353,6.0114,6.025,6.162,6.2398,6.2398,6.2398,6.2398,6.2398,6.2398,6.2398,6.2448,6.2668,6.299,6.299,6.3632,6.4952,6.6068,6.5814,6.5747,6.5747,6.5899,6.5713,6.4918,6.4089,6.3379,6.2922,6.255,6.2415,6.2398,6.2398,6.2398,6.2398,6.2398,6.2127,6.167,6.1586,6.0757,5.9421,5.8964,5.849,5.7898,5.7881,5.7881,5.7881,5.7881,5.7881,5.7881,5.7881,5.7865,5.7848,5.7746,5.7746,5.756,5.7137,5.6782,5.663,5.6444,5.6275,5.6089,5.5361,5.4617,5.4228,5.3788,5.3209,5.259,5.1938,5.132,5.0627,4.9915,4.9376,4.9231,4.8759,4.8293,4.8293,4.8748,4.9756,5.0418,5.1231,5.1878,5.2153,5.2241,5.1849,5.132,5.1064,5.0534,4.9758,4.9231,4.9004,4.8309,4.7609,4.8141,4.8841,4.8825,4.8825,4.9915,5.055,4.9551,4.8692,4.8225,4.8141,5.5006,5.5649,5.57,5.6241,5.685,5.7492,5.7797,5.7881,5.7881,5.7881,5.7881,5.7881,5.7881,5.8135,5.9252,5.9945,6.0402,6.1501,6.2262,6.2381,6.2398,6.2398,6.2398,6.2398,6.2398,6.2634,6.2888,6.3057,6.3599,6.4157,6.4816,6.5645,6.5544,6.5611,6.6,6.6187,6.6068,6.5696,6.458,6.3616,6.3277,6.2854,6.2398,6.2398,6.2398,6.2398,6.2398,6.2398,6.2398,6.2144,6.1772,6.1028,6.0114,5.8947,5.8321,5.8,5.7983,5.7881,5.7881,5.7881,5.7881,5.7881,5.7881,5.7881,5.7881,5.7881,5.7881,5.7848,5.7408,5.734,5.7222,5.6968,5.6782,5.6579,5.6072,5.5547,5.5209,5.4583,5.3686,5.3123,5.2644,5.2098,5.1865,5.1155,5.0534,5.0304,4.9694,4.9069,4.8692,4.8759,4.9296,5.0227,5.093,5.1704,5.2487,5.2644,5.2714,5.24,5.2082,5.1525,5.0687,5.0304,4.9993,4.9311,4.8692,4.8759,4.915,4.944,5.0071,5.0855,5.1096,5.032,4.9694,4.915,4.8309,5.4685,5.4921,5.548,5.6139,5.6765,5.6985,5.7391,5.7865,5.7881,5.7881,5.7881,5.7881,5.7881,5.8068,5.8896,5.9573,6.025,6.1129,6.1823,6.2212,6.2347,6.2398,6.2398,6.2398,6.2398,6.2431,6.2668,6.3091,6.3582,6.4241,6.4901,6.551,6.5375,6.5425,6.6254,6.6356,6.6153,6.6254,6.5053,6.4021,6.3565,6.2922,6.2398,6.2398,6.2398,6.2398,6.2398,6.2398,6.2398,6.2296,6.2262,6.1738,6.1028,5.9556,5.8863,5.8643,5.8271,5.8068,5.7966,5.7949,5.7881,5.7881,5.7881,5.7881,5.7881,5.7881,5.7865,5.7814,5.7797,5.7797,5.7656,5.7386,5.7167,5.6947,5.6748,5.6427,5.6105,5.5124,5.4126,5.3669,5.328,5.3025,5.28,5.24,5.1776,5.1155,5.055,4.9868,4.9197,4.9035,4.8841,4.9536,5.0165,5.1021,5.2098,5.28,5.2784,5.3093,5.287,5.2329,5.1704,5.108,5.0534,5.032,4.9931,4.9931,5.0227,5.1005,5.1631,5.2026,5.2098,5.1557,5.093,5.0458,4.9004,5.411,5.4211,5.4905,5.5649,5.6292,5.6647,5.7222,5.7797,5.7881,5.7881,5.7881,5.7881,5.7881,5.8,5.8676,5.9184,5.986,6.0825,6.14,6.1839,6.2296,6.2381,6.2398,6.2398,6.2398,6.2431,6.2804,6.3243,6.3548,6.4208,6.4867,6.5172,6.4986,6.5392,6.6288,6.6153,6.6305,6.6694,6.5307,6.4444,6.3785,6.3057,6.2465,6.2398,6.2398,6.2398,6.2398,6.2398,6.2398,6.2245,6.2042,6.1755,6.1078,6.0131,5.959,5.9302,5.8913,5.8389,5.8321,5.8135,5.7966,5.7949,5.7881,5.7881,5.7881,5.7881,5.7881,5.7848,5.7848,5.7848,5.7355,5.7079,5.6955,5.6746,5.6718,5.6511,5.5936,5.5108,5.4499,5.4245,5.3753,5.3348,5.3195,5.3127,5.264,5.2848,5.2097,5.1469,5.0655,4.958,4.9259,4.8938,4.9583,5.0643,5.1849,5.247,5.2714,5.3041,5.3433,5.311,5.2487,5.1704,5.108,5.1021,5.0946,5.0795,5.1245,5.1938,5.2487,5.28,5.2956,5.2956,5.2258,5.1484,5.0213,5.3534,5.3602,5.4194,5.4888,5.5615,5.6359,5.7053,5.7662,5.7831,5.7881,5.7881,5.7881,5.7881,5.8118,5.8507,5.8879,5.9488,6.0469,6.1028,6.1704,6.2161,6.233,6.2398,6.2398,6.2398,6.2651,6.3057,6.3142,6.326,6.3937,6.4377,6.4597,6.5002,6.5493,6.5831,6.6203,6.6542,6.6203,6.5358,6.463,6.392,6.3193,6.2618,6.2398,6.2398,6.2398,6.2398,6.2398,6.2398,6.2245,6.1975,6.1772,6.1417,6.0791,6.0452,6.008,5.9556,5.9235,5.9032,5.8541,5.8287,5.8068,5.7966,5.7898,5.7915,5.7898,5.7898,5.7898,5.7898,5.7628,5.7131,5.6794,5.6701,5.6651,5.6644,5.6465,5.5757,5.5204,5.5021,5.482,5.4363,5.389,5.3839,5.3737,5.3855,5.414,5.3928,5.3346,5.2573,5.1221,5.0359,4.9546,4.921,5.0322,5.1245,5.1993,5.2312,5.28,5.311,5.3348,5.328,5.2574,5.2098,5.201,5.1938,5.1842,5.1954,5.24,5.2956,5.3433,5.3348,5.328,5.28,5.1954,5.1177,5.3518,5.3518,5.3653,5.4143,5.4888,5.5615,5.6342,5.7036,5.7628,5.7881,5.7831,5.7865,5.7881,5.7881,5.7983,5.8524,5.9607,6.0334,6.1264,6.2144,6.2262,6.2347,6.2398,6.2398,6.2398,6.2651,6.2956,6.3057,6.2973,6.3413,6.3734,6.3768,6.3818,6.4546,6.5628,6.595,6.6017,6.5797,6.5341,6.4546,6.3751,6.3074,6.2567,6.2398,6.2398,6.2398,6.2398,6.2398,6.2398,6.2347,6.2245,6.2127,6.1856,6.1467,6.1163,6.0858,6.0334,6.0013,5.9691,5.9184,5.8879,5.8727,5.8558,5.8101,5.8068,5.7949,5.7966,5.8,5.7893,5.7314,5.687,5.6547,5.6376,5.6547,5.6613,5.6112,5.5522,5.5682,5.5825,5.5559,5.5224,5.5004,5.504,5.504,5.5091,5.5154,5.512,5.4611,5.3997,5.2774,5.1446,5.0565,4.9587,4.8934,4.944,5.1064,5.1687,5.2312,5.2987,5.3584,5.3822,5.3467,5.3161,5.3218,5.3138,5.3107,5.3211,5.3238,5.3379,5.3771,5.3534,5.3348,5.2989,5.279,5.2269]},{"header":{"parameterUnit":"m.s-1","parameterCategory":1,"la1":31.0,"la2":29.5877,"lo1":-88.7671,"lo2":-86.6584,"dx":0.0162,"dy":0.0185,"nx":115,"ny":88,"refTime":"2023-01-25T18:00:00:Z","depth":0,"parameterNumber":3,"parameterNumberName":"V-component_of_WINDS"},"data":[0.0,0.0,0.0,0.0,0.0,0.0,0.0,0.0,0.0,0.0,0.0,0.0,0.0,0.0,0.0,0.0,0.0,0.0,0.0,0.0,0.0,0.0,0.0,0.0,0.0,0.0,0.0,0.0,0.0,0.0,0.0,0.0,0.0,0.0,0.0,0.0,0.0,0.0,0.0,0.0,0.0,0.0,0.0,0.0,0.0,0.0,0.0,0.0,0.0,0.0,0.0,0.0,0.0,0.0,0.0,0.0,0.0,0.0,0.0,0.0,0.0,0.0,0.0,0.0,0.0,0.0,0.0,0.0,0.0,0.0,0.0,0.0,0.0,0.0,0.0,0.0,0.0,0.0,0.0,0.0,0.0,0.0,0.0,0.0,0.0,0.0,0.0,0.0,0.0,0.0,0.0,0.0,0.0,0.0,0.0,0.0,0.0,0.0,0.0,0.0,0.0,0.0,0.0,0.0,0.0,0.0,0.0,0.0,0.0,0.0,0.0,0.0,0.0,0.0,0.0,0.0,0.0,0.0,0.0,0.0,0.0,0.0,0.0,0.0,0.0,0.0,0.0,0.0,0.0,0.0,0.0,0.0,0.0,0.0,0.0,0.0,0.0,0.0,0.0,0.0,0.0,0.0,0.0,0.0,0.0,0.0,0.0,0.0,0.0,0.0,0.0,0.0,0.0,0.0,0.0,0.0,0.0,0.0,0.0,0.0,0.0,0.0,0.0,0.0,0.0,0.0,0.0,0.0,0.0,0.0,0.0,0.0,0.0,0.0,0.0,0.0,0.0,0.0,0.0,0.0,0.0,0.0,0.0,0.0,0.0,0.0,0.0,0.0,0.0,0.0,0.0,0.0,0.0,0.0,0.0,0.0,0.0,0.0,0.0,0.0,0.0,0.0,0.0,0.0,0.0,0.0,0.0,0.0,0.0,0.0,0.0,0.0,0.0,0.0,0.0,0.0,0.0,0.0,0.0,0.0,0.0,0.0,0.0,0.0,0.0,0.0,0.0,0.0,0.0,0.0,0.0,0.0,0.0,0.0,0.0,0.0,0.0,0.0,0.0,0.0,0.0,0.0,0.0,0.0,0.0,0.0,0.0,0.0,0.0,0.0,0.0,0.0,0.0,0.0,0.0,0.0,0.0,0.0,0.0,0.0,0.0,0.0,0.0,0.0,0.0,0.0,0.0,0.0,0.0,0.0,0.0,0.0,0.0,0.0,0.0,0.0,0.0,0.0,0.0,0.0,0.0,0.0,0.0,0.0,0.0,0.0,0.0,0.0,0.0,0.0,0.0,0.0,0.0,0.0,0.0,0.0,0.0,0.0,0.0,0.0,0.0,0.0,0.0,0.0,0.0,0.0,0.0,0.0,0.0,0.0,0.0,0.0,0.0,0.0,0.0,0.0,0.0,0.0,0.0,0.0,0.0,0.0,0.0,0.0,0.0,0.0,0.0,0.0,0.0,0.0,0.0,0.0,0.0,0.0,0.0,0.0,0.0,0.0,0.0,0.0,0.0,0.0,0.0,0.0,0.0,0.0,0.0,0.0,0.0,0.0,0.0,0.0,0.0,0.0,0.0,0.0,0.0,0.0,0.0,0.0,0.0,0.0,0.0,0.0,0.0,0.0,0.0,0.0,0.0,0.0,0.0,0.0,0.0,0.0,0.0,0.0,0.0,0.0,0.0,0.0,0.0,0.0,0.0,0.0,0.0,0.0,0.0,0.0,0.0,0.0,0.0,0.0,0.0,0.0,0.0,0.0,0.0,0.0,0.0,0.0,0.0,0.0,0.0,0.0,0.0,0.0,0.0,0.0,0.0,0.0,0.0,0.0,0.0,0.0,0.0,0.0,0.0,0.0,0.0,0.0,0.0,0.0,0.0,0.0,0.0,0.0,0.0,0.0,0.0,0.0,0.0,0.0,0.0,0.0,0.0,0.0,0.0,0.0,0.0,0.0,0.0,0.0,0.0,0.0,0.0,0.0,0.0,0.0,0.0,0.0,0.0,0.0,0.0,0.0,0.0,0.0,0.0,0.0,0.0,0.0,0.0,0.0,0.0,0.0,0.0,0.0,0.0,0.0,0.0,0.0,0.0,0.0,0.0,0.0,0.0,0.0,0.0,0.0,0.0,0.0,0.0,0.0,0.0,0.0,0.0,0.0,0.0,0.0,0.0,0.0,0.0,0.0,0.0,0.0,0.0,0.0,0.0,0.0,0.0,0.0,0.0,0.0,0.0,0.0,0.0,0.0,0.0,0.0,0.0,0.0,0.0,0.0,0.0,0.0,0.0,0.0,0.0,0.0,0.0,0.0,0.0,0.0,0.0,0.0,0.0,0.0,0.0,0.0,0.0,0.0,0.0,0.0,0.0,0.0,0.0,0.0,0.0,0.0,0.0,0.0,0.0,0.0,0.0,0.0,0.0,0.0,0.0,0.0,0.0,0.0,0.0,0.0,0.0,0.0,0.0,0.0,0.0,0.0,0.0,0.0,0.0,0.0,0.0,0.0,0.0,0.0,0.0,0.0,0.0,0.0,0.0,0.0,0.0,0.0,0.0,0.0,0.0,0.0,0.0,0.0,0.0,0.0,0.0,0.0,0.0,0.0,0.0,0.0,0.0,0.0,0.0,0.0,0.0,0.0,0.0,0.0,0.0,0.0,0.0,0.0,0.0,0.0,0.0,0.0,0.0,0.0,0.0,0.0,0.0,0.0,0.0,0.0,0.0,0.0,0.0,0.0,0.0,0.0,0.0,0.0,0.0,0.0,0.0,0.0,0.0,0.0,0.0,0.0,0.0,0.0,0.0,0.0,0.0,0.0,0.0,0.0,0.0,0.0,0.0,0.0,0.0,0.0,0.0,0.0,0.0,0.0,0.0,0.0,0.0,0.0,0.0,0.0,0.0,0.0,0.0,0.0,0.0,0.0,0.0,0.0,0.0,0.0,0.0,0.0,0.0,0.0,0.0,0.0,0.0,0.0,0.0,0.0,0.0,0.0,0.0,0.0,0.0,0.0,0.0,0.0,0.0,0.0,0.0,0.0,0.0,0.0,0.0,0.0,0.0,0.0,0.0,0.0,0.0,0.0,0.0,0.0,0.0,0.0,0.0,0.0,0.0,0.0,0.0,0.0,0.0,0.0,0.0,0.0,0.0,0.0,0.0,0.0,0.0,0.0,0.0,0.0,0.0,0.0,0.0,0.0,0.0,0.0,0.0,0.0,0.0,0.0,0.0,0.0,0.0,0.0,0.0,0.0,0.0,0.0,0.0,0.0,0.0,0.0,0.0,0.0,0.0,0.0,0.0,0.0,0.0,0.0,0.0,0.0,0.0,0.0,0.0,0.0,0.0,0.0,0.0,0.0,0.0,0.0,0.0,0.0,0.0,0.0,0.0,0.0,0.0,0.0,0.0,0.0,0.0,0.0,0.0,0.0,0.0,0.0,0.0,0.0,0.0,0.0,0.0,0.0,0.0,0.0,0.0,0.0,0.0,0.0,0.0,0.0,0.0,0.0,0.0,0.0,0.0,0.0,0.0,0.0,0.0,0.0,0.0,0.0,0.0,0.0,0.0,0.0,0.0,0.0,0.0,0.0,0.0,0.0,0.0,0.0,0.0,0.0,0.0,0.0,0.0,0.0,0.0,0.0,0.0,0.0,0.0,0.0,0.0,0.0,0.0,0.0,0.0,0.0,0.0,0.0,0.0,0.0,0.0,0.0,0.0,0.0,0.0,0.0,0.0,0.0,0.0,0.0,0.0,0.0,0.0,0.0,0.0,0.0,0.0,0.0,0.0,0.0,0.0,0.0,0.0,0.0,0.0,0.0,0.0,0.0,0.0,0.0,0.0,0.0,0.0,0.0,0.0,0.0,0.0,0.0,0.0,0.0,0.0,0.0,0.0,0.0,0.0,0.0,0.0,0.0,0.0,0.0,0.0,0.0,0.0,0.0,0.0,0.0,0.0,0.0,0.0,0.0,0.0,0.0,0.0,0.0,0.0,0.0,0.0,0.0,0.0,0.0,0.0,0.0,0.0,0.0,0.0,0.0,0.0,0.0,0.0,0.0,0.0,0.0,0.0,0.0,0.0,0.0,0.0,0.0,0.0,0.0,0.0,0.0,0.0,0.0,0.0,0.0,0.0,0.0,0.0,0.0,0.0,0.0,0.0,0.0,0.0,0.0,0.0,0.0,0.0,0.0,0.0,0.0,0.0,0.0,0.0,0.0,0.0,0.0,0.0,0.0,0.0,0.0,0.0,0.0,0.0,0.0,0.0,0.0,0.0,0.0,0.0,0.0,-1.5381,0.0,0.0,0.0,0.0,0.0,0.0,0.0,0.0,0.0,0.0,0.0,0.0,0.0,0.0,0.0,0.0,0.0,0.0,0.0,0.0,0.0,0.0,0.0,0.0,0.0,0.0,0.0,0.0,0.0,0.0,0.0,0.0,0.0,0.0,0.0,0.0,0.0,0.0,0.0,0.0,0.0,0.0,0.0,0.0,0.0,0.0,0.0,0.0,0.0,0.0,0.0,0.0,0.0,0.0,0.0,0.0,0.0,0.0,0.0,0.0,0.0,0.0,0.0,0.0,0.0,0.0,0.0,0.0,0.0,0.0,0.0,0.0,0.0,0.0,0.0,0.0,0.0,0.0,0.0,0.0,0.0,0.0,0.0,0.0,0.0,0.0,0.0,0.0,0.0,0.0,0.0,0.0,0.0,0.0,0.0,0.0,0.0,0.0,0.0,0.0,0.0,0.0,0.0,0.0,0.0,0.0,0.0,0.0,0.0,0.0,-1.552,-1.5959,-1.4906,-1.4569,-1.5071,0.0,0.0,0.0,0.0,0.0,0.0,0.0,0.0,0.0,0.0,0.0,0.0,0.0,0.0,0.0,0.0,0.0,0.0,0.0,0.0,0.0,0.0,0.0,0.0,0.0,0.0,0.0,0.0,0.0,0.0,0.0,0.0,0.0,0.0,0.0,0.0,0.0,0.0,0.0,0.0,0.0,0.0,0.0,0.0,0.0,0.0,0.0,0.0,0.0,0.0,0.0,0.0,0.0,0.0,0.0,0.0,0.0,0.0,0.0,0.0,0.0,0.0,0.0,0.0,0.0,0.0,0.0,0.0,0.0,0.0,0.0,0.0,0.0,0.0,0.0,0.0,0.0,0.0,0.0,0.0,0.0,0.0,0.0,0.0,0.0,0.0,0.0,0.0,0.0,0.0,0.0,0.0,0.0,0.0,0.0,0.0,0.0,0.0,0.0,0.0,0.0,0.0,0.0,0.0,0.0,0.0,0.0,0.0,0.0,0.0,0.0,0.0,-1.4392,-1.3828,-1.4471,0.0,0.0,0.0,0.0,0.0,0.0,0.0,0.0,0.0,0.0,0.0,0.0,0.0,0.0,0.0,0.0,0.0,0.0,0.0,0.0,0.0,0.0,0.0,0.0,0.0,0.0,0.0,0.0,0.0,0.0,0.0,0.0,0.0,0.0,0.0,0.0,0.0,0.0,0.0,0.0,0.0,0.0,0.0,0.0,0.0,0.0,0.0,0.0,0.0,0.0,0.0,0.0,0.0,0.0,0.0,0.0,0.0,0.0,0.0,0.0,0.0,0.0,0.0,0.0,0.0,0.0,0.0,0.0,0.0,0.0,0.0,0.0,0.0,0.0,0.0,0.0,0.0,0.0,0.0,0.0,0.0,0.0,0.0,0.0,0.0,0.0,0.0,0.0,0.0,0.0,0.0,0.0,0.0,0.0,0.0,0.0,0.0,0.0,0.0,0.0,0.0,0.0,0.0,0.0,0.0,0.0,0.0,0.0,0.0,0.0,-1.6098,-1.7172,-1.5492,0.0,-1.3909,0.0,0.0,0.0,0.0,0.0,0.0,0.0,0.0,0.0,0.0,0.0,0.0,0.0,0.0,0.0,0.0,0.0,0.0,0.0,0.0,0.0,0.0,0.0,0.0,0.0,0.0,0.0,0.0,0.0,0.0,0.0,0.0,0.0,0.0,0.0,0.0,0.0,0.0,0.0,0.0,0.0,0.0,0.0,0.0,0.0,0.0,0.0,0.0,0.0,0.0,0.0,0.0,0.0,0.0,0.0,0.0,0.0,0.0,0.0,0.0,0.0,0.0,0.0,0.0,0.0,0.0,0.0,0.0,0.0,0.0,0.0,0.0,0.0,0.0,0.0,0.0,0.0,0.0,0.0,0.0,0.0,0.0,0.0,0.0,0.0,0.0,0.0,0.0,0.0,0.0,0.0,0.0,0.0,0.0,0.0,0.0,0.0,0.0,0.0,0.0,0.0,0.0,0.0,0.0,0.0,0.0,0.0,0.0,0.0,0.0,-1.6029,-1.5796,-1.4764,-1.419,0.0,0.0,0.0,0.0,0.0,0.0,0.0,0.0,0.0,0.0,0.0,0.0,0.0,0.0,0.0,0.0,0.0,0.0,0.0,0.0,0.0,0.0,0.0,0.0,0.0,0.0,0.0,0.0,0.0,0.0,0.0,0.0,0.0,0.0,0.0,0.0,0.0,0.0,0.0,0.0,0.0,0.0,0.0,0.0,0.0,0.0,0.0,0.0,0.0,0.0,0.0,0.0,0.0,0.0,0.0,0.0,0.0,0.0,0.0,0.0,0.0,0.0,0.0,0.0,0.0,0.0,0.0,0.0,0.0,0.0,0.0,0.0,0.0,0.0,0.0,0.0,0.0,0.0,0.0,0.0,0.0,0.0,0.0,0.0,0.0,0.0,0.0,0.0,0.0,0.0,0.0,0.0,0.0,0.0,0.0,0.0,0.0,0.0,0.0,0.0,0.0,0.0,0.0,0.0,0.0,0.0,0.0,0.0,0.0,0.0,-1.6181,-1.5433,-1.4247,-1.3967,-1.3909,-1.4201,0.0,0.0,0.0,0.0,0.0,0.0,0.0,0.0,0.0,0.0,0.0,0.0,0.0,0.0,0.0,0.0,0.0,0.0,0.0,0.0,0.0,0.0,0.0,0.0,0.0,0.0,0.0,0.0,0.0,0.0,0.0,0.0,0.0,0.0,0.0,0.0,0.0,0.0,0.0,0.0,0.0,0.0,0.0,0.0,0.0,0.0,0.0,0.0,0.0,0.0,0.0,0.0,0.0,0.0,0.0,0.0,0.0,0.0,0.0,0.0,0.0,0.0,0.0,0.0,0.0,0.0,0.0,0.0,0.0,0.0,0.0,0.0,0.0,0.0,0.0,0.0,0.0,0.0,0.0,0.0,0.0,0.0,0.0,0.0,0.0,0.0,0.0,0.0,0.0,0.0,0.0,0.0,0.0,0.0,0.0,0.0,0.0,0.0,0.0,0.0,0.0,0.0,0.0,0.0,0.0,0.0,0.0,0.0,-1.6394,-1.536,-1.4212,-1.3123,-1.3505,-1.3552,0.0,0.0,0.0,0.0,0.0,0.0,0.0,0.0,0.0,0.0,0.0,0.0,0.0,0.0,0.0,0.0,0.0,0.0,0.0,0.0,0.0,0.0,0.0,0.0,0.0,0.0,0.0,0.0,0.0,0.0,0.0,0.0,0.0,0.0,0.0,0.0,0.0,0.0,0.0,0.0,0.0,0.0,0.0,0.0,0.0,0.0,0.0,0.0,0.0,0.0,0.0,0.0,0.0,0.0,0.0,0.0,0.0,0.0,0.0,0.0,0.0,0.0,0.0,0.0,0.0,0.0,0.0,0.0,0.0,0.0,0.0,0.0,0.0,0.0,0.0,0.0,0.0,0.0,0.0,0.0,0.0,0.0,0.0,0.0,0.0,0.0,0.0,0.0,0.0,0.0,0.0,0.0,0.0,0.0,0.0,0.0,0.0,0.0,0.0,0.0,0.0,0.0,0.0,0.0,0.0,0.0,0.0,0.0,0.0,-1.7488,-1.6009,-1.4788,-1.3926,-1.3476,-1.3104,0.0,0.0,0.0,0.0,0.0,0.0,0.0,0.0,0.0,0.0,0.0,0.0,0.0,0.0,0.0,0.0,0.0,0.0,0.0,0.0,0.0,0.0,0.0,0.0,0.0,0.0,0.0,0.0,0.0,0.0,0.0,0.0,0.0,0.0,0.0,0.0,0.0,0.0,0.0,0.0,0.0,0.0,0.0,0.0,0.0,0.0,0.0,0.0,0.0,0.0,0.0,0.0,0.0,0.0,0.0,0.0,0.0,0.0,0.0,0.0,0.0,0.0,0.0,0.0,0.0,0.0,0.0,0.0,0.0,0.0,0.0,0.0,0.0,0.0,0.0,0.0,0.0,0.0,0.0,0.0,0.0,0.0,0.0,0.0,0.0,0.0,0.0,0.0,0.0,0.0,0.0,0.0,0.0,0.0,0.0,0.0,0.0,0.0,0.0,0.0,0.0,0.0,0.0,0.0,0.0,0.0,0.0,0.0,0.0,-1.6943,0.0,-1.4397,-1.3897,-1.3253,-1.2891,0.0,0.0,0.0,0.0,0.0,0.0,0.0,0.0,0.0,0.0,0.0,0.0,0.0,0.0,0.0,0.0,0.0,0.0,0.0,0.0,0.0,0.0,0.0,0.0,0.0,0.0,0.0,0.0,0.0,0.0,0.0,0.0,0.0,0.0,0.0,0.0,0.0,0.0,0.0,0.0,0.0,0.0,0.0,0.0,0.0,0.0,0.0,0.0,0.0,0.0,0.0,0.0,0.0,0.0,0.0,0.0,0.0,0.0,0.0,0.0,0.0,0.0,0.0,0.0,0.0,0.0,0.0,0.0,0.0,0.0,0.0,0.0,0.0,0.0,0.0,0.0,0.0,0.0,0.0,0.0,0.0,0.0,0.0,0.0,0.0,0.0,0.0,0.0,0.0,0.0,0.0,0.0,0.0,0.0,0.0,0.0,0.0,0.0,0.0,0.0,0.0,0.0,0.0,0.0,0.0,0.0,0.0,0.0,-1.6238,-1.4542,-1.352,-1.3135,-1.292,-1.292,-1.2891,0.0,0.0,0.0,0.0,0.0,0.0,0.0,0.0,0.0,0.0,0.0,0.0,0.0,0.0,0.0,0.0,0.0,0.0,0.0,0.0,0.0,0.0,0.0,0.0,0.0,0.0,0.0,0.0,0.0,0.0,0.0,0.0,0.0,0.0,0.0,0.0,0.0,0.0,0.0,0.0,0.0,0.0,0.0,0.0,0.0,0.0,0.0,0.0,0.0,0.0,0.0,0.0,0.0,0.0,0.0,0.0,0.0,0.0,0.0,0.0,0.0,0.0,0.0,0.0,0.0,0.0,0.0,0.0,0.0,0.0,0.0,0.0,0.0,0.0,0.0,0.0,0.0,0.0,0.0,0.0,0.0,0.0,0.0,0.0,0.0,0.0,0.0,0.0,0.0,0.0,0.0,0.0,0.0,0.0,0.0,0.0,0.0,0.0,0.0,0.0,0.0,0.0,0.0,0.0,0.0,0.0,0.0,0.0,0.0,-1.5779,-1.4925,-1.452,-1.4551,-1.3486,-1.3008,0.0,0.0,0.0,0.0,0.0,0.0,0.0,0.0,0.0,0.0,0.0,0.0,0.0,0.0,0.0,0.0,0.0,0.0,0.0,0.0,0.0,0.0,0.0,0.0,0.0,0.0,0.0,0.0,0.0,0.0,0.0,0.0,0.0,0.0,0.0,0.0,0.0,0.0,0.0,0.0,0.0,0.0,0.0,0.0,0.0,0.0,0.0,0.0,0.0,0.0,0.0,0.0,0.0,0.0,0.0,0.0,0.0,0.0,0.0,0.0,0.0,0.0,0.0,0.0,0.0,0.0,0.0,0.0,0.0,0.0,0.0,0.0,0.0,0.0,0.0,0.0,0.0,0.0,0.0,0.0,0.0,0.0,0.0,0.0,0.0,0.0,0.0,0.0,0.0,0.0,0.0,0.0,0.0,0.0,0.0,0.0,0.0,0.0,0.0,0.0,0.0,0.0,0.0,0.0,0.0,0.0,0.0,0.0,0.0,-1.6688,-1.5634,-1.5012,-1.4932,-1.4053,-1.3564,-1.3506,0.0,0.0,0.0,0.0,0.0,0.0,0.0,0.0,0.0,0.0,0.0,0.0,0.0,0.0,0.0,0.0,0.0,0.0,0.0,0.0,0.0,0.0,0.0,0.0,0.0,0.0,0.0,0.0,0.0,0.0,0.0,0.0,0.0,0.0,0.0,0.0,0.0,0.0,0.0,0.0,0.0,0.0,0.0,0.0,0.0,0.0,0.0,0.0,0.0,0.0,0.0,0.0,0.0,0.0,0.0,0.0,0.0,0.0,0.0,0.0,0.0,0.0,0.0,0.0,0.0,0.0,0.0,0.0,0.0,0.0,0.0,0.0,0.0,0.0,0.0,0.0,0.0,0.0,0.0,0.0,0.0,0.0,0.0,0.0,0.0,0.0,0.0,0.0,0.0,0.0,0.0,0.0,0.0,0.0,0.0,0.0,0.0,0.0,0.0,0.0,0.0,0.0,0.0,0.0,0.0,0.0,0.0,0.0,-1.7373,-1.5869,-1.4883,-1.4434,-1.4707,-1.4453,0.0,0.0,0.0,0.0,0.0,0.0,0.0,0.0,0.0,0.0,0.0,0.0,0.0,0.0,0.0,0.0,0.0,0.0,0.0,0.0,0.0,0.0,0.0,0.0,0.0,0.0,0.0,0.0,0.0,0.0,0.0,0.0,0.0,0.0,0.0,0.0,0.0,0.0,0.0,0.0,0.0,0.0,0.0,0.0,0.0,0.0,0.0,0.0,0.0,0.0,0.0,0.0,0.0,0.0,0.0,0.0,0.0,0.0,0.0,0.0,0.0,0.0,0.0,0.0,0.0,0.0,0.0,0.0,0.0,0.0,0.0,0.0,0.0,0.0,0.0,0.0,0.0,0.0,0.0,0.0,0.0,0.0,0.0,0.0,0.0,0.0,0.0,0.0,0.0,0.0,0.0,0.0,0.0,0.0,0.0,0.0,0.0,0.0,0.0,0.0,0.0,0.0,0.0,0.0,0.0,0.0,0.0,0.0,0.0,-1.7468,-1.8154,-1.8066,-1.7031,-1.6172,-1.5322,0.0,0.0,0.0,0.0,0.0,0.0,0.0,0.0,0.0,0.0,0.0,0.0,0.0,0.0,0.0,0.0,0.0,0.0,0.0,0.0,0.0,0.0,0.0,0.0,0.0,0.0,0.0,0.0,0.0,0.0,0.0,0.0,0.0,0.0,0.0,0.0,0.0,0.0,0.0,0.0,0.0,0.0,0.0,0.0,0.0,0.0,0.0,0.0,0.0,0.0,0.0,0.0,0.0,0.0,0.0,0.0,0.0,0.0,0.0,0.0,0.0,0.0,0.0,0.0,0.0,0.0,0.0,0.0,0.0,0.0,0.0,0.0,0.0,0.0,0.0,0.0,0.0,0.0,0.0,0.0,0.0,0.0,0.0,0.0,0.0,0.0,0.0,0.0,0.0,0.0,0.0,0.0,0.0,0.0,0.0,0.0,0.0,0.0,0.0,0.0,0.0,0.0,0.0,0.0,0.0,0.0,0.0,0.0,-1.8685,-1.792,-1.9766,-2.0303,-1.9385,-1.8281,-1.6934,0.0,0.0,0.0,0.0,0.0,0.0,0.0,0.0,0.0,0.0,0.0,0.0,0.0,0.0,0.0,0.0,0.0,0.0,0.0,0.0,0.0,0.0,0.0,0.0,0.0,0.0,0.0,0.0,0.0,0.0,0.0,0.0,0.0,0.0,0.0,0.0,0.0,0.0,0.0,0.0,0.0,0.0,0.0,0.0,0.0,0.0,0.0,0.0,0.0,0.0,0.0,0.0,0.0,0.0,0.0,0.0,0.0,0.0,0.0,0.0,0.0,0.0,0.0,0.0,0.0,0.0,0.0,0.0,0.0,0.0,0.0,0.0,0.0,0.0,0.0,0.0,0.0,0.0,0.0,0.0,0.0,0.0,0.0,0.0,0.0,0.0,0.0,0.0,0.0,0.0,0.0,0.0,0.0,0.0,0.0,0.0,0.0,0.0,0.0,0.0,0.0,0.0,0.0,0.0,0.0,0.0,0.0,0.0,-1.9471,-1.8721,-2.0869,-2.1807,-2.1357,-2.042,-1.875,0.0,0.0,0.0,0.0,0.0,0.0,0.0,0.0,0.0,0.0,0.0,0.0,0.0,0.0,0.0,0.0,0.0,0.0,0.0,0.0,0.0,0.0,0.0,0.0,0.0,0.0,0.0,0.0,0.0,0.0,0.0,0.0,0.0,0.0,0.0,0.0,0.0,0.0,0.0,0.0,0.0,0.0,0.0,0.0,0.0,0.0,0.0,0.0,0.0,0.0,0.0,0.0,0.0,0.0,0.0,0.0,0.0,0.0,0.0,0.0,0.0,0.0,0.0,0.0,0.0,0.0,0.0,0.0,0.0,0.0,0.0,0.0,0.0,0.0,0.0,0.0,0.0,0.0,0.0,0.0,0.0,0.0,0.0,0.0,0.0,0.0,0.0,0.0,0.0,0.0,0.0,0.0,0.0,0.0,0.0,0.0,0.0,0.0,0.0,0.0,0.0,0.0,0.0,0.0,0.0,0.0,0.0,0.0,-1.9554,-1.9189,-2.1592,-2.2676,-2.2236,-2.0723,-1.9023,0.0,0.0,0.0,0.0,0.0,0.0,0.0,0.0,0.0,0.0,0.0,0.0,0.0,0.0,0.0,0.0,0.0,0.0,0.0,0.0,0.0,0.0,0.0,0.0,0.0,0.0,0.0,0.0,0.0,0.0,0.0,0.0,0.0,0.0,0.0,0.0,0.0,0.0,0.0,0.0,0.0,0.0,0.0,0.0,0.0,0.0,0.0,0.0,-1.5937,0.0,0.0,0.0,0.0,0.0,0.0,0.0,0.0,0.0,0.0,0.0,0.0,0.0,0.0,0.0,0.0,0.0,0.0,0.0,0.0,0.0,0.0,0.0,0.0,0.0,0.0,0.0,0.0,0.0,0.0,0.0,0.0,0.0,0.0,0.0,0.0,0.0,0.0,0.0,0.0,0.0,0.0,0.0,0.0,0.0,0.0,0.0,0.0,0.0,0.0,0.0,0.0,0.0,0.0,0.0,0.0,0.0,0.0,0.0,-1.9798,-1.9987,-2.2021,-2.3027,-2.2764,-2.1328,-1.9824,0.0,0.0,0.0,0.0,0.0,0.0,0.0,0.0,0.0,0.0,0.0,0.0,0.0,0.0,0.0,0.0,0.0,0.0,0.0,0.0,0.0,0.0,0.0,0.0,0.0,0.0,0.0,0.0,0.0,0.0,0.0,0.0,0.0,0.0,0.0,0.0,0.0,0.0,0.0,0.0,0.0,0.0,0.0,0.0,0.0,0.0,0.0,0.0,0.0,0.0,0.0,0.0,0.0,0.0,0.0,0.0,0.0,0.0,0.0,0.0,0.0,0.0,0.0,0.0,0.0,0.0,0.0,0.0,0.0,0.0,0.0,0.0,0.0,0.0,0.0,0.0,0.0,0.0,0.0,0.0,0.0,0.0,0.0,0.0,0.0,0.0,0.0,0.0,0.0,0.0,0.0,0.0,0.0,0.0,0.0,0.0,0.0,0.0,0.0,0.0,0.0,0.0,0.0,0.0,0.0,0.0,0.0,-1.9507,-2.0073,-2.0732,-2.2295,-2.3144,-2.3028,-2.1963,-2.0752,-1.9521,0.0,0.0,0.0,0.0,0.0,0.0,0.0,0.0,0.0,0.0,0.0,0.0,0.0,0.0,0.0,0.0,0.0,0.0,0.0,0.0,0.0,0.0,0.0,0.0,0.0,0.0,0.0,0.0,0.0,0.0,0.0,0.0,0.0,0.0,0.0,0.0,0.0,0.0,-1.5915,-1.5418,0.0,0.0,0.0,0.0,0.0,0.0,0.0,0.0,-1.6083,0.0,0.0,0.0,0.0,0.0,0.0,0.0,0.0,0.0,0.0,0.0,0.0,0.0,0.0,0.0,0.0,0.0,0.0,0.0,0.0,0.0,0.0,0.0,0.0,0.0,0.0,0.0,0.0,0.0,0.0,0.0,0.0,0.0,0.0,0.0,0.0,0.0,0.0,0.0,0.0,0.0,0.0,0.0,0.0,0.0,0.0,0.0,0.0,0.0,0.0,0.0,0.0,0.0,0.0,0.0,0.0,-1.9448,-1.9656,-2.0205,-2.1094,-2.2441,-2.3144,-2.3115,-2.2256,-2.1328,-2.0342,0.0,0.0,0.0,0.0,0.0,0.0,0.0,0.0,0.0,0.0,0.0,0.0,0.0,0.0,0.0,0.0,0.0,0.0,0.0,0.0,0.0,0.0,0.0,0.0,0.0,0.0,0.0,0.0,0.0,0.0,0.0,0.0,0.0,0.0,0.0,0.0,0.0,0.0,0.0,-1.7048,-1.7093,0.0,0.0,0.0,0.0,0.0,0.0,0.0,0.0,-1.5257,0.0,0.0,0.0,0.0,0.0,0.0,0.0,0.0,0.0,0.0,0.0,0.0,0.0,0.0,0.0,0.0,0.0,0.0,0.0,0.0,0.0,0.0,0.0,0.0,0.0,0.0,0.0,0.0,0.0,0.0,0.0,0.0,0.0,0.0,0.0,0.0,0.0,0.0,0.0,0.0,0.0,0.0,0.0,0.0,0.0,0.0,0.0,0.0,0.0,0.0,0.0,0.0,0.0,0.0,0.0,-1.9805,-1.9815,-2.0358,-2.1514,-2.2598,-2.3144,-2.3115,-2.1885,-2.1103,0.0,0.0,0.0,0.0,0.0,0.0,0.0,0.0,0.0,0.0,0.0,0.0,0.0,0.0,0.0,0.0,0.0,0.0,0.0,0.0,0.0,0.0,0.0,0.0,0.0,0.0,0.0,0.0,0.0,0.0,0.0,0.0,0.0,0.0,0.0,0.0,0.0,0.0,0.0,0.0,-1.7769,-1.7512,-1.7497,0.0,0.0,0.0,0.0,0.0,0.0,-1.6078,-1.5649,0.0,0.0,0.0,0.0,0.0,0.0,0.0,0.0,0.0,0.0,0.0,0.0,0.0,0.0,0.0,0.0,0.0,0.0,0.0,0.0,0.0,0.0,0.0,0.0,0.0,0.0,0.0,0.0,0.0,0.0,0.0,0.0,0.0,0.0,0.0,0.0,0.0,0.0,0.0,0.0,0.0,0.0,0.0,0.0,0.0,0.0,0.0,0.0,0.0,0.0,0.0,0.0,0.0,0.0,0.0,-2.0324,-2.0107,-2.0703,-2.2007,-2.2744,-2.3144,-2.3115,-2.1719,-2.1045,0.0,0.0,0.0,0.0,0.0,0.0,0.0,0.0,0.0,0.0,0.0,0.0,0.0,0.0,0.0,0.0,0.0,0.0,0.0,0.0,0.0,0.0,0.0,0.0,0.0,0.0,0.0,0.0,0.0,0.0,0.0,0.0,0.0,0.0,0.0,0.0,0.0,0.0,0.0,0.0,0.0,-1.8124,-1.8181,-1.8041,0.0,0.0,0.0,0.0,-1.7465,-1.7011,0.0,0.0,0.0,0.0,0.0,0.0,0.0,0.0,0.0,0.0,0.0,0.0,0.0,0.0,0.0,0.0,0.0,0.0,0.0,0.0,0.0,0.0,0.0,0.0,0.0,0.0,0.0,0.0,0.0,0.0,0.0,0.0,0.0,0.0,0.0,0.0,0.0,0.0,0.0,0.0,0.0,0.0,0.0,0.0,0.0,0.0,0.0,0.0,0.0,0.0,0.0,0.0,0.0,0.0,0.0,0.0,-2.0731,-2.0849,-2.1389,-2.2353,-2.29,-2.3144,-2.3135,-2.2588,-2.1953,0.0,0.0,0.0,0.0,0.0,0.0,0.0,0.0,0.0,0.0,0.0,0.0,0.0,0.0,0.0,0.0,0.0,0.0,0.0,0.0,0.0,0.0,0.0,0.0,0.0,0.0,0.0,0.0,0.0,0.0,0.0,0.0,0.0,0.0,0.0,0.0,0.0,0.0,0.0,0.0,0.0,-1.9979,-2.0243,-1.9291,-1.8456,0.0,0.0,0.0,-1.8279,-1.8292,0.0,0.0,0.0,0.0,0.0,0.0,0.0,0.0,0.0,0.0,0.0,0.0,0.0,0.0,0.0,0.0,0.0,0.0,0.0,0.0,0.0,0.0,0.0,0.0,0.0,0.0,0.0,0.0,0.0,0.0,0.0,0.0,0.0,0.0,0.0,0.0,0.0,0.0,0.0,0.0,0.0,0.0,0.0,0.0,0.0,0.0,0.0,0.0,0.0,0.0,0.0,0.0,0.0,0.0,0.0,-2.0372,-2.127,-2.1102,-2.1521,-2.2441,-2.292,-2.3144,-2.3135,-2.1777,-2.1211,0.0,0.0,0.0,0.0,0.0,0.0,0.0,0.0,0.0,0.0,0.0,0.0,0.0,0.0,0.0,0.0,0.0,0.0,0.0,0.0,0.0,0.0,0.0,0.0,0.0,0.0,0.0,0.0,0.0,0.0,0.0,0.0,0.0,0.0,0.0,0.0,0.0,0.0,0.0,0.0,0.0,0.0,-2.0881,-2.0249,0.0,0.0,0.0,-1.8685,-1.9254,0.0,0.0,0.0,0.0,0.0,0.0,0.0,0.0,0.0,0.0,0.0,0.0,0.0,0.0,0.0,0.0,0.0,0.0,0.0,0.0,0.0,0.0,0.0,0.0,0.0,0.0,0.0,0.0,0.0,0.0,0.0,0.0,0.0,0.0,0.0,0.0,0.0,0.0,0.0,0.0,0.0,0.0,0.0,0.0,0.0,0.0,0.0,0.0,0.0,0.0,0.0,0.0,0.0,0.0,0.0,0.0,0.0,-2.1485,-2.1084,-2.1459,-2.2607,-2.2978,-2.3144,-2.3105,-2.125,0.0,0.0,0.0,0.0,0.0,0.0,0.0,0.0,0.0,0.0,0.0,0.0,0.0,0.0,0.0,0.0,0.0,0.0,0.0,0.0,0.0,0.0,0.0,0.0,0.0,0.0,0.0,0.0,0.0,0.0,0.0,0.0,0.0,0.0,0.0,0.0,0.0,0.0,0.0,0.0,0.0,0.0,-2.1585,-2.1483,-2.1631,-2.1511,0.0,0.0,-2.0292,-2.0205,-1.998,-1.9717,0.0,0.0,0.0,0.0,0.0,0.0,0.0,0.0,0.0,0.0,0.0,0.0,0.0,0.0,0.0,0.0,0.0,0.0,0.0,0.0,0.0,0.0,0.0,0.0,0.0,0.0,0.0,0.0,0.0,0.0,0.0,0.0,0.0,0.0,0.0,0.0,0.0,0.0,0.0,0.0,0.0,0.0,0.0,0.0,0.0,0.0,0.0,0.0,0.0,0.0,0.0,0.0,0.0,0.0,0.0,-2.0969,-2.0741,-2.1438,-2.3018,-2.3125,-2.3144,-2.3125,-2.1836,-2.1367,0.0,0.0,0.0,0.0,0.0,0.0,0.0,0.0,0.0,0.0,0.0,0.0,0.0,0.0,0.0,0.0,0.0,0.0,0.0,0.0,0.0,0.0,0.0,0.0,0.0,0.0,0.0,0.0,0.0,0.0,0.0,0.0,0.0,0.0,0.0,0.0,0.0,0.0,0.0,0.0,0.0,-2.3409,-2.2264,-2.37,-2.4238,0.0,0.0,-2.2711,-2.1351,-2.2006,-2.2305,-2.0732,0.0,0.0,0.0,0.0,0.0,0.0,0.0,0.0,0.0,0.0,0.0,0.0,0.0,0.0,0.0,0.0,0.0,0.0,0.0,0.0,0.0,0.0,0.0,0.0,0.0,0.0,0.0,0.0,0.0,0.0,0.0,0.0,0.0,0.0,0.0,0.0,0.0,0.0,0.0,0.0,0.0,0.0,0.0,0.0,0.0,0.0,0.0,0.0,0.0,0.0,0.0,0.0,0.0,-2.0133,-2.153,-2.0931,-2.1396,-2.3047,-2.3144,-2.3144,-2.3144,-2.1904,-2.1182,0.0,0.0,0.0,0.0,0.0,0.0,0.0,0.0,0.0,0.0,0.0,0.0,0.0,0.0,0.0,0.0,0.0,0.0,0.0,0.0,0.0,0.0,0.0,0.0,0.0,0.0,0.0,0.0,-1.7004,-1.661,-1.7523,0.0,0.0,0.0,0.0,0.0,0.0,0.0,0.0,0.0,0.0,-2.2495,-2.3363,-2.3504,0.0,0.0,-2.3363,-2.2689,-2.2124,-2.1982,-2.1738,-2.1084,-2.0459,0.0,0.0,0.0,0.0,0.0,0.0,0.0,0.0,0.0,0.0,0.0,0.0,0.0,0.0,0.0,0.0,0.0,0.0,0.0,0.0,0.0,0.0,0.0,0.0,0.0,0.0,0.0,0.0,0.0,0.0,0.0,0.0,0.0,0.0,0.0,0.0,0.0,0.0,0.0,0.0,0.0,0.0,0.0,0.0,0.0,0.0,0.0,0.0,0.0,0.0,0.0,0.0,-2.0004,-2.1507,-2.0944,-2.1396,-2.3105,-2.3144,-2.3144,-2.3105,-2.2031,-2.1221,0.0,0.0,0.0,0.0,0.0,0.0,0.0,0.0,0.0,0.0,0.0,0.0,0.0,0.0,0.0,0.0,0.0,0.0,0.0,0.0,0.0,0.0,0.0,0.0,0.0,0.0,0.0,0.0,-1.7678,-1.7549,-1.8143,0.0,0.0,0.0,0.0,0.0,0.0,0.0,0.0,0.0,0.0,-2.2277,-2.3863,-2.4138,-2.4405,-2.5047,-2.436,-2.3432,-2.2781,-2.2197,-2.1719,-2.1475,0.0,0.0,0.0,0.0,0.0,0.0,0.0,0.0,0.0,0.0,0.0,0.0,0.0,0.0,0.0,0.0,0.0,0.0,0.0,0.0,0.0,0.0,0.0,0.0,0.0,0.0,0.0,0.0,0.0,0.0,0.0,0.0,0.0,0.0,0.0,0.0,0.0,0.0,0.0,0.0,0.0,0.0,0.0,0.0,0.0,0.0,0.0,0.0,0.0,0.0,0.0,0.0,0.0,0.0,-2.0615,-2.0664,-2.1406,-2.3076,-2.3144,-2.3144,-2.3125,-2.2314,-2.167,-2.1201,0.0,0.0,0.0,0.0,0.0,0.0,0.0,0.0,0.0,0.0,0.0,0.0,0.0,0.0,0.0,0.0,0.0,0.0,0.0,0.0,0.0,0.0,0.0,0.0,0.0,0.0,-1.894,-1.8633,-1.8849,0.0,0.0,0.0,0.0,0.0,0.0,0.0,0.0,0.0,0.0,-2.1925,-2.3503,-2.3745,-2.6116,-2.7197,-2.5846,-2.6043,-2.5619,-2.3454,-2.3086,-2.2822,0.0,0.0,0.0,0.0,0.0,0.0,0.0,0.0,0.0,0.0,0.0,0.0,0.0,0.0,0.0,0.0,0.0,0.0,0.0,0.0,0.0,0.0,0.0,0.0,0.0,0.0,0.0,-1.7407,-1.7805,0.0,0.0,0.0,0.0,0.0,0.0,0.0,0.0,0.0,0.0,0.0,-1.8447,-1.8867,0.0,0.0,0.0,0.0,0.0,0.0,0.0,0.0,0.0,0.0,0.0,0.0,-1.9558,-2.0928,-2.1016,-2.1699,-2.3086,-2.3144,-2.3144,-2.3144,-2.2598,-2.1826,-2.082,0.0,0.0,0.0,0.0,0.0,0.0,0.0,0.0,0.0,0.0,0.0,0.0,0.0,0.0,0.0,0.0,0.0,0.0,0.0,0.0,0.0,0.0,0.0,0.0,0.0,-1.956,0.0,0.0,0.0,0.0,0.0,0.0,0.0,0.0,0.0,0.0,0.0,-2.0333,-1.9596,-2.0724,-2.2229,-2.394,-2.496,-2.5931,0.0,0.0,0.0,0.0,0.0,0.0,0.0,0.0,0.0,0.0,0.0,0.0,0.0,0.0,-2.0961,-2.0053,-1.9837,-1.9916,-2.069,0.0,0.0,0.0,0.0,0.0,0.0,0.0,0.0,0.0,0.0,0.0,0.0,0.0,0.0,0.0,0.0,-1.7836,0.0,0.0,0.0,0.0,0.0,0.0,0.0,0.0,-1.8769,-1.9307,-1.9736,-2.001,-2.0059,0.0,-1.9951,-1.9375,0.0,0.0,0.0,0.0,0.0,0.0,0.0,0.0,-1.9717,-2.0947,-2.1309,-2.2002,-2.3076,-2.3144,-2.3144,-2.3125,-2.2588,-2.1894,-2.1055,-1.9912,-1.917,0.0,0.0,0.0,0.0,0.0,0.0,0.0,0.0,0.0,0.0,0.0,0.0,0.0,0.0,0.0,0.0,0.0,0.0,0.0,0.0,0.0,0.0,0.0,-1.932,0.0,0.0,0.0,0.0,0.0,0.0,0.0,0.0,0.0,-2.1527,-2.0734,-2.002,-1.9762,-2.0342,-2.1625,-2.3809,0.0,0.0,0.0,0.0,0.0,0.0,0.0,-2.5284,-2.4376,-2.4271,-2.406,-2.3493,-2.271,-2.2109,-2.21,0.0,0.0,-2.0176,-1.9863,-1.9954,-2.066,-2.0818,-2.091,-2.112,-2.1707,-2.2392,0.0,0.0,0.0,0.0,0.0,0.0,0.0,0.0,-1.917,-1.9551,0.0,-1.9023,0.0,0.0,0.0,0.0,0.0,0.0,0.0,0.0,-1.9775,-2.0205,-2.0615,-2.0762,-2.0459,-2.0107,-2.0918,-2.084,-1.9932,-1.874,0.0,0.0,0.0,0.0,0.0,0.0,-2.0146,-2.0644,-2.1475,-2.2305,-2.3105,-2.3144,-2.3144,-2.3115,-2.2363,-2.1934,-2.1846,-2.1035,-2.0205,-1.9375,-1.8685,0.0,0.0,0.0,0.0,0.0,0.0,0.0,0.0,0.0,0.0,0.0,0.0,0.0,0.0,0.0,0.0,0.0,0.0,0.0,0.0,-1.8903,0.0,0.0,0.0,0.0,0.0,0.0,0.0,0.0,0.0,0.0,-2.0803,-1.9968,-1.9678,-2.0527,0.0,0.0,0.0,0.0,-2.6199,-2.5856,-2.7557,-2.8539,-2.7572,-2.7786,-2.8008,-2.7533,0.0,0.0,-2.537,-2.3699,-2.2703,-2.2588,-2.2598,-2.2314,-2.1514,-2.1602,-2.1689,-2.1338,-2.124,-2.1269,-2.1269,-2.1253,-2.1222,-2.2568,0.0,0.0,0.0,0.0,-2.0752,-2.0605,-2.0498,-2.0615,-2.0566,-2.0342,-1.9795,0.0,0.0,0.0,0.0,0.0,0.0,-1.9668,-2.0244,-2.0977,-2.1543,-2.1973,-2.2578,-2.2793,-2.2695,-2.2637,-2.2168,-2.1318,-2.0644,-2.0205,-1.999,0.0,0.0,0.0,0.0,-2.0439,-2.1465,-2.2051,-2.2598,-2.3135,-2.3144,-2.3144,-2.3135,-2.29,-2.25,-2.1914,-2.1641,-2.1103,-2.0254,-1.9086,0.0,0.0,0.0,0.0,0.0,0.0,0.0,0.0,0.0,0.0,0.0,0.0,0.0,0.0,0.0,0.0,0.0,0.0,0.0,-2.0192,-1.9797,-1.9795,0.0,0.0,0.0,0.0,0.0,0.0,0.0,0.0,0.0,-2.163,-2.1292,-2.1338,0.0,0.0,-2.2347,-2.4127,-2.4679,-2.5563,-2.7662,0.0,0.0,0.0,-2.9233,-2.9025,-2.8105,-2.8203,-2.7944,-2.6578,-2.5913,-2.5288,-2.4106,-2.3867,-2.3779,-2.3535,-2.2832,-2.2344,-2.2168,-2.2148,-2.2256,-2.2519,-2.2715,-2.3275,-2.4883,-2.335,-2.2568,-2.2207,-2.2139,-2.2217,-2.2051,-2.1768,-2.21,-2.21,-2.1787,-2.1035,-2.0781,-2.0898,-2.0137,0.0,0.0,0.0,-2.0928,-2.1367,-2.2236,-2.2861,-2.3291,-2.3789,-2.4043,-2.4023,-2.3779,-2.3398,-2.2881,-2.2461,-2.2197,-2.2031,0.0,0.0,-2.081,-2.0908,-2.1338,-2.2119,-2.2715,-2.3144,-2.3389,-2.3232,-2.3144,-2.3144,-2.3144,-2.2891,-2.2402,-2.2227,-2.1816,-2.1113,-1.9692,-1.856,0.0,0.0,0.0,0.0,0.0,0.0,0.0,0.0,0.0,0.0,0.0,-1.7959,0.0,0.0,0.0,0.0,-1.9131,-1.9707,-2.0742,-2.043,0.0,0.0,0.0,0.0,0.0,0.0,0.0,-2.1222,-2.223,-2.2744,-2.2212,-2.2285,-2.2422,-2.251,-2.2285,-2.2685,-2.4191,0.0,-2.5592,-2.813,-2.9093,-2.9786,-3.0627,-3.0955,-3.0834,-3.0209,-2.9834,-2.9498,-2.8778,-2.7737,-2.6618,-2.5645,-2.503,-2.4678,-2.4678,-2.417,-2.3662,-2.335,-2.3271,-2.3359,-2.3603,-2.3857,-2.4293,-2.6738,-2.5889,-2.4707,-2.3652,-2.2861,-2.3613,-2.3496,-2.2842,-2.3603,-2.3926,-2.3799,-2.2617,-2.2266,-2.248,-2.1309,0.0,0.0,-2.167,-2.2266,-2.2705,-2.3506,-2.4111,-2.4521,-2.456,-2.459,-2.4629,-2.4629,-2.46,-2.4551,-2.4189,-2.417,-2.4453,-2.2529,-2.1504,-2.1484,-2.2197,-2.2588,-2.2627,-2.3428,-2.3838,-2.3838,-2.3418,-2.3193,-2.3193,-2.3154,-2.3144,-2.3125,-2.2764,-2.2363,-2.1943,-2.0576,-1.9799,-1.9802,0.0,0.0,0.0,0.0,0.0,0.0,0.0,0.0,0.0,0.0,0.0,0.0,0.0,0.0,0.0,-1.9414,0.0,-2.1221,-2.0937,0.0,0.0,0.0,-2.1924,-2.1894,-2.1943,-2.1973,-2.1943,0.0,0.0,0.0,0.0,-2.3008,-2.2656,-2.2617,-2.293,-2.3769,-2.4723,-2.5974,-2.7743,-2.9242,-3.0709,-3.1916,-3.2582,-3.2882,-3.2784,-3.2152,-3.1288,-3.0986,-2.9139,-2.7419,-2.7123,-2.6123,-2.5307,-2.5307,-2.5467,-2.5478,-2.4629,-2.4463,-2.4453,-2.4434,-2.4453,-2.4492,-2.8643,-2.8135,-2.7832,-2.6641,-2.499,-2.5195,-2.5156,-2.499,-2.5185,-2.5078,-2.4717,-2.4092,-2.3516,-2.2969,-2.2666,-2.2705,-2.3037,-2.3232,-2.3564,-2.3984,-2.4521,-2.5,-2.543,-2.5762,-2.6094,-2.6377,-2.6396,-2.623,-2.5928,-2.581,-2.5654,-2.5391,-2.456,-2.3838,-2.3203,-2.3076,-2.3164,-2.3486,-2.3994,-2.4277,-2.4258,-2.3857,-2.3623,-2.3633,-2.331,-2.3144,-2.3135,-2.3047,-2.2793,-2.2383,-2.1704,-2.0733,-1.9427,-1.9837,0.0,0.0,0.0,0.0,0.0,0.0,0.0,0.0,0.0,-1.9434,-1.9736,0.0,-2.0254,0.0,-2.0576,-2.1162,-2.2109,-2.1826,0.0,0.0,-2.2363,-2.2236,-2.1924,-2.2451,-2.2725,-2.2402,-2.2725,-2.2988,-2.2988,-2.3076,-2.3223,-2.3447,-2.3486,-2.3799,-2.4619,-2.4657,-2.5562,-2.8044,-2.8967,-3.0068,-3.2327,-3.2968,-3.3081,-3.3081,-3.2797,-3.2339,-3.1311,-3.0672,-2.9862,-2.8954,-2.7774,-2.7044,-2.7034,-2.633,-2.5664,-2.5439,-2.5156,-2.4912,-2.4922,-2.4912,-2.501,-2.96,-2.9219,-2.9209,-2.8525,-2.7412,-2.7031,-2.666,-2.6328,-2.6514,-2.6348,-2.5908,-2.5478,-2.4922,-2.4307,-2.4297,-2.4424,-2.4668,-2.4863,-2.5078,-2.5312,-2.5732,-2.6064,-2.6318,-2.6553,-2.6787,-2.7012,-2.7012,-2.6894,-2.668,-2.667,-2.6543,-2.6309,-2.6055,-2.5703,-2.5205,-2.4228,-2.4121,-2.4941,-2.499,-2.4902,-2.4697,-2.4102,-2.3877,-2.4043,-2.3467,-2.3144,-2.3144,-2.2959,-2.2754,-2.2519,-2.2109,-2.1501,-2.0693,-2.0542,-1.9607,0.0,0.0,0.0,0.0,0.0,0.0,0.0,0.0,0.0,0.0,0.0,-2.1025,0.0,0.0,0.0,-2.2705,-2.2412,-2.2334,-2.2744,-2.2793,-2.2705,-2.2461,-2.2852,-2.3047,-2.2822,-2.2998,-2.3144,-2.3144,-2.331,-2.3584,-2.4014,-2.4238,-2.4521,-2.4932,-2.4853,-2.5756,-2.8553,-2.9094,-2.9993,-3.2673,-3.3081,-3.3081,-3.3081,-3.3081,-3.2884,-3.2152,-3.1577,-3.0944,-3.0316,-2.9212,-2.8412,-2.8319,-2.74,-2.6572,-2.6446,-2.5912,-2.5391,-2.5371,-2.5371,-2.5545,-3.0078,-2.9736,-2.9736,-2.9707,-2.959,-2.8848,-2.8086,-2.7373,-2.7744,-2.7666,-2.7236,-2.6816,-2.6396,-2.5986,-2.5928,-2.5898,-2.5928,-2.6289,-2.6465,-2.6494,-2.6904,-2.71,-2.71,-2.7158,-2.7168,-2.7178,-2.7226,-2.7256,-2.7266,-2.7314,-2.7334,-2.7334,-2.7226,-2.7207,-2.7187,-2.5586,-2.5322,-2.6435,-2.6094,-2.5713,-2.5312,-2.4473,-2.4189,-2.4443,-2.3672,-2.3174,-2.3057,-2.2754,-2.2568,-2.25,-2.2168,-2.2139,-2.2471,-2.0847,-1.9507,0.0,-1.8156,0.0,0.0,0.0,0.0,0.0,0.0,0.0,0.0,-2.1367,-2.1728,-2.2529,-2.2266,-2.2344,-2.3066,-2.2812,-2.2734,-2.3096,-2.3144,-2.3144,-2.3144,-2.3144,-2.3144,-2.3144,-2.3144,-2.3144,-2.3154,-2.3516,-2.3935,-2.4336,-2.4746,-2.5039,-2.5156,-2.5166,-2.6192,-2.8995,-2.9681,-3.092,-3.2612,-3.3081,-3.3081,-3.3081,-3.3081,-3.3081,-3.3081,-3.2239,-3.15,-3.1311,-3.0496,-2.9681,-2.9579,-2.8495,-2.7683,-2.7767,-2.6819,-2.5974,-2.5693,-2.5693,-2.611,-3.0713,-3.0644,-3.0635,-3.042,-3.0068,-2.9902,-2.9551,-2.9092,-2.918,-2.8965,-2.8535,-2.8115,-2.7695,-2.7285,-2.6934,-2.6777,-2.6777,-2.6865,-2.6904,-2.6914,-2.7344,-2.7539,-2.7559,-2.7891,-2.8047,-2.8066,-2.8398,-2.8564,-2.8564,-2.8916,-2.9082,-2.9062,-2.8389,-2.8223,0.0,0.0,0.0,0.0,-2.6816,-2.6728,-2.6621,-2.581,-2.5234,-2.4941,-2.4121,0.0,-2.2685,-2.2891,-2.2871,-2.2529,-2.2432,0.0,0.0,0.0,0.0,0.0,0.0,0.0,0.0,0.0,0.0,0.0,-2.0707,-2.1062,-2.1724,-2.207,-2.248,-2.2959,-2.2939,-2.2969,-2.3038,-2.3066,-2.3057,-2.3125,-2.3144,-2.3144,-2.3144,-2.3144,-2.3144,-2.3144,-2.3144,-2.3144,-2.3184,-2.3525,-2.3945,-2.4394,-2.4795,-2.5195,-2.5547,-2.5586,-2.6557,-2.8936,-3.0968,-3.2426,-3.2982,-3.3081,-3.3081,-3.3081,-3.3081,-3.3081,-3.3081,-3.2982,-3.2711,-3.2711,-3.1689,-3.0855,-3.0855,-2.9143,-2.7945,-2.8866,-2.8038,-2.6945,-2.5927,-2.5732,-2.5732,-3.1396,0.0,-3.1201,-3.0947,0.0,-3.0547,-3.042,-3.0185,-2.9756,-2.9443,-2.9228,-2.9014,-2.8809,-2.8594,-2.8379,-2.8154,-2.7949,-2.7949,-2.7851,-2.7656,-2.7881,-2.8086,-2.8291,-2.8496,-2.8711,-2.8926,-2.9141,-2.9248,-2.9248,-2.9463,-2.958,-2.956,-2.9141,-2.8926,-2.8887,-2.8076,-2.7432,-2.7021,-2.7226,-2.7139,-2.6709,-2.6074,-2.5518,-2.5068,0.0,0.0,0.0,0.0,0.0,0.0,0.0,0.0,0.0,0.0,0.0,-2.0173,-1.9485,-1.8672,-1.7855,-1.8226,-1.9066,-2.0038,-2.1189,-2.2007,-2.2142,-2.2578,-2.291,-2.3115,-2.3144,-2.3144,-2.3144,-2.3144,-2.3144,-2.3144,-2.3144,-2.3144,-2.3154,-2.333,-2.3369,-2.3203,-2.333,-2.3457,-2.3467,-2.3828,-2.4258,-2.4687,-2.5127,-2.5651,-2.6416,-2.6668,-2.7484,-2.9852,-3.1789,-3.3081,-3.3081,-3.3081,-3.3081,-3.3081,-3.3081,-3.3081,-3.3081,-3.3081,-3.3081,-3.3081,-3.2513,-3.2152,-3.1965,-3.0135,-2.868,-2.9131,-2.8412,-2.7494,-2.6754,-2.6658,-2.6839,-3.1963,-3.1631,-3.1553,-3.1318,-3.0996,-3.0928,-3.0898,-3.085,0.0,0.0,0.0,-2.9717,-2.9678,-2.9678,-2.96,-2.9375,-2.9043,-2.9033,-2.8838,-2.8516,-2.8525,-2.8701,-2.9023,-2.9033,-2.9219,-2.956,-2.9648,-2.9678,-2.9687,-2.9756,-2.9805,-2.9795,-2.9726,-2.9463,-2.9033,-2.8613,-2.8057,-2.7402,-2.7637,-2.7432,-2.6748,-2.6299,-2.5869,-2.543,-2.458,-2.3896,-2.3398,-2.2969,-2.2705,-2.2627,-2.2617,-2.2783,-2.3105,-2.2812,-2.2226,-2.1337,-2.0004,-1.8905,-1.8118,-1.8948,-1.9579,-1.9761,-2.1863,-2.2988,-2.2646,-2.2939,-2.3144,-2.3144,-2.3144,-2.3144,-2.3144,-2.3144,-2.3144,-2.3144,-2.3203,-2.3262,-2.3281,-2.3633,-2.3769,-2.3467,-2.3691,-2.3906,-2.3916,-2.4277,-2.4658,-2.5019,-2.542,-2.6284,-2.7579,-2.8132,-2.8947,-3.0765,-3.2129,-3.2905,-3.2918,-3.2893,-3.293,-3.2867,-3.2993,-3.3081,-3.3081,-3.3081,-3.3081,-3.3081,-3.3081,-3.3081,-3.2896,-3.1235,-2.9772,-2.9681,-2.8773,-2.7955,-2.8132,-2.8049,-2.8226,-3.2139,-3.2051,-3.167,-3.1484,-3.1406,-3.1045,-3.0898,-3.0879,-3.0752,-3.0703,-3.0684,-3.0283,-3.0107,-3.0098,-2.9736,-2.9541,-2.9473,-2.9473,-2.9453,0.0,-2.9394,-2.9414,-2.9473,-2.9482,-2.9512,-2.959,-2.9932,-3.0107,-3.0146,-3.0508,-3.0703,-3.0644,-3.0312,-2.9893,-2.9482,-2.9043,-2.8769,-2.8652,-2.8359,-2.8144,-2.8018,-2.7607,-2.7187,-2.6738,-2.5898,-2.5078,-2.4268,-2.3838,-2.3437,-2.3096,-2.3057,-2.3076,-2.3125,-2.3096,-2.2522,-2.1382,-2.1051,-2.0425,-1.9306,-1.9397,-1.9943,-2.1025,-2.2306,-2.3115,-2.3066,-2.3105,-2.3144,-2.3144,-2.3144,-2.3144,-2.3144,-2.3144,-2.3164,-2.3184,-2.3477,-2.3691,-2.3711,-2.4062,-2.4287,-2.4189,-2.4287,-2.4336,-2.4365,-2.4687,-2.4971,-2.5117,-2.5747,-2.6562,-2.8588,-3.0045,-3.0765,-3.124,-3.1822,-3.2281,-3.2453,-3.234,-3.239,-3.2328,-3.2754,-3.3006,-3.3006,-3.3056,-3.3068,-3.3081,-3.3081,-3.3081,-3.3068,-3.1965,-3.0956,-3.0765,-2.9863,-2.9407,-3.0226,-2.9761,-2.9315,-3.2715,-3.249,-3.2295,-3.208,-3.1836,-3.1406,-3.1094,-3.0898,-3.0898,-3.0898,-3.0879,-3.0664,-3.0576,-3.0557,-3.0371,-3.0146,-2.9912,-2.9912,-2.9785,-2.958,-2.958,-2.9697,-2.9902,-2.9902,-3.0039,-3.0293,-3.0478,-3.0576,-3.0586,-3.0791,-3.0898,-3.0859,-3.042,-3.0098,-2.9893,-2.9482,-2.9277,-2.9258,-2.8633,-2.8184,-2.7959,-2.7764,-2.7353,-2.6699,-2.6279,-2.5801,-2.5156,-2.4717,-2.4394,-2.4199,-2.3965,-2.3828,-2.3828,-2.3828,-2.3442,-2.2664,-2.2016,-2.1364,-2.052,-2.0494,-2.1122,-2.2528,-2.321,-2.3594,-2.3818,-2.3408,-2.3144,-2.3144,-2.3144,-2.3144,-2.3154,-2.335,-2.3486,-2.3486,-2.3877,-2.4121,-2.418,-2.4512,-2.4668,-2.4492,-2.4629,-2.4766,-2.4766,-2.4951,-2.5185,-2.5477,-2.6557,-2.8121,-2.9315,-3.1045,-3.2239,-3.2302,-3.2487,-3.2619,-3.2641,-3.239,-3.224,-3.2202,-3.2428,-3.2591,-3.2641,-3.2817,-3.3056,-3.3081,-3.3081,-3.3081,-3.3081,-3.2052,-3.14,-3.1134,-3.0855,-3.0765,-3.1033,-3.1235,-3.0968,-3.3291,-3.3076,-3.2871,-3.2549,-3.2129,-3.1709,-3.1338,-3.1035,-3.0928,-3.0898,-3.0898,-3.0898,-3.0898,-3.0898,-3.0898,-3.0693,-3.0391,-3.0351,-3.0185,-2.9893,-2.9873,-3.0039,-3.0332,-3.0351,-3.0547,-3.0859,-3.0898,-3.0898,-3.0898,-3.0898,-3.0898,-3.0859,-3.0527,-3.0351,-3.0342,-2.9932,-2.9707,-2.9668,-2.8965,-2.8369,-2.7969,-2.7949,-2.7588,-2.6885,-2.6728,-2.6523,-2.6172,-2.5654,-2.5361,-2.5342,-2.4844,-2.457,-2.456,-2.4463,-2.4268,-2.3874,-2.3004,-2.2262,-2.1968,-2.1995,-2.2531,-2.3806,-2.3926,-2.4062,-2.4307,-2.3818,-2.3379,-2.331,-2.3408,-2.3418,-2.3379,-2.3672,-2.3935,-2.3955,-2.4307,-2.4551,-2.46,-2.4951,-2.5107,-2.4805,-2.501,-2.5215,-2.5215,-2.5225,-2.5361,-2.5915,-2.7851,-2.9304,-2.9681,-3.1512,-3.2982,-3.3056,-3.298,-3.283,-3.2855,-3.2528,-3.224,-3.2215,-3.2365,-3.2416,-3.2428,-3.2717,-3.293,-3.293,-3.2993,-3.3068,-3.2982,-3.2426,-3.1677,-3.1311,-3.1134,-3.1134,-3.1223,-3.214,-3.2326,-3.3623,-3.3818,-3.3115,-3.2559,-3.2129,-3.1709,-3.1494,-3.1387,-3.1055,-3.0898,-3.0898,-3.0898,-3.0898,-3.0898,-3.0898,-3.0859,-3.0801,-3.083,-3.0791,-3.0742,-3.0771,-3.0791,-3.0801,-3.082,-3.084,-3.0898,-3.0898,-3.0898,-3.0898,-3.0898,-3.0898,-3.0889,-3.084,-3.081,-3.0762,-3.0361,-3.0146,-3.0127,-2.9687,-2.9238,-2.8838,-2.8799,-2.8594,-2.8135,-2.7744,-2.7539,-2.7422,-2.6699,-2.6269,-2.6211,-2.5459,-2.5019,-2.498,-2.4648,-2.4404,-2.4355,-2.3913,-2.358,-2.357,-2.389,-2.4103,-2.4346,-2.4355,-2.4394,-2.4453,-2.4365,-2.4141,-2.3896,-2.4082,-2.4072,-2.3818,-2.4111,-2.4355,-2.4385,-2.4746,-2.5,-2.5059,-2.54,-2.5654,-2.5635,-2.5576,-2.5664,-2.5615,-2.5615,-2.5654,-2.5897,-2.7945,-2.9487,-2.9761,-3.1512,-3.3081,-3.2993,-3.2679,-3.239,-3.2378,-3.2277,-3.2177,-3.2227,-3.2629,-3.2604,-3.2416,-3.2591,-3.2968,-3.2742,-3.2792,-3.3068,-3.3081,-3.2896,-3.2513,-3.1677,-3.1412,-3.1311,-3.1311,-3.2239,-3.2339,-3.375,-3.3662,-3.331,-3.2773,-3.2178,-3.1973,-3.1611,-3.1133,-3.0967,-3.0898,-3.0898,-3.0898,-3.0898,-3.0898,-3.0898,-3.0898,-3.0898,-3.0898,-3.0898,-3.0898,-3.0898,-3.0898,-3.0898,-3.0898,-3.0898,-3.0898,-3.0898,-3.0898,-3.0898,-3.0898,-3.0898,-3.0898,-3.0898,-3.0898,-3.0879,-3.0703,-3.0605,-3.0605,-3.0439,-3.0137,-2.9697,-2.9434,-2.9101,-2.8701,-2.8496,-2.8281,-2.8018,-2.7451,-2.7139,-2.709,-2.6318,-2.585,-2.584,-2.5439,-2.5068,-2.4805,-2.4404,-2.416,-2.417,-2.4326,-2.4521,-2.4775,-2.4805,-2.4902,-2.5176,-2.5205,-2.501,-2.4629,-2.4473,-2.4326,-2.4219,-2.4541,-2.4805,-2.4863,-2.5195,-2.5459,-2.5469,-2.5625,-2.5732,-2.5732,-2.5732,-2.5732,-2.5732,-2.5732,-2.6004,-2.6754,-2.8412,-2.9498,-3.0406,-3.1965,-3.2982,-3.3056,-3.2855,-3.2754,-3.2692,-3.2403,-3.2139,-3.1938,-3.219,-3.2353,-3.2039,-3.2528,-3.2968,-3.2717,-3.2918,-3.3068,-3.3081,-3.3081,-3.2884,-3.2239,-3.2339,-3.2339,-3.2326,-3.2698,-3.2785,-3.3789,-3.3594,-3.3476,-3.3076,-3.25,-3.2256,-3.1885,-3.1406,-3.1172,-3.1123,-3.123,-3.1123,-3.1064,-3.1045,-3.0947,-3.0898,-3.0898,-3.0898,-3.0898,-3.0898,-3.0898,-3.0898,-3.0908,-3.1016,-3.1006,-3.0937,-3.1152,-3.1191,-3.1064,-3.0928,-3.0898,-3.0898,-3.0898,-3.0898,-3.0898,-3.0898,-3.0898,-3.0889,-3.0898,-3.0723,-3.0391,-3.0098,-2.9668,-2.916,-2.9101,-2.8945,-2.8652,-2.8232,-2.8008,-2.7988,-2.7197,-2.6738,-2.6719,-2.6318,-2.584,-2.5312,-2.4961,-2.4717,-2.4619,-2.4717,-2.4912,-2.5215,-2.5254,-2.5391,-2.5654,-2.5732,-2.5596,-2.5283,-2.4961,-2.4766,-2.4639,-2.499,-2.5234,-2.5273,-2.5566,-2.5732,-2.5723,-2.5732,-2.5732,-2.5732,-2.5732,-2.5732,-2.5732,-2.5732,-2.611,-2.74,-2.8588,-2.9863,-3.1045,-3.2239,-3.3081,-3.3081,-3.3068,-3.3068,-3.3043,-3.278,-3.2252,-3.2114,-3.234,-3.2353,-3.18,-3.2528,-3.2893,-3.2641,-3.2918,-3.3068,-3.3081,-3.3081,-3.3068,-3.3081,-3.3081,-3.2995,-3.2896,-3.3081,-3.3156,-3.3682,-3.3955,-3.3594,-3.3369,-3.3291,-3.2519,-3.2383,-3.248,-3.1826,-3.1709,-3.1963,-3.166,-3.1494,-3.1455,-3.1103,-3.0908,-3.0908,-3.0898,-3.0908,-3.0928,-3.0908,-3.0898,-3.0928,-3.1289,-3.1289,-3.1084,-3.168,-3.1816,-3.1455,-3.1103,-3.0898,-3.0898,-3.0898,-3.0898,-3.0898,-3.0898,-3.0898,-3.0898,-3.0898,-3.0869,-3.084,-3.082,-3.0371,-2.9668,-2.9541,-2.9521,-2.9434,-2.9082,-2.8848,-2.8848,-2.8027,-2.7588,-2.7549,-2.7158,-2.6543,-2.584,-2.5693,-2.5498,-2.5205,-2.5439,-2.5684,-2.5713,-2.5684,-2.5713,-2.5771,-2.5762,-2.5703,-2.5684,-2.5596,-2.543,-2.5146,-2.5381,-2.5635,-2.5654,-2.5693,-2.5732,-2.5732,-2.5732,-2.5732,-2.5732,-2.5732,-2.5732,-2.5732,-2.5732,-2.6476,-2.7589,-2.868,-2.9954,-3.1223,-3.2426,-3.2982,-3.3081,-3.3081,-3.3081,-3.3068,-3.2955,-3.2943,-3.2742,-3.2541,-3.2767,-3.2654,-3.2566,-3.2566,-3.2616,-3.288,-3.3031,-3.3068,-3.3081,-3.3081,-3.3081,-3.3081,-3.3081,-3.3081,-3.3081,-3.3156,-3.4004,-3.3652,-3.3486,-3.3271,-3.2988,-3.2695,-3.251,-3.2363,-3.208,-3.2012,-3.2119,-3.2002,-3.1934,-3.1914,-3.1484,-3.1289,-3.1269,-3.1025,-3.1035,-3.123,-3.1016,-3.1035,-3.1299,-3.1455,-3.1621,-3.1758,-3.2012,-3.1943,-3.1553,-3.1357,-3.1152,-3.0918,-3.0898,-3.0898,-3.0898,-3.0898,-3.0898,-3.0898,-3.0898,-3.0898,-3.0898,-3.0898,-3.0723,-3.042,-3.0127,-2.9844,-2.958,-2.9414,-2.9209,-2.8926,-2.8369,-2.7949,-2.7666,-2.7256,-2.6894,-2.6602,-2.6553,-2.6484,-2.6328,-2.6211,-2.6279,-2.6484,-2.6035,-2.5869,-2.6045,-2.5908,-2.5732,-2.5732,-2.5732,-2.5635,-2.5586,-2.5654,-2.5732,-2.5732,-2.5732,-2.5732,-2.5732,-2.5732,-2.5732,-2.5732,-2.5732,-2.5732,-2.582,-2.638,-2.74,-2.8588,-2.9772,-3.0956,-3.2064,-3.2884,-3.3081,-3.3081,-3.3081,-3.3081,-3.3081,-3.3081,-3.3018,-3.278,-3.2641,-3.2641,-3.2566,-3.2767,-3.283,-3.283,-3.3006,-3.3031,-3.3081,-3.3081,-3.3081,-3.3081,-3.3081,-3.3081,-3.3081,-3.3081,-3.3169,-3.3955,-3.3467,-3.3418,-3.3262,-3.2998,-3.2851,-3.2715,-3.2549,-3.2432,-3.2373,-3.2353,-3.2236,-3.2168,-3.21,-3.1709,-3.1699,-3.1846,-3.1377,-3.125,-3.1494,-3.1367,-3.1455,-3.1709,-3.1865,-3.2012,-3.2139,-3.2168,-3.206,-3.1904,-3.165,-3.1367,-3.1113,-3.0967,-3.0898,-3.0898,-3.0898,-3.0898,-3.0898,-3.0898,-3.0898,-3.0898,-3.0898,-3.0898,-3.085,-3.0586,-3.0293,-3.0,-2.9853,-2.9639,-2.9307,-2.8809,-2.8301,-2.7891,-2.7461,-2.7226,-2.7226,-2.708,-2.7012,-2.6982,-2.6748,-2.6709,-2.6953,-2.6387,-2.6094,-2.6328,-2.5986,-2.5771,-2.5752,-2.5889,-2.5918,-2.5801,-2.5859,-2.5889,-2.5771,-2.5732,-2.5732,-2.5732,-2.5732,-2.5732,-2.5732,-2.5732,-2.5732,-2.582,-2.6849,-2.7945,-2.9223,-3.0406,-3.1689,-3.2797,-3.3081,-3.3081,-3.3081,-3.3081,-3.3081,-3.3081,-3.3081,-3.3081,-3.288,-3.278,-3.2704,-3.2692,-3.293,-3.3043,-3.3068,-3.3081,-3.3081,-3.3081,-3.3081,-3.3081,-3.3081,-3.3081,-3.3081,-3.3081,-3.3081,-3.3169,-3.3447,-3.3418,-3.3418,-3.3408,-3.332,-3.3008,-3.3047,-3.3232,-3.2949,-3.2803,-3.2744,-3.2412,-3.2314,-3.2158,-3.1875,-3.2012,-3.2441,-3.1914,-3.1611,-3.167,-3.1934,-3.209,-3.2197,-3.25,-3.2529,-3.2305,-3.2226,-3.2412,-3.2637,-3.2002,-3.1611,-3.1465,-3.1182,-3.1035,-3.0918,-3.0957,-3.0928,-3.0898,-3.0898,-3.0898,-3.0898,-3.0898,-3.0898,-3.0898,-3.085,-3.082,-3.082,-3.042,-3.0166,-3.0039,-2.9385,-2.875,-2.832,-2.7891,-2.7666,-2.7617,-2.7295,-2.708,-2.708,-2.707,-2.7031,-2.709,-2.666,-2.6426,-2.6484,-2.6143,-2.5869,-2.5937,-2.6162,-2.625,-2.5986,-2.6123,-2.6162,-2.582,-2.5732,-2.5732,-2.5732,-2.5732,-2.5732,-2.5732,-2.5732,-2.5742,-2.6014,-2.703,-2.8319,-2.9487,-3.0676,-3.1777,-3.2884,-3.3081,-3.3081,-3.3081,-3.3081,-3.3081,-3.3081,-3.3081,-3.3081,-3.3056,-3.3018,-3.2968,-3.293,-3.3068,-3.3056,-3.3081,-3.3081,-3.3081,-3.3081,-3.3081,-3.3081,-3.3081,-3.3081,-3.3081,-3.3081,-3.3093,-3.3169,-3.3418,-3.3418,-3.3418,-3.3418,-3.3408,-3.3281,-3.332,-3.3408,-3.3271,-3.3232,-3.3193,-3.3086,-3.3027,-3.293,-3.2598,-3.2539,-3.2764,-3.25,-3.2402,-3.2373,-3.2246,-3.2353,-3.2607,-3.2754,-3.2891,-3.3008,-3.3027,-3.2939,-3.2783,-3.2519,-3.2275,-3.1982,-3.1836,-3.1611,-3.1338,-3.1318,-3.1211,-3.0928,-3.0898,-3.0898,-3.0898,-3.0898,-3.0898,-3.0898,-3.0898,-3.0898,-3.0889,-3.0752,-3.0518,-3.0215,-2.9951,-2.9482,-2.8809,-2.833,-2.8105,-2.8086,-2.7988,-2.7891,-2.7851,-2.7627,-2.7588,-2.7685,-2.7236,-2.7031,-2.7178,-2.6846,-2.6592,-2.6602,-2.6748,-2.6738,-2.6631,-2.6445,-2.625,-2.5791,-2.5732,-2.5732,-2.5732,-2.5732,-2.5732,-2.5732,-2.5732,-2.6014,-2.6945,-2.8038,-2.9131,-3.0395,-3.1601,-3.2698,-3.2982,-3.3081,-3.3081,-3.3081,-3.3081,-3.3081,-3.3081,-3.3081,-3.3081,-3.3081,-3.3081,-3.3081,-3.3081,-3.3081,-3.3081,-3.3081,-3.3081,-3.3081,-3.3081,-3.3081,-3.3081,-3.3081,-3.3081,-3.3081,-3.3081,-3.3119,-3.3169,-3.3564,-3.3418,-3.3418,-3.3418,-3.3418,-3.3418,-3.3418,-3.3418,-3.3418,-3.333,-3.3213,-3.3174,-3.3193,-3.3135,-3.29,-3.2891,-3.3018,-3.3027,-3.3027,-3.3008,-3.2783,-3.2871,-3.3262,-3.3447,-3.3613,-3.3799,-3.373,-3.3535,-3.3262,-3.2939,-3.2656,-3.2432,-3.2256,-3.2041,-3.1777,-3.1748,-3.1601,-3.1387,-3.1377,-3.1367,-3.1328,-3.1211,-3.1133,-3.1103,-3.0976,-3.0898,-3.0898,-3.0898,-3.0762,-3.0439,-3.0166,-2.9629,-2.8965,-2.8652,-2.8457,-2.835,-2.8428,-2.8457,-2.8301,-2.8027,-2.7998,-2.8115,-2.7656,-2.7373,-2.7539,-2.7266,-2.7021,-2.7012,-2.7168,-2.7187,-2.7012,-2.6982,-2.666,-2.6269,-2.5918,-2.5762,-2.5732,-2.5732,-2.5732,-2.5732,-2.5732,-2.6294,-2.74,-2.868,-2.9852,-3.1045,-3.2326,-3.3081,-3.3081,-3.3081,-3.3081,-3.3081,-3.3081,-3.3081,-3.3081,-3.3081,-3.3081,-3.3081,-3.3081,-3.3081,-3.3081,-3.3081,-3.3081,-3.3081,-3.3081,-3.3081,-3.3081,-3.3081,-3.3081,-3.3081,-3.3081,-3.3081,-3.3081,-3.3081,-3.3181,-3.3818,-3.3437,-3.3418,-3.3418,-3.3418,-3.3418,-3.3418,-3.3418,-3.3418,-3.3232,-3.2949,-3.2949,-3.291,-3.2871,-3.29,-3.3066,-3.335,-3.3369,-3.335,-3.3379,-3.3389,-3.3603,-3.3926,-3.4287,-3.4482,-3.4521,-3.4209,-3.4023,-3.3887,-3.3242,-3.2832,-3.2803,-3.2519,-3.2236,-3.2217,-3.2197,-3.2158,-3.206,-3.209,-3.208,-3.207,-3.1758,-3.1514,-3.1475,-3.1162,-3.0957,-3.0898,-3.0889,-3.0889,-3.0771,-3.0107,-2.9541,-2.9111,-2.8975,-2.8789,-2.8506,-2.874,-2.8662,-2.8437,-2.835,-2.8301,-2.8252,-2.8018,-2.7705,-2.7715,-2.7471,-2.7246,-2.7256,-2.751,-2.7559,-2.7324,-2.7353,-2.7344,-2.6982,-2.6348,-2.5977,-2.584,-2.584,-2.585,-2.582,-2.5771,-2.6197,-2.74,-2.868,-2.9863,-3.1045,-3.2239,-3.2982,-3.3081,-3.3081,-3.3081,-3.3081,-3.3081,-3.3081,-3.3081,-3.3081,-3.3081,-3.3081,-3.3081,-3.3081,-3.3081,-3.3081,-3.3081,-3.3081,-3.3081,-3.3081,-3.3081,-3.3081,-3.3081,-3.3081,-3.3081,-3.3081,-3.3081,-3.3093,-3.3407,-3.3818,-3.3428,-3.3418,-3.3418,-3.3418,-3.3418,-3.3418,-3.3418,-3.3418,-3.335,-3.3262,-3.3252,-3.3232,-3.3252,-3.3242,-3.333,-3.3398,-3.3418,-3.3418,-3.3476,-3.3769,-3.3935,-3.4131,-3.4512,-3.4726,-3.4678,-3.4375,-3.4072,-3.4033,-3.3564,-3.3291,-3.3262,-3.3164,-3.293,-3.2685,-3.2656,-3.2461,-3.2207,-3.2178,-3.2197,-3.2187,-3.209,-3.1836,-3.1523,-3.1406,-3.1191,-3.0937,-3.0898,-3.0898,-3.0859,-3.0361,-3.0,-2.9805,-2.9551,-2.9316,-2.9199,-2.9014,-2.8896,-2.8799,-2.875,-2.8623,-2.8359,-2.8486,-2.8457,-2.8154,-2.8027,-2.7949,-2.7978,-2.8086,-2.8076,-2.7939,-2.7783,-2.75,-2.709,-2.6816,-2.666,-2.6582,-2.6396,-2.6221,-2.6201,-2.5947,-2.649,-2.7673,-2.8768,-2.9932,-3.1193,-3.23,-3.3093,-3.3093,-3.3081,-3.3081,-3.3081,-3.3081,-3.3081,-3.3081,-3.3081,-3.3081,-3.3081,-3.3081,-3.3081,-3.3081,-3.3081,-3.3081,-3.3081,-3.3081,-3.3081,-3.3081,-3.3081,-3.3081,-3.3131,-3.3093,-3.3093,-3.3093,-3.3131,-3.3658,-3.4267,-3.3701,-3.3701,-3.3594,-3.3428,-3.3418,-3.3418,-3.3418,-3.3418,-3.3418,-3.3418,-3.3418,-3.3418,-3.3418,-3.3408,-3.3418,-3.3418,-3.3418,-3.3418,-3.3496,-3.3857,-3.4258,-3.4639,-3.5049,-3.5254,-3.5205,-3.4814,-3.4668,-3.457,-3.418,-3.3984,-3.3975,-3.3955,-3.373,-3.3379,-3.332,-3.3115,-3.2783,-3.2695,-3.2695,-3.2695,-3.2519,-3.2334,-3.1992,-3.1748,-3.1318,-3.0957,-3.0898,-3.0898,-3.0801,-3.0459,-3.0205,-3.0185,-2.998,-2.9756,-2.96,-2.9473,-2.9394,-2.9219,-2.9189,-2.9082,-2.8926,-2.9092,-2.8945,-2.8672,-2.8555,-2.8535,-2.8301,-2.8301,-2.8301,-2.8262,-2.8066,-2.7832,-2.7637,-2.7549,-2.7402,-2.708,-2.6787,-2.668,-2.6592,-2.6545,-2.7029,-2.8625,-2.9554,-3.0732,-3.201,-3.3008,-3.322,-3.3144,-3.3119,-3.3119,-3.3156,-3.3144,-3.3144,-3.3119,-3.3106,-3.3156,-3.3156,-3.3194,-3.3181,-3.3244,-3.3219,-3.3131,-3.3131,-3.3106,-3.3131,-3.3206,-3.3257,-3.3257,-3.3269,-3.3169,-3.3232,-3.3332,-3.3432,-3.3947,-3.4902,-3.4131,-3.4082,-3.3848,-3.3525,-3.3447,-3.3418,-3.3418,-3.3418,-3.3418,-3.3418,-3.3418,-3.3418,-3.3418,-3.3418,-3.3418,-3.3418,-3.3418,-3.3476,-3.3652,-3.4023,-3.4541,-3.5234,-3.5527,-3.5771,-3.5801,-3.5566,-3.5351,-3.5137,-3.4834,-3.4668,-3.457,-3.46,-3.4473,-3.4121,-3.4092,-3.3896,-3.3516,-3.3418,-3.335,-3.3242,-3.3008,-3.2783,-3.2559,-3.1855,-3.1396,-3.1084,-3.0947,-3.0898,-3.0898,-3.0488,-3.0342,-3.0303,-3.0273,-3.0127,-2.9873,-2.9971,-2.9932,-2.9717,-2.9629,-2.958,-2.9502,-2.9541,-2.9443,-2.9082,-2.8916,-2.874,-2.8467,-2.833,-2.834,-2.8418,-2.8359,-2.834,-2.8262,-2.8291,-2.7891,-2.7373,-2.7109,-2.708,-2.706,-2.7051,-2.8266,-2.9633,-3.0852,-3.1456,-3.184,-3.2934,-3.3496,-3.3432,-3.3395,-3.3357,-3.3319,-3.3282,-3.3219,-3.3181,-3.3144,-3.3206,-3.3257,-3.3345,-3.3395,-3.3558,-3.352,-3.3307,-3.3269,-3.3545,-3.3621,-3.3571,-3.3571,-3.3596,-3.3684,-3.3796,-3.3809,-3.3847,-3.3947,-3.4299,-3.5068,-3.4541,-3.4209,-3.4023,-3.3887,-3.3574,-3.3418,-3.3418,-3.3418,-3.3418,-3.3418,-3.3418,-3.3418,-3.3418,-3.3418,-3.3418,-3.3418,-3.3437,-3.3584,-3.3984,-3.4365,-3.4844,-3.5322,-3.5547,-3.5723,-3.584,-3.5596,-3.542,-3.5303,-3.5039,-3.4707,-3.4746,-3.4824,-3.4658,-3.459,-3.4551,-3.4355,-3.4004,-3.3926,-3.373,-3.3496,-3.333,-3.3096,-3.2773,-3.2012,-3.1553,-3.1338,-3.1064,-3.0898,-3.0869,-3.0801,-3.0693,-3.0693,-3.0703,-3.0625,-3.0508,-3.0283,-3.0166,-3.0088,-3.0049,-2.9922,-2.9717,-2.9902,-2.9883,-2.9453,-2.9141,-2.8945,-2.873,-2.8516,-2.8525,-2.874,-2.8779,-2.876,-2.8701,-2.8496,-2.8242,-2.7998,-2.7715,-2.7549,-2.7471,-2.7256,-2.7216,-2.8016,-3.0133,-3.0982,-3.1656,-3.2652,-3.3632,-3.3784,-3.3734,-3.3721,-3.3721,-3.3721,-3.3684,-3.3432,-3.3345,-3.3294,-3.342,-3.352,-3.3734,-3.3897,-3.4035,-3.3909,-3.3985,-3.4173,-3.4148,-3.4022,-3.4198,-3.4286,-3.4361,-3.4424,-3.4412,-3.4424,-3.45,-3.451,-3.542,-3.498,-3.4551,-3.4258,-3.4014,-3.3613,-3.3418,-3.3418,-3.3418,-3.3418,-3.3418,-3.3418,-3.3418,-3.3418,-3.3418,-3.3418,-3.3418,-3.3428,-3.3769,-3.4219,-3.4473,-3.4863,-3.5517,-3.5527,-3.5605,-3.5928,-3.582,-3.5693,-3.5605,-3.5449,-3.5361,-3.5322,-3.5303,-3.5234,-3.5039,-3.5019,-3.4785,-3.4394,-3.416,-3.3945,-3.376,-3.3506,-3.3213,-3.2861,-3.2344,-3.2041,-3.1816,-3.1406,-3.123,-3.1143,-3.1006,-3.0898,-3.0898,-3.0898,-3.0898,-3.083,-3.0703,-3.0518,-3.0518,-3.0518,-3.0439,-3.0195,-3.041,-3.0225,-2.9971,-2.9629,-2.9424,-2.9238,-2.9062,-2.9014,-2.9199,-2.9228,-2.917,-2.8926,-2.873,-2.8516,-2.831,-2.8086,-2.7959,-2.792,-2.7783,-2.8083,-2.8911,-2.997,-3.1127,-3.2149,-3.2806,-3.3741,-3.4336,-3.4286,-3.4286,-3.4286,-3.4286,-3.4148,-3.3796,-3.3583,-3.3395,-3.3558,-3.3759,-3.406,-3.4361,-3.4512,-3.4625,-3.465,-3.4638,-3.4575,-3.4512,-3.4726,-3.4914,-3.4964,-3.4989,-3.4977,-3.5002,-3.5077,-3.5152,-3.5781,-3.5361,-3.4892,-3.4463,-3.4033,-3.3613,-3.3418,-3.3418,-3.3418,-3.3418,-3.3418,-3.3418,-3.3418,-3.3418,-3.3418,-3.3437,-3.3525,-3.3584,-3.3984,-3.4531,-3.4541,-3.499,-3.5596,-3.5664,-3.5693,-3.6006,-3.5986,-3.5976,-3.5986,-3.6016,-3.585,-3.5967,-3.5986,-3.5752,-3.5527,-3.5469,-3.5264,-3.4834,-3.456,-3.4307,-3.4121,-3.3769,-3.3369,-3.2998,-3.2744,-3.2549,-3.2236,-3.1875,-3.1611,-3.1601,-3.1221,-3.1025,-3.0967,-3.0908,-3.0898,-3.0889,-3.085,-3.082,-3.0801,-3.084,-3.084,-3.0898,-3.0879,-3.0703,-3.0391,-3.0156,-2.9941,-2.9775,-2.9619,-2.9619,-2.9668,-2.9658,-2.9492,-2.9228,-2.9062,-2.875,-2.8486,-2.835,-2.8242,-2.8242,-2.8125,-2.8344,-2.911,-2.9973,-3.1361,-3.2604,-3.3071,-3.3672,-3.4293,-3.4851,-3.4851,-3.4851,-3.4851,-3.4613,-3.4248,-3.4098,-3.3884,-3.4085,-3.4248,-3.4575,-3.4939,-3.5203,-3.5328,-3.5052,-3.4977,-3.5027,-3.5127,-3.5303,-3.5454,-3.5516,-3.5542,-3.5542,-3.5579,-3.5655,-3.5692,-3.5771,-3.5361,-3.4892,-3.4463,-3.4033,-3.3603,-3.3418,-3.3418,-3.3418,-3.3418,-3.3418,-3.3418,-3.3418,-3.3418,-3.3418,-3.3613,-3.3838,-3.3916,-3.4209,-3.4746,-3.4912,-3.5371,-3.5537,-3.5801,-3.5918,-3.5996,-3.6025,-3.6025,-3.6025,-3.6025,-3.6025,-3.6025,-3.6025,-3.5937,-3.5908,-3.5889,-3.5674,-3.5322,-3.5107,-3.4892,-3.457,-3.4131,-3.373,-3.331,-3.3037,-3.2812,-3.2646,-3.2305,-3.206,-3.2021,-3.1631,-3.1445,-3.1299,-3.1074,-3.0918,-3.0898,-3.0898,-3.0898,-3.0898,-3.0898,-3.0898,-3.0898,-3.0898,-3.0898,-3.0693,-3.0459,-3.0254,-3.0176,-3.0098,-3.0098,-3.0098,-3.0098,-3.0059,-2.9824,-2.9505,-2.9045,-2.8868,-2.876,-2.8437,-2.8301,-2.8408,-2.8398,-2.9006,-2.9618,-3.0501,-3.1628,-3.2586,-3.3285,-3.397,-3.473,-3.5416,-3.5416,-3.5416,-3.5077,-3.4713,-3.4625,-3.455,-3.4889,-3.5102,-3.5328,-3.568,-3.6019,-3.6031,-3.5642,-3.5642,-3.5855,-3.5931,-3.5906,-3.5943,-3.5981,-3.6031,-3.6056,-3.6031,-3.6006,-3.6094,-3.5781,-3.5351,-3.4883,-3.4463,-3.4033,-3.3603,-3.3418,-3.3418,-3.3418,-3.3418,-3.3418,-3.3418,-3.3418,-3.3418,-3.3418,-3.3662,-3.3984,-3.4072,-3.4443,-3.498,-3.5293,-3.5537,-3.5674,-3.5947,-3.5996,-3.6025,-3.6025,-3.6025,-3.6025,-3.6025,-3.6025,-3.6025,-3.6025,-3.6025,-3.6025,-3.5996,-3.5908,-3.5703,-3.5508,-3.5293,-3.5,-3.4453,-3.3965,-3.3711,-3.3359,-3.3144,-3.3037,-3.2715,-3.25,-3.2363,-3.1855,-3.1592,-3.1416,-3.1182,-3.0908,-3.0908,-3.0898,-3.0898,-3.0898,-3.0898,-3.0898,-3.0898,-3.0898,-3.0898,-3.0859,-3.0693,-3.0537,-3.0547,-3.0557,-3.0557,-3.0557,-3.0537,-3.0764,-3.1166,-3.0853,-3.0447,-3.017,-2.9896,-2.9373,-2.867,-2.8504,-2.8504,-2.8398,-2.9006,-2.9513,-3.0625,-3.1895,-3.2712,-3.3535,-3.4605,-3.5563,-3.5818,-3.5768,-3.5516,-3.5177,-3.5077,-3.5102,-3.5454,-3.568,-3.5918,-3.6107,-3.6282,-3.6282,-3.6056,-3.6245,-3.6358,-3.632,-3.6157,-3.6282,-3.637,-3.6282,-3.6232,-3.6307,-3.6358,-3.637,-3.5644,-3.5215,-3.4756,-3.4326,-3.3926,-3.3574,-3.3418,-3.3418,-3.3418,-3.3418,-3.3418,-3.3418,-3.3418,-3.3447,-3.3574,-3.3799,-3.418,-3.4287,-3.4844,-3.5381,-3.5547,-3.5732,-3.5928,-3.6025,-3.6025,-3.6025,-3.6025,-3.6025,-3.6025,-3.6025,-3.6025,-3.6025,-3.6025,-3.6025,-3.6025,-3.6025,-3.6025,-3.5918,-3.5723,-3.5508,-3.5225,-3.4736,-3.4209,-3.4072,-3.3721,-3.3506,-3.335,-3.3096,-3.2939,-3.2725,-3.2295,-3.1816,-3.1709,-3.1299,-3.1035,-3.1006,-3.0947,-3.0898,-3.0898,-3.0898,-3.0898,-3.0898,-3.0898,-3.0898,-3.0889,-3.0859,-3.0859,-3.0898,-3.0869,-3.085,-3.082,-3.0869,-3.1482,-3.2097,-3.2295,-3.2232,-3.1976,-3.1466,-3.062,-2.9905,-2.9,-2.8621,-2.8631,-2.8398,-2.9006,-2.9513,-3.0799,-3.1512,-3.2463,-3.451,-3.5482,-3.5943,-3.6056,-3.5881,-3.5655,-3.5479,-3.5567,-3.5805,-3.5931,-3.6056,-3.6207,-3.6358,-3.6295,-3.6257,-3.6295,-3.637,-3.637,-3.637,-3.637,-3.637,-3.637,-3.637,-3.637,-3.637,-3.637,-3.5195,-3.4746,-3.4326,-3.3896,-3.3535,-3.3447,-3.3418,-3.3418,-3.3418,-3.3418,-3.3418,-3.3418,-3.3418,-3.3496,-3.3828,-3.4209,-3.46,-3.4971,-3.5351,-3.581,-3.5889,-3.5918,-3.6006,-3.6025,-3.6025,-3.6025,-3.6025,-3.6025,-3.6025,-3.6025,-3.6055,-3.6064,-3.6055,-3.6045,-3.6113,-3.6055,-3.6025,-3.6016,-3.5957,-3.5762,-3.5449,-3.5254,-3.4775,-3.4316,-3.3994,-3.3799,-3.3535,-3.335,-3.3281,-3.3242,-3.2871,-3.2637,-3.2519,-3.1865,-3.1533,-3.1338,-3.1143,-3.0898,-3.0898,-3.0898,-3.0898,-3.0898,-3.0898,-3.0898,-3.0898,-3.0898,-3.0898,-3.0898,-3.0898,-3.0898,-3.0898,-3.0898,-3.1612,-3.2447,-3.2961,-3.3431,-3.3667,-3.3498,-3.2608,-3.1306,-3.0621,-2.9495,-2.8883,-2.8534,-2.8388,-2.9006,-2.9618,-3.0421,-3.1644,-3.3662,-3.5078,-3.5593,-3.6056,-3.6,-3.5724,-3.5575,-3.5612,-3.5931,-3.6144,-3.6182,-3.627,-3.637,-3.637,-3.6345,-3.637,-3.637,-3.637,-3.637,-3.637,-3.637,-3.637,-3.637,-3.637,-3.637,-3.6383,-3.4531,-3.4326,-3.415,-3.3818,-3.3447,-3.3418,-3.3418,-3.3418,-3.3418,-3.3418,-3.3418,-3.3418,-3.3418,-3.3506,-3.3877,-3.4297,-3.4736,-3.5195,-3.5625,-3.5957,-3.6025,-3.6025,-3.6025,-3.6025,-3.6025,-3.6025,-3.6025,-3.6025,-3.6025,-3.6055,-3.6113,-3.6328,-3.6172,-3.6182,-3.6279,-3.6133,-3.6055,-3.6025,-3.6006,-3.5928,-3.5732,-3.5508,-3.5205,-3.4805,-3.4346,-3.4023,-3.3789,-3.3506,-3.3428,-3.334,-3.3018,-3.2803,-3.2666,-3.2226,-3.1807,-3.1504,-3.1367,-3.1143,-3.0937,-3.0908,-3.0898,-3.0898,-3.0898,-3.0898,-3.0898,-3.0898,-3.0898,-3.0898,-3.0898,-3.0898,-3.0898,-3.0898,-3.2322,-3.3321,-3.3709,-3.4698,-3.5237,-3.5363,-3.482,-3.3473,-3.2158,-3.1127,-2.998,-2.9252,-2.8883,-2.8601,-2.9313,-3.012,-3.144,-3.3066,-3.4276,-3.4969,-3.5547,-3.5998,-3.5676,-3.5507,-3.535,-3.5568,-3.6068,-3.6188,-3.632,-3.637,-3.6395,-3.6383,-3.6383,-3.6383,-3.6395,-3.637,-3.637,-3.637,-3.637,-3.637,-3.637,-3.6408,-3.6521,-3.4014,-3.3916,-3.3906,-3.3721,-3.3428,-3.3418,-3.3418,-3.3418,-3.3418,-3.3418,-3.3418,-3.3418,-3.3418,-3.3564,-3.3975,-3.4443,-3.4736,-3.5283,-3.5684,-3.5937,-3.6025,-3.6025,-3.6025,-3.6025,-3.6025,-3.6025,-3.6025,-3.6025,-3.6025,-3.6064,-3.623,-3.665,-3.6543,-3.6475,-3.6504,-3.6387,-3.6201,-3.6025,-3.6025,-3.6006,-3.5937,-3.5713,-3.5517,-3.5205,-3.4795,-3.4297,-3.4053,-3.3809,-3.3613,-3.335,-3.3174,-3.3018,-3.292,-3.2588,-3.2236,-3.1963,-3.1807,-3.1494,-3.1191,-3.0996,-3.0918,-3.0898,-3.0898,-3.0898,-3.0898,-3.0898,-3.0898,-3.0898,-3.0898,-3.0898,-3.0898,-3.0898,-3.2102,-3.3529,-3.4803,-3.5768,-3.6614,-3.6668,-3.6327,-3.5248,-3.4014,-3.3009,-3.1852,-3.0474,-2.9601,-2.8747,-2.9006,-2.9828,-3.1073,-3.2443,-3.34,-3.4213,-3.4981,-3.5667,-3.5858,-3.5571,-3.5367,-3.5307,-3.5812,-3.6086,-3.6206,-3.6433,-3.6471,-3.6445,-3.6445,-3.6797,-3.7048,-3.6697,-3.637,-3.637,-3.637,-3.637,-3.6383,-3.6458,-3.6885,-3.3828,-3.3467,-3.3467,-3.3457,-3.3418,-3.3418,-3.3418,-3.3418,-3.3418,-3.3418,-3.3418,-3.3418,-3.3418,-3.3603,-3.4141,-3.457,-3.4736,-3.5586,-3.5879,-3.5976,-3.6025,-3.6025,-3.6025,-3.6025,-3.6025,-3.6025,-3.6025,-3.6025,-3.6074,-3.6211,-3.6377,-3.6621,-3.6807,-3.6846,-3.6748,-3.6533,-3.6269,-3.6084,-3.6025,-3.6025,-3.6025,-3.5918,-3.5781,-3.5488,-3.5273,-3.4932,-3.415,-3.4014,-3.3828,-3.3516,-3.3359,-3.3291,-3.3184,-3.2949,-3.2676,-3.248,-3.2256,-3.1924,-3.1562,-3.1172,-3.0937,-3.0908,-3.0898,-3.0898,-3.0898,-3.0898,-3.0898,-3.0898,-3.0898,-3.0898,-3.0898,-3.1112,-3.1883,-3.3088,-3.4515,-3.5756,-3.6732,-3.7825,-3.7479,-3.6757,-3.5907,-3.4992,-3.4062,-3.279,-3.0506,-2.9509,-2.8691,-2.9429,-3.0065,-3.1309,-3.2499,-3.3457,-3.4213,-3.4981,-3.5966,-3.5824,-3.5478,-3.5308,-3.5502,-3.5827,-3.6065,-3.6293,-3.6483,-3.6634,-3.6709,-3.7211,-3.7475,-3.686,-3.6445,-3.6383,-3.6383,-3.642,-3.6543,-3.6733,-3.7417,-3.3574,-3.3418,-3.3418,-3.3418,-3.3418,-3.3418,-3.3418,-3.3418,-3.3418,-3.3418,-3.3418,-3.3418,-3.3418,-3.3603,-3.3994,-3.4473,-3.4746,-3.5312,-3.5732,-3.5967,-3.6025,-3.6025,-3.6025,-3.6025,-3.6025,-3.6025,-3.6025,-3.6025,-3.6055,-3.6416,-3.6816,-3.706,-3.7051,-3.7031,-3.6894,-3.6601,-3.623,-3.6123,-3.6035,-3.6025,-3.6025,-3.6025,-3.5937,-3.581,-3.5469,-3.5283,-3.4853,-3.4326,-3.4043,-3.3799,-3.3574,-3.3476,-3.3418,-3.3223,-3.3057,-3.2871,-3.2637,-3.2353,-3.1943,-3.1514,-3.1191,-3.0918,-3.0898,-3.0918,-3.0957,-3.0908,-3.0898,-3.0898,-3.0898,-3.0898,-3.0898,-3.1005,-3.1431,-3.2758,-3.3957,-3.5277,-3.661,-3.7706,-3.8617,-3.7813,-3.766,-3.7115,-3.6188,-3.5095,-3.2553,-3.0391,-2.952,-2.8928,-2.9809,-3.0387,-3.1706,-3.2926,-3.3796,-3.4602,-3.5586,-3.5636,-3.5539,-3.5551,-3.5453,-3.5856,-3.6207,-3.6243,-3.6471,-3.6671,-3.6935,-3.7287,-3.7274,-3.6772,-3.6596,-3.6697,-3.6634,-3.6521,-3.6755,-3.706,-3.7679,-3.3418,-3.3418,-3.3418,-3.3418,-3.3418,-3.3418,-3.3418,-3.3418,-3.3418,-3.3418,-3.3418,-3.3418,-3.3418,-3.3564,-3.4043,-3.4404,-3.4824,-3.5322,-3.5713,-3.5928,-3.6025,-3.6025,-3.6025,-3.6025,-3.6025,-3.6025,-3.6025,-3.6025,-3.6064,-3.6777,-3.706,-3.7139,-3.7178,-3.7314,-3.7217,-3.6689,-3.6211,-3.6211,-3.6074,-3.6035,-3.6025,-3.6025,-3.6016,-3.5976,-3.5732,-3.5508,-3.5254,-3.4814,-3.4385,-3.4082,-3.3799,-3.3574,-3.3476,-3.3379,-3.3252,-3.3086,-3.293,-3.2773,-3.2373,-3.1953,-3.1533,-3.1211,-3.1318,-3.125,-3.1123,-3.1074,-3.1113,-3.0898,-3.0898,-3.0898,-3.0908,-3.1005,-3.1102,-3.2092,-3.3088,-3.4292,-3.5934,-3.724,-3.8368,-3.8993,-3.8835,-3.846,-3.7482,-3.6326,-3.4463,-3.2191,-3.0912,-3.0303,-3.0333,-3.0857,-3.1032,-3.2273,-3.3524,-3.4322,-3.515,-3.5535,-3.5973,-3.6406,-3.6406,-3.6295,-3.6567,-3.6609,-3.6985,-3.7575,-3.7726,-3.7513,-3.7575,-3.7751,-3.7475,-3.7123,-3.7023,-3.691,-3.7651,-3.7954,-3.7784,-3.3418,-3.3418,-3.3418,-3.3418,-3.3418,-3.3418,-3.3418,-3.3418,-3.3418,-3.3418,-3.3418,-3.3418,-3.3418,-3.3594,-3.416,-3.4541,-3.4834,-3.5498,-3.5947,-3.5986,-3.6025,-3.6025,-3.6025,-3.6025,-3.6025,-3.6025,-3.6025,-3.6025,-3.6035,-3.665,-3.6992,-3.7295,-3.748,-3.7744,-3.7803,-3.707,-3.667,-3.6582,-3.6221,-3.6064,-3.6025,-3.6025,-3.6025,-3.5996,-3.5957,-3.5752,-3.5498,-3.5283,-3.4814,-3.4267,-3.4053,-3.3779,-3.3467,-3.3428,-3.3369,-3.334,-3.334,-3.3154,-3.2783,-3.2383,-3.2002,-3.1621,-3.1719,-3.1777,-3.1582,-3.1484,-3.1416,-3.125,-3.1045,-3.0967,-3.0928,-3.0898,-3.1122,-3.1441,-3.2322,-3.3304,-3.4836,-3.5934,-3.693,-3.8477,-3.9196,-3.9343,-3.8386,-3.7319,-3.5939,-3.4241,-3.2737,-3.193,-3.1569,-3.1314,-3.1398,-3.1795,-3.3075,-3.4263,-3.5106,-3.5711,-3.629,-3.6932,-3.7257,-3.7157,-3.7195,-3.7369,-3.7841,-3.8479,-3.8341,-3.7965,-3.8504,-3.9094,-3.8442,-3.7776,-3.7513,-3.7563,-3.8316,-3.8552,-3.8172,-3.3418,-3.3418,-3.3418,-3.3418,-3.3418,-3.3418,-3.3418,-3.3418,-3.3418,-3.3418,-3.3418,-3.3418,-3.3418,-3.3623,-3.4004,-3.4473,-3.4805,-3.5244,-3.5674,-3.6016,-3.6025,-3.6025,-3.6025,-3.6025,-3.6025,-3.6025,-3.6025,-3.6055,-3.6035,-3.6719,-3.6875,-3.708,-3.7617,-3.7891,-3.7705,-3.7158,-3.667,-3.6592,-3.6279,-3.6025,-3.6025,-3.6025,-3.6025,-3.6025,-3.6025,-3.5928,-3.5762,-3.5576,-3.5117,-3.4541,-3.4336,-3.3916,-3.3545,-3.3447,-3.3418,-3.3418,-3.3408,-3.3223,-3.3008,-3.2773,-3.2656,-3.2295,-3.21,-3.2187,-3.1963,-3.1953,-3.1855,-3.167,-3.1377,-3.1309,-3.1318,-3.1025,-3.1044,-3.1015,-3.1662,-3.2311,-3.3406,-3.3957,-3.4947,-3.6918,-3.8206,-3.8871,-3.8654,-3.8522,-3.743,-3.6585,-3.5256,-3.3672,-3.3012,-3.2359,-3.2028,-3.1881,-3.2609,-3.3989,-3.4946,-3.5629,-3.6279,-3.6855,-3.7494,-3.7824,-3.794,-3.8054,-3.8179,-3.8504,-3.8467,-3.8454,-3.8894,-3.9182,-3.8868,-3.8429,-3.8228,-3.8165,-3.8668,-3.8494,-3.7814,-3.3291,-3.3418,-3.3418,-3.3418,-3.3418,-3.3418,-3.3418,-3.3418,-3.3418,-3.3418,-3.3418,-3.3418,-3.3418,-3.3584,-3.4023,-3.4375,-3.4766,-3.5361,-3.5674,-3.6016,-3.6025,-3.6025,-3.6025,-3.6025,-3.6025,-3.6055,-3.6162,-3.6211,-3.6094,-3.7041,-3.7353,-3.7402,-3.7637,-3.7871,-3.7715,-3.7295,-3.6826,-3.6641,-3.6279,-3.6025,-3.6025,-3.6025,-3.6025,-3.6025,-3.6025,-3.6006,-3.5947,-3.5723,-3.54,-3.4951,-3.4521,-3.4092,-3.376,-3.3506,-3.3447,-3.3418,-3.3389,-3.3271,-3.3184,-3.3193,-3.3027,-3.2734,-3.2617,-3.2529,-3.2441,-3.2383,-3.2256,-3.206,-3.1787,-3.1728,-3.165,-3.1299,-3.1045,-3.1016,-3.12,-3.1973,-3.2675,-3.3335,-3.3957,-3.5934,-3.693,-3.7808,-3.8699,-3.9324,-3.9022,-3.843,-3.773,-3.611,-3.4527,-3.3569,-3.288,-3.2532,-3.2416,-3.3419,-3.4638,-3.55,-3.6109,-3.6837,-3.736,-3.7764,-3.8674,-3.8791,-3.8655,-3.8592,-3.8843,-3.9032,-3.9107,-3.9145,-3.8968,-3.898,-3.9082,-3.9069,-3.917,-3.8704,-3.8113,-3.3037,-3.3379,-3.3418,-3.3418,-3.3418,-3.3418,-3.3418,-3.3418,-3.3418,-3.3418,-3.3418,-3.3418,-3.3418,-3.3594,-3.4287,-3.4658,-3.4873,-3.5586,-3.5889,-3.6006,-3.6025,-3.6025,-3.6025,-3.6025,-3.6025,-3.6162,-3.625,-3.623,-3.6182,-3.6973,-3.7539,-3.7851,-3.7881,-3.7939,-3.7764,-3.7539,-3.7129,-3.6797,-3.6416,-3.6162,-3.6064,-3.6025,-3.6025,-3.6025,-3.6025,-3.6025,-3.5996,-3.5918,-3.5684,-3.5332,-3.4951,-3.4512,-3.4092,-3.3672,-3.3516,-3.3418,-3.3418,-3.3389,-3.3369,-3.3398,-3.3389,-3.3193,-3.3271,-3.3135,-3.2959,-3.2812,-3.2695,-3.2412,-3.2119,-3.2109,-3.2041,-3.1641,-3.126,-3.1201,-3.1143,-3.1862,-3.2529,-3.314,-3.3642,-3.4626,-3.5398,-3.6283,-3.7358,-3.8137,-3.9025,-3.8976,-3.8343,-3.8368,-3.661,-3.4658,-3.4011,-3.3318,-3.3233,-3.309,-3.3978,-3.4701,-3.554,-3.6114,-3.6731,-3.7275,-3.8331,-3.9096,-3.8976,-3.8901,-3.9393,-3.9494,-3.8918,-3.8943,-3.9121,-3.903,-3.8387,-3.9162,-3.8985,-3.9381,-3.9025,-3.2871,-3.2998,-3.3291,-3.3418,-3.3418,-3.3418,-3.3418,-3.3418,-3.3418,-3.3418,-3.3418,-3.3418,-3.3418,-3.3496,-3.4307,-3.4619,-3.5029,-3.5498,-3.5889,-3.6025,-3.6025,-3.6025,-3.6025,-3.6025,-3.6025,-3.6064,-3.6142,-3.625,-3.6201,-3.6875,-3.7705,-3.8223,-3.8027,-3.7959,-3.7881,-3.7803,-3.748,-3.71,-3.666,-3.6338,-3.6113,-3.6045,-3.6035,-3.6025,-3.6025,-3.6025,-3.6025,-3.6025,-3.5801,-3.5439,-3.5283,-3.4892,-3.4092,-3.3926,-3.3818,-3.3447,-3.3418,-3.3408,-3.3418,-3.3418,-3.3418,-3.3418,-3.3418,-3.3389,-3.3271,-3.3184,-3.3105,-3.2812,-3.251,-3.2461,-3.2393,-3.208,-3.1816,-3.1738,-3.1572,-3.1613,-3.2165,-3.2214,-3.2716,-3.3417,-3.408,-3.5068,-3.6151,-3.7133,-3.7914,-3.8348,-3.8687,-3.8804,-3.8416,-3.6363,-3.4854,-3.4274,-3.3401,-3.3157,-3.3018,-3.3626,-3.456,-3.5376,-3.5825,-3.6379,-3.7335,-3.8089,-3.8675,-3.9129,-3.9465,-3.8921,-3.8113,-3.8243,-3.8465,-3.7049,-3.643,-3.7796,-3.8933,-3.9141,-3.9349,-3.2393,-3.2578,-3.2812,-3.3018,-3.3193,-3.335,-3.3418,-3.3418,-3.3418,-3.3418,-3.3418,-3.3418,-3.3418,-3.3555,-3.4267,-3.4707,-3.4785,-3.5576,-3.6025,-3.6025,-3.6025,-3.6025,-3.6025,-3.6025,-3.6025,-3.6055,-3.6182,-3.6367,-3.6367,-3.6738,-3.75,-3.8144,-3.7998,-3.7959,-3.7959,-3.8047,-3.7939,-3.748,-3.7002,-3.6592,-3.6328,-3.6113,-3.6035,-3.6025,-3.6025,-3.6025,-3.6025,-3.6025,-3.5869,-3.5605,-3.5557,-3.5078,-3.4307,-3.4043,-3.3769,-3.3428,-3.3418,-3.3418,-3.3418,-3.3418,-3.3418,-3.3418,-3.3418,-3.3408,-3.3398,-3.334,-3.334,-3.3232,-3.2988,-3.2783,-3.2695,-3.2588,-3.249,-3.2383,-3.1963,-3.1533,-3.1309,-3.1211,-3.1656,-3.2227,-3.3088,-3.3968,-3.4958,-3.5934,-3.6703,-3.693,-3.7583,-3.8243,-3.8243,-3.7405,-3.5819,-3.4813,-3.3748,-3.2891,-3.2747,-3.2644,-3.3191,-3.3968,-3.4281,-3.5057,-3.6151,-3.693,-3.7263,-3.8255,-3.9245,-3.8465,-3.7477,-3.7465,-3.7465,-3.5934,-3.5068,-3.6499,-3.7701,-3.836,-3.8465,-3.1758,-3.2129,-3.2158,-3.2471,-3.2822,-3.3193,-3.3369,-3.3418,-3.3418,-3.3418,-3.3418,-3.3418,-3.3418,-3.3564,-3.4209,-3.4609,-3.4873,-3.5508,-3.5947,-3.6016,-3.6025,-3.6025,-3.6025,-3.6025,-3.6025,-3.6162,-3.6309,-3.6406,-3.6719,-3.7041,-3.7422,-3.79,-3.7842,-3.7881,-3.8105,-3.8213,-3.8144,-3.793,-3.7285,-3.6728,-3.6533,-3.6289,-3.6025,-3.6025,-3.6025,-3.6025,-3.6025,-3.6025,-3.6025,-3.5879,-3.5664,-3.5234,-3.4707,-3.4033,-3.3672,-3.3486,-3.3476,-3.3418,-3.3418,-3.3418,-3.3418,-3.3418,-3.3418,-3.3418,-3.3418,-3.3418,-3.3418,-3.3398,-3.3144,-3.3105,-3.3037,-3.2891,-3.2783,-3.2666,-3.2373,-3.207,-3.1875,-3.1514,-3.1309,-3.1762,-3.2102,-3.2871,-3.3201,-3.4181,-3.5057,-3.5387,-3.6271,-3.7145,-3.7701,-3.7583,-3.6811,-3.5497,-3.4515,-3.3417,-3.2322,-3.2102,-3.1988,-3.2426,-3.2861,-3.362,-3.4836,-3.5387,-3.5825,-3.6823,-3.7701,-3.7583,-3.7037,-3.6584,-3.5715,-3.4626,-3.4303,-3.5398,-3.6271,-3.7037,-3.8255,-3.1572,-3.1709,-3.2031,-3.2412,-3.2773,-3.29,-3.3135,-3.3408,-3.3418,-3.3418,-3.3418,-3.3418,-3.3418,-3.3525,-3.4004,-3.4394,-3.4785,-3.5293,-3.5693,-3.5918,-3.5996,-3.6025,-3.6025,-3.6025,-3.6025,-3.6045,-3.6182,-3.6426,-3.6709,-3.709,-3.7471,-3.7822,-3.7744,-3.7773,-3.8252,-3.831,-3.8193,-3.8252,-3.7559,-3.6963,-3.6699,-3.6328,-3.6025,-3.6025,-3.6025,-3.6025,-3.6025,-3.6025,-3.6025,-3.5967,-3.5947,-3.5644,-3.5234,-3.4385,-3.3984,-3.3857,-3.3643,-3.3525,-3.3467,-3.3457,-3.3418,-3.3418,-3.3418,-3.3418,-3.3418,-3.3418,-3.3408,-3.3379,-3.3369,-3.3369,-3.3456,-3.3299,-3.3172,-3.3044,-3.2764,-3.2578,-3.2393,-3.1826,-3.125,-3.1299,-3.1384,-3.1546,-3.1883,-3.2426,-3.3304,-3.4181,-3.5068,-3.6065,-3.7073,-3.7287,-3.7477,-3.6487,-3.5617,-3.4414,-3.2871,-3.1883,-3.1872,-3.1431,-3.1767,-3.254,-3.3417,-3.4292,-3.5057,-3.5398,-3.5945,-3.5945,-3.5497,-3.4403,-3.3529,-3.2985,-3.2871,-3.3642,-3.4515,-3.5167,-3.7263,-3.124,-3.1299,-3.1699,-3.2129,-3.25,-3.2705,-3.3037,-3.3369,-3.3418,-3.3418,-3.3418,-3.3418,-3.3418,-3.3486,-3.3877,-3.417,-3.456,-3.5117,-3.5449,-3.5703,-3.5967,-3.6016,-3.6025,-3.6025,-3.6025,-3.6045,-3.626,-3.6514,-3.6689,-3.707,-3.7451,-3.7627,-3.7519,-3.7754,-3.8271,-3.8193,-3.8281,-3.8506,-3.7705,-3.7207,-3.6826,-3.6406,-3.6064,-3.6025,-3.6025,-3.6025,-3.6025,-3.6025,-3.6025,-3.5937,-3.582,-3.5654,-3.5264,-3.4717,-3.4404,-3.4238,-3.4014,-3.3711,-3.3672,-3.3564,-3.3467,-3.3457,-3.3418,-3.3418,-3.3418,-3.3418,-3.3418,-3.3398,-3.3398,-3.3398,-3.4123,-3.4128,-3.4222,-3.4265,-3.3243,-3.2627,-3.2295,-3.1816,-3.1465,-3.1318,-3.1348,-3.1112,-3.1334,-3.145,-3.2258,-3.2703,-3.3671,-3.4553,-3.5634,-3.6855,-3.712,-3.7382,-3.6522,-3.4969,-3.3191,-3.2311,-3.1988,-3.1556,-3.1005,-3.1441,-3.2322,-3.3417,-3.4292,-3.4414,-3.4526,-3.4748,-3.408,-3.3088,-3.2322,-3.1883,-3.1662,-3.1662,-3.2654,-3.3754,-3.5651,-3.0908,-3.0947,-3.1289,-3.1689,-3.2109,-3.2539,-3.2939,-3.3291,-3.3389,-3.3418,-3.3418,-3.3418,-3.3418,-3.3555,-3.3779,-3.3994,-3.4346,-3.4912,-3.5234,-3.5625,-3.5889,-3.5986,-3.6025,-3.6025,-3.6025,-3.6172,-3.6406,-3.6455,-3.6523,-3.6914,-3.7168,-3.7295,-3.7529,-3.7812,-3.8008,-3.8223,-3.8418,-3.8223,-3.7734,-3.7314,-3.6904,-3.6484,-3.6152,-3.6025,-3.6025,-3.6025,-3.6025,-3.6025,-3.6025,-3.5937,-3.5781,-3.5664,-3.5459,-3.5098,-3.4902,-3.4687,-3.4385,-3.4199,-3.4082,-3.3799,-3.3652,-3.3525,-3.3467,-3.3428,-3.3437,-3.3428,-3.3428,-3.3428,-3.3428,-3.3776,-3.4497,-3.4974,-3.5088,-3.5057,-3.3867,-3.3095,-3.268,-3.2194,-3.1927,-3.165,-3.1387,-3.1113,-3.1084,-3.1182,-3.1407,-3.1732,-3.2243,-3.3012,-3.3978,-3.5368,-3.6253,-3.6998,-3.7251,-3.5564,-3.408,-3.2964,-3.253,-3.1883,-3.1441,-3.1112,-3.1228,-3.2217,-3.2871,-3.2975,-3.3088,-3.3346,-3.3098,-3.2426,-3.1662,-3.1161,-3.1112,-3.1228,-3.1883,-3.3098,-3.4357,-3.0898,-3.0898,-3.0976,-3.126,-3.1689,-3.2109,-3.2529,-3.293,-3.3271,-3.3418,-3.3389,-3.3408,-3.3418,-3.3418,-3.3476,-3.3789,-3.4414,-3.4834,-3.5371,-3.5879,-3.5947,-3.5996,-3.6025,-3.6025,-3.6025,-3.6172,-3.6348,-3.6406,-3.6357,-3.6611,-3.6797,-3.6816,-3.6846,-3.7266,-3.7891,-3.8076,-3.8115,-3.7988,-3.7725,-3.7266,-3.6807,-3.6416,-3.6123,-3.6025,-3.6025,-3.6025,-3.6025,-3.6025,-3.6025,-3.5996,-3.5937,-3.5869,-3.5713,-3.5488,-3.5312,-3.5137,-3.4834,-3.4648,-3.4463,-3.417,-3.3994,-3.3906,-3.3809,-3.3545,-3.3525,-3.3457,-3.3467,-3.3486,-3.3593,-3.4268,-3.485,-3.5335,-3.5571,-3.5335,-3.4523,-3.4554,-3.4358,-3.3457,-3.272,-3.2401,-3.2044,-3.1917,-3.1777,-3.1777,-3.1807,-3.2165,-3.2145,-3.2813,-3.3741,-3.46,-3.5524,-3.6401,-3.7367,-3.7548,-3.6584,-3.4281,-3.3406,-3.253,-3.1838,-3.1406,-3.1074,-3.1025,-3.147,-3.2135,-3.1928,-3.1752,-3.15,-3.1989,-3.16,-3.1201,-3.1064,-3.1112,-3.1682,-3.235,-3.3621]}]]